[[{"header":{"parameterUnit":"m.s-1","parameterCategory":1,"la1":30.6,"la2":29.2853,"lo1":-89.7004,"lo2":-87.6739,"dy":0.0162,"dx":0.0183,"nx":112,"ny":82,"refTime":"2023-05-25T00:00:00:Z","depth":0,"parameterNumber":2,"parameterNumberName":"U-component_of_WINDS"},"data":[0.0,0.0,0.0,0.0,0.0,0.0,0.0,0.0,0.0,0.0,0.0,0.0,0.0,0.0,0.0,0.0,0.0,0.0,0.0,0.0,0.0,0.0,0.0,0.0,0.0,0.0,0.0,0.0,0.0,0.0,0.0,0.0,0.0,0.0,0.0,0.0,0.0,0.0,0.0,0.0,0.0,0.0,0.0,0.0,0.0,0.0,0.0,0.0,0.0,0.0,0.0,0.0,0.0,0.0,0.0,0.0,0.0,0.0,0.0,0.0,0.0,0.0,0.0,0.0,0.0,0.0,0.0,0.0,0.0,0.0,0.0,0.0,0.0,0.0,0.0,0.0,0.0,0.0,0.0,0.0,0.0,0.0,0.0,0.0,0.0,0.0,0.0,0.0,0.0,0.0,0.0,1.6967,2.016,2.1737,2.0695,2.0748,1.9769,1.7309,0.0,0.0,0.0,0.0,0.0,0.0,0.0,0.0,0.0,0.0,0.0,0.0,0.0,0.0,0.0,0.0,0.0,0.0,0.0,0.0,0.0,0.0,0.0,0.0,0.0,0.0,0.0,0.0,0.0,0.0,0.0,0.0,0.0,0.0,0.0,0.0,0.0,0.0,0.0,0.0,0.0,0.0,0.0,0.0,0.0,0.0,0.0,0.0,0.0,0.0,0.0,0.0,0.0,0.0,0.0,0.0,0.0,0.0,0.0,0.0,0.0,0.0,0.0,0.0,0.0,0.0,0.0,0.0,0.0,0.0,0.0,0.0,0.0,0.0,0.0,0.0,0.0,0.0,0.0,0.0,0.0,0.0,0.0,0.0,0.0,0.0,0.0,0.0,0.0,0.0,0.0,0.0,0.0,0.0,0.0,0.0,0.0,0.0,0.0,0.0,0.0,0.0,0.0,0.0,1.6341,1.9042,2.0294,2.0762,2.0304,1.9893,1.8613,1.619,0.0,0.0,0.0,0.0,0.0,0.0,0.0,0.0,0.0,0.0,0.0,0.0,0.0,0.0,0.0,0.0,0.0,0.0,0.0,0.0,0.0,0.0,0.0,0.0,0.0,0.0,0.0,0.0,0.0,0.0,0.0,0.0,0.0,0.0,0.0,0.0,0.0,0.0,0.0,0.0,0.0,0.0,0.0,0.0,0.0,0.0,0.0,0.0,0.0,0.0,0.0,0.0,0.0,0.0,0.0,0.0,0.0,0.0,0.0,0.0,0.0,0.0,0.0,0.0,0.0,0.0,0.0,0.0,0.0,0.0,0.0,0.0,0.0,0.0,0.0,0.0,0.0,0.0,0.0,0.0,0.0,0.0,0.0,0.0,0.0,0.0,0.0,0.0,0.0,0.0,0.0,0.0,0.0,0.0,0.0,0.0,0.0,0.0,0.0,0.0,0.0,0.0,0.0,1.5691,1.6938,1.9522,2.0468,2.0722,2.0237,1.9706,1.8892,1.7727,1.6114,0.0,0.0,0.0,0.0,0.0,0.0,0.0,0.0,0.0,0.0,0.0,0.0,0.0,0.0,0.0,0.0,0.0,0.0,0.0,0.0,0.0,0.0,0.0,0.0,0.0,0.0,0.0,0.0,0.0,0.0,0.0,0.0,0.0,0.0,0.0,0.0,0.0,0.0,0.0,0.0,0.0,0.0,0.0,0.0,0.0,0.0,0.0,0.0,0.0,0.0,0.0,0.0,0.0,0.0,0.0,0.0,0.0,0.0,0.0,0.0,0.0,0.0,0.0,0.0,0.0,0.0,0.0,0.0,0.0,0.0,0.0,0.0,0.0,0.0,0.0,0.0,0.0,0.0,0.0,0.0,0.0,0.0,0.0,0.0,0.0,0.0,0.0,0.0,0.0,0.0,0.0,0.0,0.0,0.0,0.0,0.0,0.0,0.0,0.0,0.0,0.0,0.0,1.6529,1.7488,1.976,2.0481,2.0615,2.0144,1.9466,1.8947,1.8627,1.6211,0.0,0.0,0.0,0.0,0.0,0.0,0.0,0.0,0.0,0.0,0.0,0.0,0.0,0.0,0.0,0.0,0.0,0.0,0.0,0.0,0.0,0.0,0.0,0.0,0.0,0.0,0.0,0.0,0.0,0.0,0.0,0.0,0.0,0.0,0.0,0.0,0.0,0.0,0.0,0.0,0.0,0.0,0.0,0.0,0.0,0.0,0.0,0.0,0.0,0.0,0.0,0.0,0.0,0.0,0.0,0.0,0.0,0.0,0.0,0.0,0.0,0.0,0.0,0.0,0.0,0.0,0.0,0.0,0.0,0.0,0.0,0.0,0.0,0.0,0.0,0.0,0.0,0.0,0.0,0.0,0.0,0.0,0.0,0.0,0.0,0.0,0.0,0.0,0.0,0.0,0.0,0.0,0.0,0.0,0.0,0.0,0.0,0.0,0.0,0.0,0.0,0.0,1.7209,1.8317,2.0418,2.0174,1.988,1.9826,1.877,1.7755,1.6943,1.5165,0.0,0.0,0.0,0.0,0.0,0.0,0.0,0.0,0.0,0.0,0.0,0.0,0.0,0.0,0.0,0.0,0.0,0.0,0.0,0.0,0.0,0.0,0.0,0.0,0.0,0.0,0.0,0.0,0.0,0.0,0.0,0.0,0.0,0.0,0.0,0.0,0.0,0.0,0.0,0.0,0.0,0.0,0.0,0.0,0.0,0.0,0.0,0.0,0.0,0.0,0.0,0.0,0.0,0.0,0.0,0.0,0.0,0.0,0.0,0.0,0.0,0.0,0.0,0.0,0.0,0.0,0.0,0.0,0.0,0.0,0.0,0.0,0.0,0.0,0.0,0.0,0.0,0.0,0.0,0.0,0.0,0.0,0.0,0.0,0.0,0.0,0.0,0.0,0.0,0.0,0.0,0.0,0.0,0.0,0.0,0.0,0.0,0.0,0.0,0.0,0.0,0.0,1.6904,1.7903,0.0,2.004,1.9733,1.9575,1.8596,1.786,1.754,0.0,0.0,0.0,0.0,0.0,0.0,0.0,0.0,0.0,0.0,0.0,0.0,0.0,0.0,0.0,0.0,0.0,0.0,0.0,0.0,0.0,0.0,0.0,0.0,0.0,0.0,0.0,0.0,0.0,0.0,0.0,0.0,0.0,0.0,0.0,0.0,0.0,0.0,0.0,0.0,0.0,0.0,0.0,0.0,0.0,0.0,0.0,0.0,0.0,0.0,0.0,0.0,0.0,0.0,0.0,0.0,0.0,0.0,0.0,0.0,0.0,0.0,0.0,0.0,0.0,0.0,0.0,0.0,0.0,0.0,0.0,0.0,0.0,0.0,0.0,0.0,0.0,0.0,0.0,0.0,0.0,0.0,0.0,0.0,0.0,0.0,0.0,0.0,0.0,0.0,0.0,0.0,0.0,0.0,0.0,0.0,0.0,0.0,0.0,0.0,0.0,0.0,1.6308,1.6887,1.7862,0.0,1.984,1.9575,1.9281,1.833,1.7643,1.746,0.0,0.0,0.0,0.0,0.0,0.0,0.0,0.0,0.0,0.0,0.0,0.0,0.0,0.0,0.0,0.0,0.0,0.0,0.0,0.0,0.0,0.0,0.0,0.0,0.0,0.0,0.0,0.0,0.0,0.0,0.0,0.0,0.0,0.0,0.0,0.0,0.0,0.0,0.0,0.0,0.0,0.0,0.0,0.0,0.0,0.0,0.0,0.0,0.0,0.0,0.0,0.0,0.0,0.0,0.0,0.0,0.0,0.0,0.0,0.0,0.0,0.0,0.0,0.0,0.0,0.0,0.0,0.0,0.0,0.0,0.0,0.0,0.0,0.0,0.0,0.0,0.0,0.0,0.0,0.0,0.0,0.0,0.0,0.0,0.0,0.0,0.0,0.0,0.0,0.0,0.0,0.0,0.0,0.0,0.0,0.0,0.0,0.0,0.0,0.0,0.0,0.0,1.615,1.7301,1.8477,1.9666,1.9575,1.9281,1.8916,1.7862,1.6951,0.0,0.0,0.0,0.0,0.0,0.0,0.0,0.0,0.0,0.0,0.0,0.0,0.0,0.0,0.0,0.0,0.0,0.0,0.0,0.0,0.0,0.0,0.0,0.0,0.0,0.0,0.0,0.0,0.0,0.0,0.0,0.0,0.0,0.0,0.0,0.0,0.0,0.0,0.0,0.0,0.0,0.0,0.0,0.0,0.0,0.0,0.0,0.0,0.0,0.0,0.0,0.0,0.0,0.0,0.0,0.0,0.0,0.0,0.0,0.0,0.0,0.0,0.0,0.0,0.0,0.0,0.0,0.0,0.0,0.0,0.0,0.0,0.0,0.0,0.0,0.0,0.0,0.0,0.0,0.0,0.0,0.0,0.0,0.0,0.0,0.0,0.0,0.0,0.0,0.0,0.0,0.0,0.0,0.0,0.0,0.0,0.0,0.0,0.0,0.0,0.0,0.0,0.0,1.6433,1.7622,1.8718,1.9693,1.972,1.9466,1.8943,1.8023,1.7234,1.662,0.0,0.0,0.0,0.0,0.0,0.0,0.0,0.0,0.0,0.0,0.0,0.0,0.0,0.0,0.0,0.0,0.0,0.0,0.0,0.0,0.0,0.0,0.0,0.0,0.0,0.0,0.0,0.0,0.0,0.0,0.0,0.0,0.0,0.0,0.0,0.0,0.0,0.0,0.0,0.0,0.0,0.0,0.0,0.0,0.0,0.0,0.0,0.0,0.0,0.0,0.0,0.0,0.0,0.0,0.0,0.0,0.0,0.0,0.0,0.0,0.0,0.0,0.0,0.0,0.0,0.0,0.0,0.0,0.0,0.0,0.0,0.0,0.0,0.0,0.0,0.0,0.0,0.0,0.0,0.0,0.0,0.0,0.0,0.0,0.0,0.0,0.0,0.0,0.0,0.0,0.0,0.0,0.0,0.0,0.0,0.0,0.0,0.0,0.0,0.0,0.0,0.0,1.6567,1.7756,1.8784,1.9546,1.9626,1.9386,1.8798,1.8036,1.7314,1.6605,0.0,0.0,0.0,0.0,0.0,0.0,0.0,0.0,0.0,0.0,0.0,0.0,0.0,0.0,0.0,0.0,0.0,0.0,0.0,0.0,0.0,0.0,0.0,0.0,0.0,0.0,0.0,0.0,0.0,0.0,0.0,0.0,0.0,0.0,0.0,0.0,0.0,0.0,0.0,0.0,0.0,0.0,0.0,0.0,0.0,0.0,0.0,0.0,0.0,0.0,0.0,0.0,0.0,0.0,0.0,0.0,0.0,0.0,0.0,0.0,0.0,0.0,0.0,0.0,0.0,0.0,0.0,0.0,0.0,0.0,0.0,0.0,0.0,0.0,0.0,0.0,0.0,0.0,0.0,0.0,0.0,0.0,0.0,0.0,0.0,0.0,0.0,0.0,0.0,0.0,0.0,0.0,0.0,0.0,0.0,0.0,0.0,0.0,0.0,0.0,0.0,0.0,1.6673,1.7809,1.8758,1.9374,1.9441,1.9201,1.8584,1.7969,1.7287,1.6431,0.0,0.0,0.0,0.0,0.0,0.0,0.0,0.0,0.0,0.0,0.0,0.0,0.0,0.0,0.0,0.0,0.0,0.0,0.0,0.0,0.0,0.0,0.0,0.0,0.0,0.0,0.0,0.0,0.0,0.0,0.0,0.0,0.0,0.0,0.0,0.0,0.0,0.0,0.0,0.0,0.0,0.0,0.0,0.0,0.0,0.0,0.0,0.0,0.0,0.0,0.0,0.0,0.0,0.0,0.0,0.0,0.0,0.0,0.0,0.0,1.7779,0.0,0.0,0.0,0.0,0.0,0.0,0.0,0.0,0.0,0.0,0.0,0.0,0.0,0.0,0.0,0.0,0.0,0.0,0.0,0.0,0.0,0.0,0.0,0.0,0.0,0.0,0.0,0.0,0.0,0.0,0.0,0.0,0.0,0.0,0.0,0.0,0.0,0.0,0.0,0.0,0.0,1.7248,1.8237,1.9052,1.9639,1.9706,1.9466,1.8878,1.8277,1.7649,1.7058,1.7203,0.0,0.0,0.0,0.0,0.0,0.0,0.0,0.0,0.0,0.0,0.0,0.0,0.0,0.0,0.0,0.0,0.0,0.0,0.0,0.0,0.0,0.0,0.0,0.0,0.0,0.0,0.0,0.0,0.0,0.0,0.0,0.0,0.0,0.0,0.0,0.0,0.0,0.0,0.0,0.0,0.0,0.0,0.0,0.0,0.0,0.0,0.0,0.0,0.0,0.0,0.0,0.0,0.0,0.0,0.0,0.0,0.0,0.0,0.0,0.0,1.9176,0.0,0.0,0.0,0.0,0.0,0.0,0.0,0.0,0.0,0.0,0.0,0.0,0.0,0.0,0.0,0.0,0.0,0.0,0.0,0.0,0.0,0.0,0.0,0.0,0.0,0.0,0.0,0.0,0.0,0.0,0.0,0.0,0.0,0.0,0.0,0.0,0.0,0.0,0.0,0.0,1.7474,1.837,1.917,1.9903,1.988,1.9626,1.9172,1.8436,1.7836,1.7408,1.7425,0.0,0.0,0.0,0.0,0.0,0.0,0.0,0.0,0.0,0.0,0.0,0.0,0.0,0.0,0.0,0.0,0.0,0.0,0.0,0.0,0.0,0.0,0.0,0.0,0.0,0.0,0.0,0.0,0.0,0.0,0.0,0.0,0.0,0.0,0.0,0.0,0.0,0.0,0.0,0.0,0.0,0.0,0.0,0.0,0.0,0.0,0.0,0.0,0.0,0.0,0.0,0.0,0.0,2.3833,2.454,2.4771,2.5208,2.5395,2.5238,2.3172,2.1835,2.1125,0.0,0.0,0.0,0.0,0.0,0.0,0.0,0.0,0.0,0.0,0.0,0.0,0.0,0.0,0.0,0.0,0.0,0.0,0.0,0.0,0.0,0.0,0.0,0.0,0.0,1.9345,1.939,0.0,0.0,0.0,0.0,0.0,0.0,0.0,0.0,0.0,0.0,0.0,0.0,1.7648,1.8517,1.9343,2.0117,2.0067,1.9829,1.9428,1.8691,1.8076,1.7689,1.7736,1.8144,0.0,0.0,0.0,0.0,0.0,0.0,0.0,0.0,0.0,0.0,0.0,0.0,0.0,0.0,0.0,0.0,0.0,0.0,0.0,0.0,0.0,0.0,0.0,0.0,0.0,0.0,0.0,0.0,0.0,0.0,0.0,0.0,1.8666,1.9311,0.0,0.0,0.0,0.0,0.0,0.0,0.0,0.0,0.0,0.0,0.0,0.0,0.0,2.3428,2.4592,2.5843,2.6353,2.622,2.7474,2.7818,2.7326,2.7919,2.8076,2.7924,2.8096,0.0,2.3537,2.2471,0.0,0.0,0.0,0.0,0.0,0.0,0.0,0.0,0.0,0.0,0.0,0.0,0.0,0.0,0.0,0.0,0.0,0.0,0.0,0.0,0.0,0.0,1.8075,1.8428,1.8809,1.8986,0.0,1.8658,1.8426,1.7318,1.6724,0.0,0.0,0.0,0.0,0.0,0.0,0.0,1.8223,1.9145,1.9826,2.0157,2.0428,2.0271,1.9468,1.9294,1.8851,1.8009,1.7754,1.7849,1.8321,1.8931,0.0,0.0,0.0,0.0,0.0,0.0,0.0,0.0,0.0,0.0,0.0,0.0,0.0,0.0,0.0,0.0,0.0,0.0,0.0,0.0,0.0,0.0,0.0,0.0,0.0,0.0,0.0,0.0,0.0,1.85,1.9431,1.9333,1.9754,1.9657,0.0,0.0,0.0,0.0,0.0,0.0,0.0,0.0,0.0,2.5252,2.5477,2.5684,2.5949,2.7832,2.8432,2.7799,2.8981,2.9499,2.9474,2.8759,2.8555,2.8675,2.8739,2.7645,2.5801,2.5253,2.4424,2.3311,0.0,0.0,0.0,0.0,2.0264,1.9494,2.0351,2.0237,0.0,1.9704,0.0,0.0,0.0,0.0,0.0,0.0,0.0,0.0,0.0,0.0,0.0,1.9813,2.0307,2.0601,2.0441,2.0147,1.9454,0.0,1.7415,1.6971,1.6104,0.0,0.0,0.0,0.0,1.7635,1.8853,1.9599,2.016,2.0454,2.0601,2.0418,1.9696,1.9495,1.9093,1.8343,1.7849,1.8135,1.9328,1.9253,1.9858,0.0,0.0,0.0,0.0,0.0,0.0,0.0,0.0,0.0,0.0,0.0,0.0,0.0,0.0,0.0,0.0,0.0,0.0,0.0,0.0,0.0,0.0,0.0,0.0,0.0,0.0,0.0,0.0,1.9538,2.0398,1.949,2.095,2.1427,0.0,0.0,0.0,0.0,0.0,0.0,2.3912,2.4502,2.5493,2.6979,2.7111,2.7075,2.6872,2.8797,2.9411,2.876,2.9642,3.026,3.0595,2.9417,2.9006,2.9199,2.8938,2.8448,2.7739,2.7031,2.5888,2.4483,2.3528,2.2425,2.1477,2.2103,2.1608,2.0771,2.1985,2.2009,2.1438,2.1212,0.0,1.9896,1.8615,0.0,0.0,0.0,0.0,1.7809,1.9103,1.992,2.0588,2.147,2.2017,2.2271,2.2091,2.1636,2.0726,0.0,1.8343,1.8009,1.7288,0.0,0.0,0.0,0.0,1.8504,1.9495,2.0094,2.0535,2.0793,2.0788,2.0548,1.996,1.9816,1.9455,1.8758,1.8223,1.8458,1.9674,1.9573,2.017,2.1608,0.0,0.0,0.0,0.0,0.0,0.0,0.0,0.0,0.0,0.0,0.0,0.0,0.0,0.0,0.0,0.0,0.0,0.0,0.0,0.0,0.0,0.0,0.0,0.0,0.0,0.0,0.0,0.0,0.0,2.0576,2.3014,0.0,0.0,0.0,0.0,2.3351,2.5193,2.5991,2.5268,2.6189,2.6694,2.6537,2.6914,2.7466,2.8192,2.8956,2.9371,2.9439,2.9745,2.9987,3.0145,3.0312,3.0259,3.0066,3.0291,3.0023,2.9188,2.6581,2.4922,2.3934,2.2642,2.2199,2.2273,2.2572,2.2227,2.1665,2.1995,2.1332,2.0416,2.1299,2.0944,2.0026,1.9125,1.8655,0.0,0.0,1.9199,1.9853,2.0762,2.143,2.2098,2.2972,2.3198,2.3225,2.3212,2.2979,2.2184,0.0,1.9265,1.8756,1.8464,0.0,1.8384,1.8397,1.9132,1.9813,2.0117,2.0664,2.1069,2.1082,2.1082,2.0855,2.0237,2.0454,2.0271,1.9401,1.9025,1.8625,1.8131,1.9499,2.0106,1.9837,2.1439,0.0,0.0,0.0,0.0,0.0,0.0,0.0,0.0,0.0,0.0,0.0,0.0,0.0,0.0,0.0,0.0,0.0,0.0,0.0,0.0,0.0,0.0,0.0,0.0,0.0,0.0,0.0,0.0,2.439,2.6526,0.0,2.3896,2.5206,2.5568,2.382,2.5895,2.7099,2.671,2.7511,2.83,2.9007,2.9164,2.902,2.8544,3.0059,3.0329,2.937,2.9661,2.9811,2.9826,2.8856,2.8381,2.8281,2.8395,2.8196,2.7689,2.6523,2.6041,2.6014,2.5526,2.4479,2.3325,2.3794,2.3332,2.2509,2.2791,2.2565,2.2091,2.147,2.0668,1.9863,1.9586,1.9517,1.9746,2.0428,2.0927,2.1456,2.2572,2.2832,2.3073,2.3919,2.3986,2.3941,2.4092,2.4039,2.3674,2.2565,2.1256,2.0241,1.9947,1.9586,1.9399,1.9586,2.004,2.0535,2.1047,2.143,2.1523,2.1149,2.1283,2.1082,2.0264,2.0304,2.0013,1.9132,1.8811,1.8673,1.8763,1.9507,2.0175,2.0716,2.1506,2.1833,0.0,0.0,0.0,0.0,0.0,0.0,0.0,0.0,0.0,0.0,0.0,0.0,0.0,0.0,0.0,0.0,0.0,0.0,0.0,0.0,0.0,0.0,0.0,0.0,0.0,0.0,2.6499,2.7306,2.8817,2.8822,2.6368,2.7082,2.7027,2.5357,2.7162,2.8182,2.7858,2.8434,2.8935,2.9332,2.9347,2.8998,2.8245,2.962,2.9722,2.8636,2.8894,2.8993,2.8853,2.788,2.7403,2.7309,2.7416,2.7241,2.6961,2.676,2.6839,2.7023,2.6594,2.5438,2.4144,2.4665,2.4335,2.3656,2.3728,2.3732,2.3519,2.2271,2.147,2.0989,2.0989,2.1091,2.1411,2.2231,2.2659,2.3086,2.4017,2.4142,2.4172,2.4759,2.4783,2.4703,2.4853,2.4893,2.4823,2.4436,2.3086,2.1884,2.1515,2.1127,2.0895,2.1096,2.1376,2.1703,2.1997,2.2198,2.2098,2.1603,2.1582,2.1341,2.0735,2.0557,2.0117,1.9279,1.8851,1.8646,1.8672,1.9144,1.9662,2.0257,2.098,2.1478,2.1687,0.0,0.0,0.0,0.0,0.0,0.0,0.0,0.0,0.0,0.0,0.0,0.0,0.0,0.0,0.0,0.0,0.0,0.0,0.0,0.0,0.0,0.0,0.0,2.3663,2.6811,2.9133,2.9207,2.9812,2.975,2.8535,2.7914,2.7726,2.8,2.9122,2.9404,2.852,2.8852,2.853,2.7363,2.7349,2.7349,2.7336,2.7575,2.7575,2.7336,2.7575,2.7562,2.7349,2.7589,2.7562,2.7349,2.7589,2.7549,2.7336,2.7322,2.7108,2.6734,2.5598,2.4957,2.4679,2.501,2.5141,2.505,2.4733,2.4626,2.4479,2.3625,2.3345,2.3332,2.3345,2.3345,2.3465,2.4088,2.4449,2.4693,2.5037,2.5317,2.5531,2.5545,2.5558,2.5558,2.5558,2.5558,2.5545,2.5531,2.4609,2.3683,2.3067,2.2947,2.2934,2.2934,2.3153,0.0,2.296,2.292,2.2813,2.2472,2.197,2.1622,2.1596,2.1269,2.0722,1.984,1.9196,1.8504,1.7648,1.8371,1.8613,1.8242,1.9876,2.1043,2.1679,0.0,0.0,0.0,0.0,0.0,0.0,0.0,0.0,0.0,0.0,0.0,0.0,0.0,0.0,0.0,0.0,0.0,0.0,0.0,0.0,0.0,0.0,2.749,2.749,2.9617,3.1818,3.3578,3.3105,3.212,3.0758,3.0262,2.9154,2.7014,2.8598,2.9152,2.8003,2.8263,2.8302,2.7938,2.8123,2.8136,2.7951,2.8203,2.8203,2.7938,2.8018,2.8018,2.7951,2.8031,2.8018,2.7951,2.8031,2.8018,2.7924,2.771,2.7535,2.7402,2.6867,2.6265,2.5663,2.5919,2.5758,2.5384,2.5266,2.513,2.4917,2.4676,2.4449,2.4279,2.4529,2.4596,2.4676,2.505,2.5211,2.5344,2.5677,2.581,2.5984,2.636,2.6427,2.6427,2.6427,2.6427,2.6333,2.5957,2.561,2.5208,2.4606,2.4115,2.3834,2.3834,2.3728,0.0,2.3562,2.3549,2.3407,2.3078,2.2939,2.2579,2.1957,2.1234,2.0458,1.9575,1.8731,1.8049,1.7622,1.8294,1.8849,1.9284,2.0504,2.123,0.0,0.0,0.0,0.0,0.0,0.0,0.0,0.0,0.0,0.0,0.0,0.0,0.0,0.0,0.0,0.0,0.0,0.0,0.0,0.0,0.0,0.0,2.8067,2.9956,3.0804,3.2424,3.3939,3.5123,3.3996,3.2612,3.1344,3.0261,2.8931,2.727,2.8331,2.8745,2.8098,2.8243,2.8433,2.8511,2.8698,2.8698,2.8524,2.8577,2.8524,2.8379,2.8245,2.8179,2.8179,2.8179,2.8179,0.0,2.8179,2.8179,2.8165,2.8005,2.7924,0.0,0.0,0.0,0.0,0.0,2.636,2.6039,2.5919,2.5692,2.5489,2.5489,2.5251,2.5039,2.5504,2.5583,2.5569,2.5945,2.6027,2.6106,2.6266,2.6453,2.6626,2.6934,2.7001,2.7001,2.7001,2.7001,2.6907,2.6613,2.6439,0.0,2.5865,2.5224,2.4756,2.4756,2.4609,2.4409,2.4168,2.4142,2.3968,2.3554,2.3287,2.2926,2.2425,2.1462,0.0,0.0,0.0,1.7983,1.7448,1.7827,0.0,0.0,0.0,2.0571,2.0966,0.0,0.0,0.0,2.2619,2.312,0.0,0.0,0.0,0.0,0.0,0.0,0.0,0.0,0.0,0.0,0.0,0.0,0.0,0.0,0.0,0.0,2.9927,3.1595,3.3297,3.4649,3.5275,3.4732,3.3255,3.1907,3.0954,2.8994,2.7898,2.8165,2.8219,2.8353,2.8591,0.0,0.0,0.0,0.0,2.9028,2.9001,2.8735,2.8644,2.8604,2.8366,2.8219,2.8179,2.8219,2.8219,2.8179,2.8179,2.8179,2.8179,2.8179,2.8179,2.8125,2.7576,2.7362,2.7322,2.6987,2.6867,2.6827,2.6573,0.0,0.0,2.6131,2.5905,2.5758,2.6319,2.6346,2.6252,2.672,2.6867,2.6867,2.6867,2.7094,2.7362,2.7362,2.7376,2.7403,2.7362,2.7362,2.7349,2.7309,2.7054,2.6827,2.6827,2.6119,2.5558,2.5558,2.5531,2.5317,2.4719,2.4653,2.4476,2.3964,0.0,0.0,2.296,2.1897,2.0869,1.996,1.9078,1.8264,1.7487,1.7447,1.7837,1.8677,1.9107,1.971,2.0555,2.0981,2.1522,2.2205,2.2997,2.387,0.0,0.0,0.0,0.0,0.0,0.0,0.0,0.0,0.0,0.0,0.0,0.0,0.0,0.0,0.0,2.9474,3.1759,3.3329,3.3267,3.4026,3.4399,3.4031,3.2462,3.1357,3.1154,2.9313,2.8125,2.8179,2.8419,2.8537,2.8604,2.8831,2.8935,2.9001,2.9272,2.9285,2.9001,2.8948,2.8788,2.8604,0.0,0.0,2.8192,2.8404,2.8419,2.8179,2.8179,2.8179,2.8179,2.8179,2.8179,2.8152,2.7749,2.7615,2.7575,2.7322,2.7175,2.7215,2.7162,2.6907,2.6694,2.6974,2.6814,2.664,2.7028,2.7095,0.0,2.7188,2.7175,2.7175,2.7175,2.7388,2.7615,2.7615,2.7844,2.7951,2.7669,2.7615,2.7549,2.7349,2.7255,2.7108,2.6867,2.6293,2.5904,2.5904,2.5665,2.5384,2.5037,2.4997,2.4863,2.4502,2.4332,2.4008,2.33,2.2545,2.1697,2.0575,1.9709,1.9147,1.8973,1.896,1.9045,1.9243,2.0174,2.0723,2.0919,2.1831,2.2655,2.334,2.2644,2.3321,0.0,0.0,0.0,0.0,0.0,0.0,0.0,0.0,0.0,0.0,0.0,2.5047,0.0,0.0,3.001,3.0621,3.159,3.2314,3.2438,3.2002,3.1937,3.265,3.1957,3.1151,3.042,2.9174,2.8473,2.8577,2.8604,2.8671,2.8775,2.9098,2.9325,2.9428,2.9619,2.9633,2.9428,2.9339,2.9192,2.9045,2.8751,2.8524,2.8419,2.8419,2.8326,2.8179,2.8179,2.8179,2.8179,2.8179,2.8179,2.8165,2.8018,2.7965,2.7924,2.7589,2.7482,2.7482,2.7482,2.7295,2.7094,2.7388,2.7281,2.7094,2.7388,2.7416,2.7336,2.7442,2.7482,2.7482,2.7482,2.7696,2.7965,2.7965,2.8072,2.8138,2.7991,2.7965,2.7924,2.7777,2.763,2.7428,2.7281,2.6774,2.6333,2.6238,2.6052,2.5852,2.5596,2.5556,2.5382,2.4903,2.4693,2.4359,2.3821,2.2806,2.1764,2.0766,2.012,1.98,1.98,1.98,1.98,1.98,2.0486,2.0936,2.1046,2.1774,2.242,2.3041,2.2457,2.3293,0.0,0.0,0.0,0.0,0.0,0.0,0.0,0.0,2.3541,2.5454,2.7178,2.8469,2.8813,3.0426,3.1632,3.1246,3.1037,3.0974,3.1138,2.9985,2.9607,3.0995,3.1153,3.0635,2.9498,2.8858,2.8644,2.8895,2.8791,2.8818,2.9068,2.9406,2.9673,2.9913,2.9913,2.9913,2.9913,2.9633,2.9486,2.9472,2.9005,2.8751,2.8684,2.843,2.8326,2.8272,2.8205,2.8179,2.8179,2.8179,2.8179,2.8179,2.8179,2.8179,2.8152,2.7911,2.7789,2.7789,2.7789,2.7589,2.7443,2.7696,2.763,2.7443,2.7696,2.7657,2.7523,2.7764,2.7789,2.7789,2.7789,2.8005,2.8179,2.8179,2.8179,2.8179,2.8179,2.8179,2.8179,2.8179,2.7991,2.7762,2.7709,2.7308,2.6867,2.6533,2.6426,2.6279,2.6038,2.5944,2.5703,2.5181,2.481,2.4479,2.4222,2.2993,2.1951,2.1229,2.0855,2.065,2.0704,2.0597,2.057,2.0624,2.0895,2.1096,2.1283,2.1662,2.2077,2.2512,2.2531,2.3544,1.8303,1.8415,1.9133,2.0569,2.1244,2.2529,0.0,0.0,2.8022,2.9324,3.1176,3.2252,3.1401,3.2557,3.2994,3.0832,3.129,3.131,2.9537,2.939,2.9427,2.9319,2.9106,2.898,2.9058,2.8551,2.8366,2.8631,2.8815,2.9081,2.9419,2.9713,2.9887,2.9913,2.9913,2.9913,2.9913,2.9633,2.9486,2.9486,2.9419,2.9245,2.8948,2.8908,2.8804,2.8537,2.8312,2.8179,2.8179,2.8179,2.8179,2.8179,2.8179,2.8179,2.8179,2.8152,2.8138,2.8138,2.8138,2.7938,2.7696,2.8031,2.7938,2.7709,2.8045,2.8112,2.8098,2.8125,2.8138,2.8138,2.8138,2.8165,2.8179,2.8179,2.8179,2.8179,2.8179,2.8179,2.8179,2.8179,2.8165,2.8045,2.7749,2.7642,2.7415,2.6854,2.656,2.6279,2.6038,2.5732,2.5438,2.5117,2.481,2.4479,2.4222,2.3567,2.3105,2.3033,2.2451,2.2298,2.2586,2.2071,2.1911,2.2131,2.2171,2.2111,2.1884,2.2479,2.2786,2.2853,2.31,2.3998,1.9625,2.0246,2.1209,2.2457,2.4084,2.6054,2.8593,2.9855,3.0901,3.2349,3.3052,3.312,3.2113,3.2039,3.1568,0.0,2.9838,2.99,2.9346,2.9112,2.8858,2.8551,2.846,2.8524,2.8948,2.8818,2.8644,2.8604,2.8828,2.9055,2.9219,2.9499,2.974,2.9913,2.9913,2.9913,2.9913,2.9793,2.974,2.9726,2.9566,2.9419,2.9285,2.8938,2.8617,2.8366,2.8245,2.8179,2.8179,2.8179,2.8179,2.8179,2.8179,2.8179,2.8179,2.8179,2.8179,2.8179,2.8179,2.8098,2.8018,2.8138,2.8098,2.8018,2.8152,2.8179,2.8179,2.8179,2.8179,2.8179,2.8179,2.8179,2.8179,2.8179,2.8179,2.8179,2.8179,2.8179,2.8179,2.8179,2.8179,2.8138,2.8018,2.771,2.7362,2.7121,2.6827,2.6533,2.6279,2.6092,2.5919,2.5663,2.5024,2.4546,2.4426,2.4075,2.3768,2.3594,2.334,2.3295,2.3415,2.3188,2.3121,2.3207,2.3207,2.3153,2.3054,2.3308,2.3509,2.3647,2.3781,2.4332,2.0379,2.1533,2.2868,2.4224,2.6406,2.868,3.0284,3.1763,3.3077,3.3946,3.4159,3.3686,3.2084,3.1272,3.0392,2.909,2.8885,2.8938,2.9205,2.8804,2.831,2.7871,2.7684,2.7817,2.8334,2.8644,2.8738,2.8617,2.8828,2.9028,2.9108,2.9446,2.97,2.9913,2.9913,2.9913,2.9913,2.9913,2.9913,2.9913,2.97,2.9606,2.9579,2.8991,2.8511,2.8179,2.8179,2.8179,2.8179,2.8179,2.8179,2.8179,2.8179,2.8179,2.8179,2.8179,2.8179,2.8179,2.8179,2.8179,2.8179,2.8179,2.8179,2.8179,2.8179,2.8179,2.8179,2.8179,2.8179,2.8179,2.8179,2.8179,2.8179,2.8179,2.8179,2.8179,2.8179,2.8179,2.8179,2.8179,2.8179,2.8179,2.8179,2.7831,2.7523,2.7443,2.7134,2.6814,2.644,2.6319,2.6198,2.5904,2.5264,2.4839,2.4839,2.4609,2.4356,2.4178,2.4017,2.3928,2.4008,2.3897,2.3843,2.3924,2.3924,2.3884,2.3803,2.3928,2.4075,2.4209,2.4289,2.4596,1.9821,2.1269,2.3228,2.541,2.7407,2.9394,3.1294,3.3355,3.4586,3.3726,3.461,3.4582,3.143,3.0815,3.032,2.8863,2.9098,2.9259,2.8711,2.8406,2.7871,2.6961,2.636,2.6292,0.0,2.771,2.8339,2.8591,2.8828,2.9121,2.9459,2.9753,2.99,2.9913,2.9913,2.9913,2.9913,2.9913,2.9913,2.9913,2.9913,2.99,2.9887,2.9255,2.8698,2.8179,2.8179,2.8179,2.8179,2.8179,2.8179,2.8179,2.8179,2.8179,2.8179,2.8179,2.8179,2.8179,2.8179,2.8179,2.8179,2.8179,2.8179,2.8179,2.8179,2.8179,2.8179,2.8179,2.8179,2.8179,2.8179,2.8179,2.8179,2.8179,2.8179,2.8179,2.8179,2.8179,2.8179,2.8179,2.8179,2.8179,2.8179,2.8165,2.8058,2.7722,2.7483,2.7081,2.6466,2.6185,2.5891,2.5558,2.5504,2.5491,2.5491,2.5224,2.5088,2.5074,2.4502,2.4315,2.4559,2.4075,2.3901,2.4182,2.4195,2.4048,2.3803,2.4342,2.4439,2.4209,2.4452,2.4783,2.1284,2.3275,2.5535,2.7719,2.9854,3.1836,3.347,3.4115,3.4242,3.3773,3.1981,3.0067,2.867,2.7636,2.6949,2.6825,2.7505,2.815,2.8551,2.8379,2.771,2.6439,2.68,0.0,0.0,0.0,0.0,2.8312,2.8764,2.9041,2.9135,2.9472,2.9713,2.9913,2.9913,2.9913,2.9913,2.9913,2.9913,2.9913,2.9913,2.9713,2.9282,2.9081,2.8711,2.8179,2.8179,2.8179,2.8205,2.8406,2.8366,2.8205,2.8419,2.8366,2.8179,2.8179,2.8179,2.8179,2.8179,2.8179,2.8179,2.8179,2.8179,2.8179,2.8179,2.8179,2.8179,2.8179,2.8179,2.8179,2.8179,2.8179,2.8179,2.8179,2.8179,2.8179,2.8179,2.8179,2.8179,2.8179,2.8179,2.8179,2.8179,2.8018,2.7791,2.7496,2.7161,2.6827,2.644,2.6172,2.6024,2.6079,2.5745,2.5598,2.5824,2.5531,2.5291,2.5128,2.489,2.4743,2.4599,2.4412,2.4359,2.4452,2.4452,2.4399,2.4342,2.4506,2.4546,2.4452,2.4559,2.4866,2.3305,2.5436,2.7504,2.9159,3.084,3.2235,3.2834,3.2824,3.2351,3.1276,2.8969,2.6783,2.5584,2.4535,2.4083,2.4835,2.5751,2.6707,2.7816,2.775,2.7242,2.6399,2.6653,2.6667,0.0,0.0,0.0,2.7978,2.8644,2.9001,2.9001,2.9419,2.9726,2.9913,2.9913,2.9913,2.9913,2.9913,2.9913,2.9913,2.9913,2.9659,2.9148,2.9041,2.8778,2.8353,2.8232,2.8179,2.8205,2.8484,2.8484,2.8379,2.8644,2.8644,2.8457,2.8393,2.8353,2.8339,2.8219,2.8179,2.8179,2.8179,2.8179,2.8179,2.8179,2.8179,2.8179,2.8179,2.8179,2.8179,2.8179,2.8179,2.8179,2.8179,2.8179,2.8179,2.8179,2.8179,2.8179,2.8179,2.8179,2.8179,2.8179,2.8031,2.7804,2.751,2.7255,2.6987,2.66,2.6386,2.6333,2.652,2.6119,2.5945,2.6239,2.5905,2.5598,2.5449,2.5291,2.5144,2.4919,2.4813,2.4796,2.4796,2.4653,2.4653,2.4796,2.4796,2.4796,2.4796,2.4796,2.4997,2.5675,2.7514,2.9012,2.967,3.0334,3.0583,2.966,2.9602,2.9015,2.6464,2.5686,2.47,0.0,0.0,2.1876,2.3042,2.3994,2.5159,2.664,2.6653,2.656,0.0,0.0,0.0,0.0,0.0,0.0,2.7722,0.0,2.9001,2.9015,2.9562,2.9913,2.9913,2.9913,2.9913,2.9913,2.9913,2.9913,2.9913,2.9913,2.9766,2.9472,2.9192,2.8855,2.8617,2.8366,2.8232,2.8259,2.8511,2.8617,2.8631,2.8868,2.8961,2.8921,2.8684,2.8577,2.8537,2.8286,2.8179,2.8179,2.8179,2.8179,2.8179,2.8179,2.8179,2.8179,2.8179,2.8179,2.8179,2.8179,2.8179,2.8179,2.8179,2.8179,2.8179,2.8179,2.8179,2.8179,2.8179,2.8179,2.8179,2.8179,2.8179,2.8085,2.7762,2.7722,2.7509,2.688,2.6841,2.6841,2.6841,2.66,2.6547,2.676,2.6319,2.6024,2.5998,2.5692,2.5531,2.5518,2.5251,2.5104,2.5104,2.4823,2.4786,2.5104,2.5104,2.5104,2.5104,2.5104,2.5141,2.6333,2.8082,2.9541,2.9217,2.9371,2.9385,2.8772,2.7278,2.5663,2.4295,2.2137,2.0162,0.0,0.0,0.0,2.2065,2.3781,0.0,2.7575,2.7791,0.0,2.6894,0.0,2.7054,2.68,2.7415,0.0,0.0,2.8868,2.9095,2.9352,2.9713,2.9913,2.9913,2.9913,2.9913,2.9913,2.9913,2.9913,2.9913,2.9913,2.9766,2.9486,2.9406,2.9205,2.8881,2.8845,2.8804,2.8818,2.8855,2.8761,2.8617,2.8684,2.8577,2.8406,2.8326,2.8299,2.8286,2.8219,2.8179,2.8179,2.8179,2.8179,2.8179,2.8179,2.8179,2.8179,2.8179,2.8179,2.8179,2.8179,2.8179,2.8179,2.8179,2.8179,2.8179,2.8179,2.8179,2.8179,2.8179,2.8179,2.8179,2.8179,2.8179,2.8165,2.8085,2.8072,2.7857,2.7269,2.7148,2.7148,2.7148,2.7122,2.6987,2.6827,2.668,2.6413,2.6024,2.5931,2.5745,2.5518,2.5438,2.5398,2.5398,2.5331,2.5331,2.5398,2.5398,2.5398,2.5398,2.5398,2.5518,2.7633,2.8714,2.941,2.9199,2.8524,2.7513,2.6147,2.4347,2.2527,2.1078,1.919,1.7534,1.6562,1.7254,0.0,0.0,0.0,0.0,2.7068,2.7523,2.7522,0.0,2.7696,0.0,2.7761,2.8243,2.8778,0.0,2.9312,2.9366,2.9659,2.982,2.9913,2.9913,2.9913,2.9913,2.9913,2.9913,2.9913,2.9913,2.9913,2.9833,2.9673,2.9539,2.9392,2.9232,0.0,2.9001,2.9001,2.9179,2.9138,2.9005,2.9125,2.9005,2.8754,2.8634,2.85,2.8366,2.8232,2.8179,2.8179,2.8179,2.8179,2.8179,2.8179,2.8179,2.8179,2.8179,2.8179,2.8179,2.8179,2.8179,2.8179,2.8179,2.8179,2.8179,2.8179,2.8179,2.8179,2.8179,2.8179,2.8179,2.8179,2.8179,2.8179,2.8179,2.8179,2.8058,2.7737,2.7576,2.7496,2.7496,2.7228,2.7054,2.7028,2.6787,2.6493,2.6198,2.6185,2.6105,2.5905,2.5772,2.5705,2.5705,2.5585,2.5571,2.5705,2.5705,2.5705,2.5705,2.5705,2.5732,2.8972,2.9036,2.8745,2.8882,2.7376,2.5279,2.2998,2.1341,1.9709,1.7636,1.6742,1.5982,1.4848,1.5487,1.6967,1.9352,0.0,2.3029,2.6147,2.6774,2.7241,2.8085,2.8219,2.8486,2.9001,2.9095,2.9375,3.0002,2.982,2.974,2.99,2.9913,2.9913,2.9913,2.9913,2.9913,2.9913,2.9913,2.9913,2.9913,2.9913,2.9913,2.9913,2.97,2.9606,2.9579,2.9325,0.0,2.9188,2.9406,2.9486,2.9499,2.9713,2.9619,2.9339,2.9028,2.8804,2.8511,2.8272,2.8179,2.8179,2.8179,2.8179,2.8179,2.8179,2.8179,2.8179,2.8179,2.8179,2.8179,2.8179,2.8179,2.8179,2.8179,2.8179,2.8179,2.8179,2.8179,2.8179,2.8179,2.8179,2.8179,2.8179,2.8179,2.8179,2.8179,2.8179,2.8179,2.8179,2.7965,2.7762,2.7762,2.7268,2.7041,2.7349,2.6787,2.6453,2.6453,2.6413,2.6386,2.6386,2.6185,2.6051,2.6051,2.5758,2.5758,2.6051,2.6051,2.6051,2.6051,2.6051,2.5917,2.8704,2.8317,2.7372,2.6113,2.4693,2.3257,2.174,1.966,0.0,1.6151,1.5065,1.4364,1.4383,1.5058,1.6792,2.0336,2.168,2.3515,2.6986,2.7522,2.7696,0.0,0.0,0.0,0.0,0.0,0.0,0.0,0.0,3.0381,2.994,2.9913,2.9913,2.9913,2.9913,2.9913,2.9913,2.9913,2.9913,2.9913,2.9913,2.9913,2.9927,3.0114,3.0253,3.0253,3.0199,0.0,3.0145,2.9659,2.9486,2.9459,2.9272,2.8975,2.8751,2.8698,2.8484,2.8259,2.8205,2.8179,2.8179,2.8179,2.8179,2.8179,2.8179,2.8179,2.8179,2.8179,2.8179,2.8179,2.8179,2.8179,2.8179,2.8179,2.8179,2.8179,2.8179,2.8179,2.8179,2.8179,2.8179,2.8179,2.8179,2.8179,2.8179,2.8179,2.8179,2.8179,2.8179,2.8138,2.8112,2.8112,2.7749,2.7562,2.7615,2.7081,2.6747,2.6747,2.652,2.6386,2.6386,2.6346,2.6319,2.6319,2.6266,2.6266,2.6319,2.6319,2.6319,2.6319,2.6319,2.6293,2.8082,2.7259,2.6263,2.5782,2.3955,2.18,2.0047,0.0,0.0,1.457,1.406,1.3893,1.3882,1.4861,0.0,1.9142,2.0383,2.2245,2.5828,2.6333,0.0,2.8045,2.8551,0.0,0.0,0.0,0.0,0.0,0.0,3.0902,3.0608,3.0461,3.0368,3.0368,3.0221,3.014,3.014,2.9993,2.9913,2.9913,2.9913,2.9913,2.9927,3.0266,3.0319,3.014,3.0333,0.0,3.0114,2.982,2.9713,2.97,2.9553,2.9175,2.8831,2.8831,2.8537,2.8179,2.8179,2.8179,2.8179,2.8179,2.8179,2.8179,2.8179,2.8179,2.8179,2.8179,2.8179,2.8179,2.8179,2.8179,2.8179,2.8179,2.8179,2.8179,2.8179,2.8179,2.8179,2.8179,2.8179,2.8179,2.8179,2.8179,2.8179,2.8179,2.8179,2.8179,2.8179,2.8179,2.8179,2.8179,2.7924,2.7696,2.7696,2.7308,2.7054,2.7054,2.6774,2.6613,2.6613,2.6466,2.6386,2.6386,2.6386,2.6386,2.6386,2.6386,2.6386,2.6386,2.6386,2.6386,2.7488,2.6443,2.5482,2.5692,2.353,2.0773,1.8686,1.667,1.4835,1.34,1.3442,1.3716,1.367,1.47,1.6126,0.0,1.9096,2.0965,2.4506,2.5181,2.5998,0.0,2.8698,0.0,0.0,0.0,0.0,0.0,0.0,0.0,3.1176,3.0955,3.0795,3.0795,3.056,3.04,3.04,3.006,2.9913,2.9913,2.9913,2.9953,3.002,3.0314,3.0327,3.0114,3.0354,0.0,0.0,2.994,2.9887,2.982,2.982,2.9459,2.8908,2.8908,2.8604,2.8179,2.8179,2.8179,2.8179,2.8179,2.8179,2.8179,2.8179,2.8179,2.8179,2.8179,2.8179,2.8179,2.8179,2.8179,2.8179,2.8179,2.8179,2.8179,2.8179,2.8179,2.8179,2.8179,2.8179,2.8179,2.8179,2.8179,2.8179,2.8179,2.8179,2.8179,2.8179,2.8179,2.8179,2.8179,2.7924,2.7722,2.7789,2.751,2.7336,2.7403,2.7081,2.6894,2.6787,2.66,2.6453,2.6386,2.6386,2.6386,2.6386,2.6386,2.6386,2.6386,2.6386,2.6386,2.7249,2.6443,2.5192,2.4263,2.2407,2.0277,1.8372,0.0,1.4159,1.328,1.3135,1.3383,1.4104,1.4488,1.56,1.8378,1.9374,2.095,2.4189,2.5371,2.6386,2.7589,0.0,0.0,0.0,0.0,0.0,0.0,0.0,0.0,3.1236,3.0955,3.0795,3.0795,3.056,3.04,3.04,3.006,2.9913,2.9913,2.9913,3.006,3.0373,3.0621,3.0742,3.0715,3.0742,0.0,0.0,3.0034,2.9766,2.9526,2.9526,2.9165,2.8644,2.8644,2.843,2.8179,2.8179,2.8179,2.8179,2.8179,2.8179,2.8179,2.8179,2.8179,2.8179,2.8179,2.8179,2.8179,2.8179,2.8179,2.8179,2.8179,2.8179,2.8179,2.8179,2.8179,2.8179,2.8179,2.8179,2.8179,2.8179,2.8179,2.8179,2.8179,2.8179,2.8179,2.8179,2.8179,2.8179,2.8179,2.7924,2.7802,2.8125,2.763,2.7416,2.7642,2.7429,2.7108,2.6787,2.68,2.6653,2.6386,2.6386,2.6386,2.6386,2.6386,2.6386,2.6386,2.6386,2.6386,2.5401,2.5438,2.5065,2.3707,2.18,1.973,1.7784,0.0,1.3709,1.3361,1.3288,1.3476,1.4133,1.4578,1.5384,1.7062,1.7543,1.8698,2.1558,2.2445,2.3777,2.6386,0.0,0.0,0.0,0.0,0.0,0.0,0.0,0.0,3.1757,3.1476,3.1316,3.1316,3.1036,3.0795,3.0621,3.0327,3.0181,3.0181,3.0007,3.0074,3.0413,3.0662,3.0595,3.0287,3.0635,0.0,0.0,2.978,2.9593,2.9459,2.9285,2.8965,2.8604,2.8604,2.8417,2.8179,2.8179,2.8179,2.8179,2.8179,2.8179,2.8179,2.8179,2.8179,2.8179,2.8179,2.8179,2.8179,2.8179,2.8179,2.8179,2.8179,2.8179,2.8179,2.8179,2.8179,2.8179,2.8179,2.8179,2.8179,2.8179,2.8179,2.8179,2.8179,2.8179,2.8179,2.8179,2.8179,2.8179,2.8179,2.8072,2.8058,2.8179,2.7965,2.7884,2.8005,2.7696,2.7388,2.7108,2.6921,2.668,2.64,2.6386,2.6386,2.6386,2.6386,2.6386,2.6386,2.6386,2.6386,2.372,2.4318,2.4625,2.3332,2.1399,1.9301,1.7457,0.0,1.3641,1.3442,1.3455,1.363,1.4109,1.4652,1.524,1.6043,1.6458,1.7502,1.9863,2.0708,2.2184,0.0,0.0,0.0,0.0,0.0,0.0,0.0,0.0,0.0,3.1971,3.1784,3.1711,3.1711,3.1303,3.0996,3.0795,3.0421,3.0234,3.0266,2.9927,2.994,3.0279,3.0434,3.0301,2.994,0.0,0.0,0.0,2.9606,2.9432,2.9325,2.8988,2.8724,2.847,2.847,2.8379,2.8179,2.8179,2.8179,2.8179,2.8179,2.8179,2.8179,2.8179,2.8179,2.8179,2.8179,2.8179,2.8179,2.8179,2.8179,2.8179,2.8179,2.8179,2.8179,2.8179,2.8179,2.8179,2.8179,2.8259,2.8286,2.8205,2.8259,2.8286,2.8205,2.8179,2.8179,2.8179,2.8179,2.8179,2.8179,2.8179,2.8179,2.8179,2.8179,2.8179,2.8179,2.7991,2.7737,2.7443,2.7188,2.6907,2.6533,2.652,2.648,2.6386,2.6386,2.6386,2.6386,2.6386,2.644,2.2669,2.3249,2.3638,2.2978,2.1151,1.9069,1.7459,1.5593,1.4043,1.3506,1.3561,1.38,1.413,1.4652,1.5173,1.5715,1.6807,1.8196,1.9957,2.1243,0.0,0.0,0.0,0.0,0.0,0.0,0.0,0.0,0.0,0.0,3.1724,3.1711,3.1711,3.1711,3.1102,3.0795,3.0795,3.0207,2.9927,2.9913,2.9633,2.9633,2.9927,2.9927,2.9927,0.0,0.0,0.0,0.0,2.9606,2.9312,2.8975,2.8724,2.8417,2.8192,2.8192,2.8192,2.8179,2.8179,2.8179,2.8179,2.8179,2.8179,2.8179,2.8179,2.8179,2.8179,2.8179,2.8179,2.8179,2.8179,2.8179,2.8179,2.8179,2.8179,2.8179,2.8179,2.8179,2.8179,2.8179,2.839,2.8497,2.8232,2.8404,2.8497,2.8232,2.8179,2.8179,2.8179,2.8179,2.8179,2.8179,2.8179,2.8179,2.8179,2.8179,2.8179,2.8179,2.8179,2.8045,2.7709,2.7696,2.7415,2.6827,2.6814,2.668,2.6386,2.6386,2.6386,2.6386,2.6386,2.6547,1.9264,2.038,2.1089,1.9957,1.8858,1.7742,1.6432,1.5131,1.4132,1.3925,1.3786,1.3791,1.4074,1.4607,1.5307,1.6273,1.7074,1.809,0.0,0.0,0.0,0.0,0.0,0.0,0.0,0.0,0.0,0.0,0.0,0.0,3.1738,3.1476,3.137,3.137,3.1183,3.0902,3.0547,3.036,3.0114,2.9913,2.9619,2.9526,2.9633,2.982,2.9806,0.0,0.0,0.0,0.0,2.9335,2.9081,2.8948,2.8484,2.8272,2.8179,2.8179,2.8326,2.8457,2.8457,2.8591,2.8724,2.8524,2.8457,2.8417,2.8245,2.8179,2.8179,2.8179,2.8179,2.8232,2.8446,2.8457,2.8457,2.8457,2.8457,2.8404,2.8232,2.8353,2.8457,2.8457,2.8537,2.8577,2.8484,2.8406,2.8299,2.8205,2.8179,2.8179,2.8179,2.8179,2.8179,2.8179,2.8179,2.8179,2.8179,2.8179,2.8179,2.8179,2.8179,2.8045,2.7709,2.7696,2.7415,2.6787,2.7028,2.6881,2.6386,2.6587,2.6587,2.6386,2.6587,2.6734,1.6894,1.8334,1.9255,1.8423,1.7663,0.0,1.595,1.5001,1.4269,1.4125,1.3976,1.3891,1.406,1.4584,1.5227,1.5925,1.6727,1.7662,0.0,0.0,0.0,0.0,0.0,0.0,0.0,0.0,0.0,0.0,0.0,0.0,3.1738,3.1383,3.1129,3.0902,3.0902,3.0728,3.0413,3.0247,3.0047,2.9753,2.9459,2.9259,2.9165,2.9339,0.0,0.0,0.0,0.0,0.0,2.9242,2.9001,2.8935,2.8419,2.8179,2.8179,2.8179,2.8379,2.8604,2.8604,2.8724,2.8801,2.8671,2.8524,2.8433,2.8245,2.8179,2.8179,2.8179,2.8179,2.8259,2.8524,2.8524,2.8457,2.8577,2.8524,2.8417,2.8379,2.847,2.8644,2.8751,2.8764,2.8738,2.8631,2.8444,2.8326,2.8205,2.8179,2.8179,2.8179,2.8179,2.8179,2.8179,2.8179,2.8179,2.8179,2.8179,2.8179,2.8179,2.8179,2.8098,2.7911,2.7911,2.7642,2.7161,2.7335,2.7242,2.672,2.6907,2.6894,2.676,2.7014,2.7148,0.0,1.6879,1.7884,1.7914,1.7144,1.6248,1.5737,1.5021,0.0,1.4122,1.4068,1.4116,1.417,1.4611,1.5013,1.5142,1.6096,1.7221,0.0,2.0227,0.0,0.0,0.0,0.0,0.0,0.0,0.0,0.0,0.0,0.0,3.1711,3.137,3.0942,3.0426,3.036,3.0346,3.0346,3.002,2.974,2.9446,2.9135,2.8828,2.8577,2.8591,2.8764,0.0,0.0,0.0,0.0,2.9228,2.8988,2.8908,2.8406,2.8205,2.8219,2.8219,2.8433,2.8671,2.8644,2.8644,2.8657,2.8617,2.8433,2.8179,2.8179,2.8179,2.8179,2.8179,2.8205,2.8286,2.8564,2.8444,2.8353,2.8604,2.8486,2.8353,2.8577,2.8657,2.8751,2.8975,2.9028,2.8935,2.8684,2.8617,2.8497,2.8232,2.8179,2.8192,2.8219,2.8205,2.8192,2.8219,2.8205,2.8179,2.8179,2.8179,2.8179,2.8179,2.8179,2.8179,2.8179,2.8179,2.8045,2.7709,2.7682,2.7549,2.7336,2.7322,2.7309,2.7309,2.7589,2.7722,1.3203,0.0,1.461,1.4256,1.4248,1.422,0.0,1.4015,1.4108,1.3794,1.3935,1.425,1.4691,1.4892,1.5383,1.6509,1.7248,1.8116,1.9332,0.0,0.0,0.0,0.0,0.0,0.0,0.0,0.0,0.0,0.0,3.1904,3.1724,3.1169,3.0728,3.0413,2.9972,2.9686,2.9686,2.9619,2.9432,2.9095,2.9028,2.8764,2.8299,2.8497,2.8764,0.0,0.0,0.0,2.9553,2.9148,2.8868,2.8671,2.8326,2.8326,2.8497,2.8497,2.8831,2.9245,2.8975,2.9085,2.9205,2.8751,2.8433,2.8179,2.8179,2.8179,2.8179,2.8179,2.8353,2.8564,2.8815,2.9058,2.9236,2.9259,2.9219,2.9125,2.8935,2.9112,2.9299,2.9366,2.9379,2.9285,2.8948,2.8751,2.8497,2.8232,2.8179,2.8272,2.847,2.8326,2.8272,2.847,2.8326,2.8179,2.8179,2.8179,2.8179,2.8179,2.8179,2.8179,2.8179,2.8179,2.8045,2.7709,2.7482,2.7442,2.7602,2.7416,2.7309,2.7322,2.7844,2.7965,1.2168,1.3014,1.376,1.3511,1.3652,1.378,1.3654,1.3748,1.382,1.364,1.386,1.425,1.4705,1.4999,1.5534,1.6591,1.7475,0.0,0.0,0.0,0.0,0.0,0.0,0.0,0.0,0.0,0.0,0.0,0.0,3.1837,3.1724,3.1116,3.0662,3.0413,2.9659,2.9352,2.9486,2.9352,2.9205,2.9001,2.8868,2.8591,2.8192,2.8366,2.8564,0.0,0.0,0.0,2.9259,2.8921,2.8751,2.8577,2.8312,2.8286,2.8433,2.8433,2.8684,2.9072,2.9001,2.9108,2.9179,2.8591,2.8326,2.8205,2.8353,2.8393,2.8393,2.8393,2.8484,2.8711,2.9138,2.9259,2.9312,2.9446,2.9379,2.9272,2.9245,2.9366,2.9526,2.9659,2.9579,2.9432,2.9272,2.8885,2.8591,2.8564,2.8444,2.847,2.8764,2.8657,2.8564,2.8604,2.8577,2.8497,2.8406,2.8393,2.8339,2.8192,2.8179,2.8179,2.8179,2.8179,2.8179,2.811,2.7963,2.803,2.831,2.815,2.8083,2.8083,2.8404,2.8404,1.1908,1.3046,1.4076,1.3942,1.3948,1.4001,1.3961,1.3807,1.3687,1.3687,1.3988,1.4322,1.4634,1.5204,0.0,0.0,0.0,0.0,0.0,0.0,0.0,0.0,0.0,0.0,0.0,0.0,0.0,0.0,0.0,3.1711,3.1711,3.1116,3.0662,3.0413,2.9499,2.9121,2.9419,2.9121,2.8975,2.8921,2.8764,2.8484,2.8179,2.8179,2.8353,2.8604,0.0,0.0,2.8908,2.8711,2.8577,2.8511,2.8286,2.8219,2.8259,2.8259,2.8473,2.8778,2.8975,2.9028,2.8908,2.8433,2.8286,2.8366,2.8537,2.8644,2.8684,2.8724,2.8738,2.8858,2.9352,2.9325,2.9188,2.9486,2.9352,2.9202,2.9499,2.9553,2.9619,2.9873,2.9713,2.9539,2.9486,2.9072,2.8804,2.8961,2.8831,2.8778,2.9028,2.9028,2.8921,2.8764,2.8881,2.8895,2.8698,2.8671,2.8564,2.8339,2.8232,2.8205,2.8259,2.8299,2.8446,2.8671,2.8671,2.8748,2.9001,2.9001,2.9001,2.9001,2.9041,2.8951,1.2368,1.3373,1.3929,1.3186,1.3333,1.3634,1.338,1.3694,1.4015,1.4015,1.4477,1.5013,1.5501,1.6088,1.67,0.0,0.0,0.0,0.0,0.0,0.0,0.0,0.0,0.0,0.0,0.0,0.0,0.0,0.0,3.1711,3.1711,3.1116,3.0662,3.0413,2.9499,2.9015,2.9068,2.9015,2.8868,2.8671,2.8828,2.8684,2.8179,2.8179,2.8353,2.8604,0.0,2.8631,2.8671,2.8631,2.8457,2.8259,2.8205,2.8353,2.8537,2.8537,2.8885,2.9352,2.9406,2.9245,2.8948,2.8644,2.8698,2.8815,2.8671,2.8778,2.8988,2.9272,2.9352,2.9366,2.9459,2.9633,2.9793,2.9847,2.982,2.9793,2.9847,2.9847,2.986,2.9913,2.9887,2.9766,2.9526,2.9406,2.9272,2.9028,2.8961,2.9041,2.9379,2.9192,2.9068,2.9325,2.9121,2.8975,2.8935,2.8935,2.8908,2.8855,2.846,2.8299,2.8524,2.8764,2.8881,2.8921,2.8935,2.8948,2.9001,2.9001,2.9001,2.9001,2.9299,2.9259,1.1815,1.2698,1.3414,1.3474,1.4041,1.4487,1.4229,1.4242,1.4362,1.4544,1.4919,1.5441,1.6142,0.0,1.8277,2.0164,0.0,0.0,0.0,0.0,0.0,0.0,0.0,0.0,0.0,0.0,0.0,0.0,0.0,0.0,3.1711,3.1116,3.0728,3.0595,2.9579,2.9001,2.9001,2.8841,2.8738,2.8604,2.8577,2.846,2.8179,2.8179,2.8259,2.8393,0.0,2.8393,2.8393,2.8393,2.8312,2.8179,2.8179,2.8272,2.8419,2.8551,2.8871,2.9245,2.9245,2.9259,2.9232,2.8938,2.8895,2.9001,2.9072,2.9179,2.9339,2.9633,2.9606,2.9526,2.9673,2.982,2.9913,2.9913,2.9913,2.9913,2.9913,2.9913,2.9913,2.9913,2.9913,2.9873,2.974,2.9593,2.9486,2.9513,2.9379,2.9392,2.9673,2.9593,2.9499,2.9486,2.9499,2.9446,2.9299,2.9285,2.9205,2.9001,2.8778,2.8698,2.8788,2.8921,2.9068,2.9272,2.9285,2.9352,2.9468,2.9468,2.9468,2.9468,2.9659,2.9566,1.1543,1.2296,1.3105,1.3982,1.4696,1.5217,1.5374,1.519,1.515,1.5615,1.5965,1.638,0.0,1.8156,0.0,2.2679,0.0,0.0,0.0,0.0,0.0,0.0,0.0,0.0,0.0,0.0,0.0,0.0,0.0,0.0,3.157,3.1009,3.0662,3.0595,2.9468,2.8895,2.8895,2.8644,2.8497,2.8497,2.8379,2.8259,2.8179,2.8179,2.8179,2.8179,2.8179,2.8179,2.8179,2.8179,2.8179,2.8179,2.8179,2.8232,2.8326,2.8591,2.8855,2.9108,2.9175,2.9392,2.9539,2.9245,2.9148,2.9228,2.9432,2.9526,2.9633,2.986,2.9753,2.9633,2.986,2.9913,2.9913,2.9913,2.9913,2.994,3.0007,3.002,3.0047,3.0114,3.0127,3.0127,3.0127,2.994,2.9847,2.9993,2.9833,2.974,2.99,2.9913,2.9833,2.9606,2.978,2.982,2.9606,2.9579,2.9486,2.9215,2.9135,2.9095,2.9095,2.9161,2.9352,2.9579,2.9579,2.9686,2.9913,2.9913,2.9913,2.9913,2.9913,2.9793,1.2382,1.2925,1.3387,1.4247,1.4514,1.4914,1.6273,1.6567,1.6794,1.7622,1.8249,1.8489,0.0,1.9543,2.1537,2.3442,0.0,0.0,0.0,0.0,0.0,0.0,0.0,0.0,0.0,0.0,0.0,0.0,0.0,0.0,3.1276,3.0702,3.0306,2.9993,2.9112,2.8644,2.8644,2.8379,2.8219,2.8219,2.8444,2.8417,2.8179,2.8179,2.8179,2.8179,2.8179,2.8179,2.8179,2.8179,2.8179,2.8179,2.8179,2.8366,2.8604,2.8855,2.9192,2.9486,2.9766,2.9873,2.9833,2.9553,2.9633,2.9806,2.9566,2.9673,2.9887,2.9913,2.99,2.9887,2.9913,2.9913,2.9913,2.9913,2.9913,2.9993,3.0319,3.0373,3.0453,3.0675,3.0728,3.0728,3.0728,3.0715,3.0621,3.0413,3.036,3.0253,2.9953,2.9913,2.9913,2.9887,2.99,2.9913,2.9887,2.9887,2.9873,2.986,2.9606,2.9446,2.9446,2.9713,2.986,2.9887,2.9887,2.99,2.9913,2.9913,2.9913,2.9913,2.9913,2.99,1.202,1.2711,1.3407,1.4274,1.4914,1.5595,1.6752,1.7434,1.8023,1.8718,1.9626,2.0267,0.0,0.0,2.3166,0.0,0.0,0.0,0.0,0.0,0.0,0.0,0.0,0.0,0.0,0.0,0.0,0.0,0.0,0.0,3.0702,3.0301,2.9953,2.9659,2.8978,2.8604,2.8604,2.8339,2.8179,2.8179,2.8299,2.8299,2.8179,2.8179,2.8179,2.8179,2.8179,2.8179,2.8179,2.8179,2.8179,2.8205,2.8393,2.8497,2.8671,2.9138,2.9392,2.9526,2.982,2.9913,2.99,2.9793,2.982,2.99,2.978,2.9833,2.9913,2.9913,2.9913,2.9913,2.9913,2.9913,2.9967,3.0154,3.0194,3.0274,3.0614,3.0635,3.0662,3.0768,3.0795,3.0795,3.0795,3.0795,3.0755,3.0648,3.0635,3.0528,3.0234,3.0194,3.0114,2.994,2.9913,2.9913,2.9913,2.9913,2.9913,2.9913,2.9806,2.9753,2.9753,2.986,2.9913,2.9913,2.9913,2.9913,2.9913,3.01,3.0194,3.0194,3.0194,3.0194,1.1868,1.2599,1.3407,1.4274,1.5301,1.6408,1.7729,1.8558,1.9319,2.0298,2.0913,2.1363,2.1783,0.0,0.0,0.0,0.0,0.0,0.0,0.0,0.0,0.0,0.0,0.0,0.0,0.0,0.0,0.0,0.0,0.0,0.0,2.9806,2.9459,2.9115,2.8671,2.8417,2.8323,2.8245,2.8179,2.8179,2.8179,2.8179,2.8179,2.8179,2.8179,2.8179,2.8179,2.8179,2.8179,2.8179,2.8179,2.8219,2.8484,2.8671,2.8804,2.9299,2.9539,2.9633,2.974,2.9847,2.99,2.9806,2.9847,2.9913,2.9913,2.9913,2.9913,2.9913,2.9913,2.9913,2.9913,2.9913,2.9993,3.0333,3.04,3.0507,3.0849,3.0929,3.0955,3.1049,3.1076,3.1076,3.1076,3.1076,3.1036,3.0942,3.0929,3.0822,3.0574,3.0467,3.0293,2.9953,2.9913,2.9913,2.9913,2.9913,2.9913,2.9913,2.9913,2.9913,2.9913,2.9913,2.9913,2.9913,2.9913,2.9967,3.006,3.0306,3.0453,3.0547,3.0547,3.0547,1.2144,1.2746,1.3427,1.4287,1.5608,1.7261,1.9345,2.004,2.0717,2.2559,2.2224,2.1783,2.2338,2.318,0.0,0.0,0.0,0.0,0.0,0.0,0.0,0.0,0.0,0.0,0.0,0.0,0.0,0.0,0.0,0.0,0.0,2.9192,2.8751,2.8205,2.8179,2.8031,2.7696,2.8031,2.8179,2.8179,2.8179,2.8179,2.8179,2.8179,2.8179,2.8179,2.8179,2.8179,2.8179,2.8179,2.8179,2.8219,2.8484,2.8791,2.9028,2.9379,2.9673,2.9873,2.9579,2.9673,2.986,2.9579,2.9673,2.9913,2.9913,2.9913,2.9913,2.9913,2.9913,2.9913,2.9913,2.9913,2.9993,3.0333,3.0413,3.0574,3.1102,3.1176,3.1316,3.1657,3.1711,3.1711,3.1711,3.1711,3.157,3.1276,3.1176,3.1116,3.0822,3.0587,3.0293,2.9953,2.9913,2.9913,2.9913,2.9913,2.9913,2.9913,2.9913,2.9913,2.9913,2.9913,2.9913,2.9913,2.9913,3.006,3.04,3.0413,3.056,3.0795,3.0795,3.0795,1.2251,1.3053,1.4082,1.5154,1.6714,1.845,2.0294,2.0788,2.1523,2.3964,2.3763,2.3322,2.3839,2.4543,0.0,0.0,0.0,0.0,0.0,0.0,0.0,0.0,0.0,0.0,0.0,0.0,0.0,0.0,0.0,0.0,0.0,2.8577,2.8272,2.7843,2.767,2.7523,2.7443,2.7523,2.7563,2.7576,2.7777,2.7978,2.8179,2.8179,2.8179,2.8179,2.8179,2.8179,2.8179,2.8179,2.8179,2.8232,2.8711,2.8921,2.9055,2.9606,2.9713,2.9606,2.9513,2.9539,2.9606,2.9513,2.9673,2.9913,2.9913,2.9913,2.9913,2.9913,2.9913,2.9913,2.9913,2.9913,3.0047,3.0541,3.0822,3.1076,3.145,3.153,3.1557,3.1698,3.1711,3.1711,3.1711,3.1711,3.1684,3.1557,3.1356,3.1116,3.0822,3.0587,3.0373,3.0234,3.0047,2.9913,2.9913,2.9913,3.0007,3.0266,3.0266,3.014,2.9927,2.9913,2.9913,2.9913,3.0127,3.0319,3.04,3.0768,3.1009,3.1089,3.1089,3.1089,1.266,1.3614,1.4772,1.6032,1.7782,1.9639,2.1403,2.2258,2.3247,2.5197,2.4903,2.4502,2.5197,2.5531,0.0,0.0,0.0,0.0,0.0,0.0,0.0,0.0,0.0,0.0,0.0,0.0,0.0,0.0,0.0,0.0,0.0,2.8005,2.7697,2.7362,2.7295,2.7255,2.7094,2.7242,2.7309,2.7309,2.7442,2.7724,2.8005,2.8125,2.8179,2.8179,2.8179,2.8179,2.8179,2.8179,2.8179,2.8232,2.8671,2.8828,2.8881,2.9348,2.9459,2.9285,2.9179,2.9285,2.9446,2.9205,2.9406,2.974,2.974,2.974,2.9766,2.9887,2.9913,2.994,3.006,3.0181,3.0354,3.0715,3.0929,3.1169,3.1583,3.1711,3.1711,3.1711,3.1711,3.1711,3.1711,3.1711,3.1711,3.1711,3.1517,3.1249,3.0849,3.0742,3.0667,3.0426,3.0207,3.01,3.01,2.998,3.0047,3.0386,3.04,3.0373,3.0261,3.0154,3.01,3.01,3.0319,3.052,3.0702,3.1049,3.1289,3.1396,3.1396,3.1396,1.3227,1.4322,1.5427,1.6978,1.8905,2.0877,2.2599,2.4071,2.5277,2.6092,0.0,2.5451,2.6279,2.6252,0.0,0.0,0.0,0.0,0.0,0.0,0.0,0.0,0.0,0.0,0.0,0.0,0.0,0.0,0.0,0.0,0.0,2.7388,2.7108,2.6827,2.7054,2.7054,2.6787,2.7028,2.7202,2.7229,2.7229,2.7348,2.7669,2.8005,2.8165,2.8179,2.8179,2.8179,2.8179,2.8179,2.8179,2.8219,2.8484,2.8604,2.8644,2.8895,2.8975,2.8921,2.8698,2.8951,2.9312,2.8778,2.8991,2.9446,2.9446,2.9459,2.9539,2.9806,2.99,2.998,3.0293,3.056,3.0728,3.0782,3.0835,3.1022,3.1604,3.1711,3.1711,3.1711,3.1711,3.1711,3.1711,3.1711,3.1698,3.1644,3.1684,3.1463,3.0875,3.1049,3.1022,3.0533,3.044,3.04,3.04,3.0114,3.0087,3.0426,3.0467,3.0555,3.0822,3.06,3.044,3.044,3.0467,3.0702,3.1176,3.1249,3.141,3.1711,3.1711,3.1711,1.3453,1.4594,1.6112,1.805,2.0428,2.2559,2.3415,2.4182,2.485,2.5277,2.5758,2.6239,2.6653,0.0,0.0,0.0,0.0,0.0,0.0,0.0,0.0,0.0,0.0,0.0,0.0,0.0,0.0,0.0,0.0,0.0,2.7403,2.7081,2.6894,2.6787,2.6667,2.6547,2.648,2.6359,2.6386,0.0,2.6573,2.6854,2.7416,2.7655,2.7965,2.8179,2.8179,2.8179,2.8179,2.8179,2.8179,2.8219,2.8484,2.8604,2.8644,2.8895,2.8855,2.8684,2.8631,2.8684,2.8778,2.8644,2.8845,2.9095,2.9095,2.9299,2.9499,2.9566,2.974,2.9927,2.9993,3.006,3.0221,3.0688,3.1142,3.1564,3.1684,3.1711,3.1711,3.1711,3.1711,3.1711,3.1711,3.1711,3.1564,3.1049,3.1417,3.1463,3.0875,3.1049,3.1183,3.1049,3.0635,3.04,3.04,3.0346,3.0394,3.0675,3.0915,3.1062,3.1129,3.0849,3.0702,3.0702,3.0929,3.1102,3.1176,3.1463,3.161,3.1711,3.1711,3.1711,1.3911,1.5114,1.6889,1.9693,2.163,2.3094,2.3808,2.4315,2.4679,2.5024,2.5772,2.648,2.6774,0.0,0.0,0.0,0.0,0.0,0.0,0.0,0.0,0.0,0.0,0.0,0.0,0.0,0.0,0.0,0.0,2.7054,2.7054,2.6774,2.6613,2.6613,2.6333,2.6225,2.6225,2.5892,2.5892,2.6225,2.6225,2.66,2.7322,2.775,2.7965,2.7978,2.8125,2.8179,2.8179,2.8179,2.8179,2.8205,2.8366,2.8433,2.8446,2.8551,2.8511,2.8433,2.8433,2.8484,2.8577,2.843,2.8591,2.8788,2.8788,2.9045,2.9299,2.9446,2.9686,2.998,3.0261,3.0234,3.0274,3.0862,3.1129,3.1289,3.1423,3.157,3.1623,3.149,3.157,3.1711,3.1711,3.1711,3.1564,3.1062,3.1383,3.1463,3.0875,3.1169,3.1383,3.1236,3.0955,3.0768,3.0768,3.0648,3.0688,3.0982,3.1142,3.1289,3.1436,3.1289,3.1142,3.0996,3.1156,3.1289,3.1436,3.1597,3.1711,3.1711,3.1711,3.1711,1.419,1.5635,1.7769,2.0895,2.2265,2.3027,2.3794,2.4235,2.4583,2.493,2.5665,2.6306,0.0,0.0,0.0,0.0,0.0,0.0,0.0,0.0,0.0,0.0,0.0,0.0,0.0,0.0,0.0,0.0,0.0,2.6653,2.656,2.6413,2.6293,2.6239,2.6038,2.5917,2.5917,2.5585,2.5585,2.5917,2.6024,2.6453,2.7175,2.7817,2.8005,2.7789,2.8072,2.8179,2.8179,2.8179,2.8179,2.8179,2.8179,2.8179,2.8179,2.8179,2.8179,2.8179,2.8179,2.8353,2.8484,2.8272,2.8366,2.8537,2.8591,2.8804,2.9055,2.9406,2.9686,3.0034,3.0515,3.0461,3.0467,3.0955,3.0889,3.0795,3.1089,3.1383,3.1517,3.1276,3.1463,3.1711,3.1711,3.1711,3.157,3.1276,3.1476,3.1524,3.0942,3.1343,3.157,3.133,3.1203,3.1176,3.1176,3.1009,3.0969,3.1209,3.1276,3.141,3.1711,3.1711,3.1557,3.1303,3.1303,3.1423,3.1711,3.1711,3.1711,3.1711,3.1711,3.1901,1.3743,1.5928,1.8611,2.0064,2.1451,2.2579,2.2987,0.0,2.4035,0.0,2.5197,0.0,0.0,0.0,0.0,0.0,0.0,0.0,0.0,0.0,0.0,0.0,0.0,0.0,0.0,0.0,0.0,0.0,2.5905,2.5959,2.5705,2.5931,2.5931,2.5638,2.5598,2.5571,2.5571,2.5277,2.5277,2.5585,2.6092,2.64,2.6533,2.7375,2.7924,2.8125,2.8165,2.8179,2.8179,2.8179,2.8179,2.8179,2.8179,2.8179,2.8179,2.8179,2.8179,2.8179,2.8179,2.8219,2.8232,2.8205,2.8219,2.8299,2.8524,2.8804,2.9055,2.9406,2.9686,2.994,3.0007,3.0007,3.006,3.044,3.0493,3.0547,3.0795,3.1076,3.1276,3.1236,3.1463,3.1711,3.1711,3.1711,3.157,3.1276,3.1476,3.1543,3.1209,3.1463,3.1698,3.1657,3.1383,3.1176,3.1176,3.1196,3.1136,3.1223,3.1463,3.1623,3.1711,3.1711,3.1698,3.161,3.161,3.1671,3.1711,3.1711,3.1711,3.1711,3.1711,3.2597,1.5012,1.6286,1.7929,1.9743,2.0842,2.1603,2.2265,2.2867,2.3415,2.3785,2.4235,0.0,0.0,0.0,0.0,0.0,0.0,0.0,0.0,0.0,0.0,0.0,0.0,0.0,0.0,0.0,0.0,0.0,2.5545,2.5718,2.5758,2.5732,2.5798,2.5999,2.5531,2.5344,2.5518,2.5064,2.4983,2.5277,2.5904,2.6265,2.6413,2.7175,2.7563,2.771,2.8045,2.8179,2.8179,2.8179,2.8179,2.8179,2.8179,2.8179,2.8179,2.8179,2.8179,2.8179,2.8179,2.8179,2.8179,2.8179,2.8179,2.8205,2.8353,2.8671,2.9028,2.9205,2.9566,2.9953,3.0127,3.0047,2.9993,3.0333,3.0279,3.014,3.0274,3.0795,3.1276,3.1436,3.1583,3.1711,3.1711,3.1711,3.157,3.1276,3.1476,3.1557,3.1263,3.1343,3.149,3.1698,3.1396,3.1289,3.1463,3.1476,3.1476,3.1476,3.1644,3.1711,3.1711,3.1711,3.1711,3.1711,3.1711,3.1711,3.1711,3.1711,3.1711,3.1711,3.1711,3.2725,1.5299,1.5925,1.6834,1.8716,1.984,2.0641,0.0,0.0,2.276,0.0,0.0,0.0,0.0,0.0,0.0,0.0,0.0,0.0,0.0,0.0,0.0,0.0,0.0,0.0,0.0,0.0,0.0,0.0,2.513,2.5384,2.565,2.5478,2.5571,2.5932,2.5304,2.5064,2.5291,2.4813,2.4783,2.5128,2.5636,2.6038,2.6346,2.6921,2.7148,2.7188,2.7898,2.8179,2.8179,2.8179,2.8179,2.8179,2.8179,2.8179,2.8179,2.8179,2.8179,2.8179,2.8179,2.8179,2.8179,2.8179,2.8179,2.8205,2.8272,2.8631,2.9015,2.9081,2.9482,2.9967,3.0194,3.0087,2.9967,3.0194,3.0074,2.9953,3.01,3.0648,3.1223,3.1644,3.1711,3.1711,3.1711,3.1711,3.1644,3.137,3.153,3.1583,3.137,3.1343,3.1423,3.165,3.1476,3.1423,3.1698,3.1711,3.1711,3.1711,3.1711,3.1711,3.1711,3.1711,3.1711,3.1711,3.1711,3.1711,3.1711,3.1711,3.1711,3.1711,3.1711,3.2725,1.3193,1.4389,1.5631,1.6337,1.8197,1.9933,0.0,0.0,0.0,0.0,0.0,0.0,0.0,0.0,0.0,0.0,0.0,0.0,0.0,0.0,0.0,0.0,0.0,0.0,0.0,0.0,0.0,0.0,2.4516,2.4653,2.4666,2.4957,2.4983,2.4693,2.4653,2.4626,2.4639,2.4613,2.4783,2.5077,2.5384,2.5692,2.6038,2.6587,2.6841,2.6894,2.7804,2.8179,2.8179,2.8179,2.8179,2.8179,2.8179,2.8179,2.8179,2.8179,2.8179,2.8179,2.8179,2.8179,2.8179,2.8179,2.8179,2.8232,2.8497,2.8804,2.9055,2.9379,2.9686,2.9913,2.994,2.9927,2.9913,2.994,2.9927,3.0074,3.0635,3.0782,3.0982,3.1604,3.1711,3.1711,3.1711,3.1711,3.1711,3.1698,3.1711,3.1711,3.1698,3.165,3.1698,3.1711,3.1698,3.1698,3.1711,3.1711,3.1711,3.1711,3.1711,3.1711,3.1711,3.1711,3.1711,3.1711,3.1711,3.1711,3.1711,3.1711,3.1711,3.1711,3.1711,3.2725,1.3386,1.3714,1.4309,1.5658,1.6914,1.7996,1.8636,2.0027,2.1176,2.1283,0.0,0.0,0.0,0.0,0.0,0.0,0.0,0.0,0.0,0.0,0.0,0.0,0.0,0.0,0.0,0.0,0.0,0.0,0.0,2.4168,2.4342,2.4275,2.4486,2.4903,2.4382,2.4168,2.4356,2.4506,2.4653,2.4796,2.509,2.5384,2.5692,2.6279,2.664,2.6814,2.7403,2.7617,2.763,2.7817,2.7898,2.7924,2.8112,2.8179,2.8179,2.8179,2.8179,2.8179,2.8179,2.8179,2.8179,2.8179,2.8179,2.8205,2.8312,2.8657,2.9015,2.9165,2.9539,2.9913,2.9913,2.9913,2.9913,2.9913,2.9913,3.0074,3.0662,3.1089,3.1423,3.1671,3.1711,3.1711,3.1711,3.1711,3.1711,3.1711,3.1711,3.1711,3.1711,3.1503,3.1463,3.1698,3.1503,3.1463,3.1698,3.1711,3.1711,3.1711,3.1711,3.1711,3.1711,3.1711,3.1711,3.1711,3.1711,3.1711,3.1711,3.1711,3.1711,3.1711,3.1711,3.2725,1.3533,1.3487,1.3828,1.5204,1.5979,1.6673,1.7649,0.0,1.9867,0.0,0.0,0.0,0.0,0.0,0.0,0.0,0.0,0.0,0.0,0.0,0.0,0.0,0.0,0.0,0.0,0.0,0.0,0.0,0.0,0.0,2.4035,2.391,2.4071,2.466,2.4111,2.3897,2.4062,2.4342,2.4452,2.4452,2.4983,2.5331,2.5531,2.6119,2.6493,2.6694,2.6881,2.7122,2.7322,2.7468,2.7615,2.7722,2.7965,2.8098,2.8179,2.8179,2.8179,2.8179,2.8179,2.8179,2.8179,2.8179,2.8179,2.8179,2.8179,2.8497,2.8868,2.8961,2.9392,2.9793,2.9887,2.9913,2.9913,2.9913,2.9993,3.0194,3.0688,3.1102,3.1483,3.1684,3.1711,3.1711,3.1711,3.1711,3.1711,3.1711,3.1711,3.1711,3.1711,3.149,3.145,3.1698,3.149,3.145,3.1698,3.1711,3.1711,3.1711,3.1757,3.181,3.181,3.1952,3.1965,3.1824,3.1965,3.1912,3.1711,3.1711,3.1711,3.1711,3.1711,3.3102,0.0,0.0,0.0,0.0,0.0,0.0,1.7248,0.0,1.8237,0.0,0.0,0.0,0.0,0.0,0.0,0.0,0.0,0.0,0.0,0.0,0.0,0.0,0.0,0.0,0.0,0.0,0.0,0.0,2.314,2.3434,2.3763,2.3777,2.3777,2.3777,2.3777,2.379,2.379,2.4048,2.4195,2.4209,2.509,2.5504,2.5531,2.6106,2.6386,2.6386,2.6386,2.672,2.7282,2.7282,2.7428,2.7682,2.7696,2.7883,2.8179,2.8179,2.8179,2.8179,2.8179,2.8179,2.8179,2.8179,2.8179,2.8179,2.8179,2.8406,2.8671,2.8908,2.9259,2.9553,2.9847,2.9913,2.9913,2.9913,3.014,3.048,3.0728,3.0795,3.0969,3.1604,3.1711,3.1711,3.1711,3.1711,3.1711,3.1711,3.1711,3.1711,3.1711,3.1711,3.1711,3.1711,3.1711,3.1711,3.1711,3.1711,3.1724,3.1724,3.1944,3.2104,3.2118,3.2447,3.246,3.2118,3.2447,3.2313,3.1724,3.1724,3.1724,3.1711,3.1724,3.3807,1.4032,0.0,0.0,0.0,0.0,0.0,0.0,0.0,0.0,0.0,0.0,0.0,0.0,0.0,0.0,0.0,0.0,0.0,0.0,0.0,0.0,0.0,0.0,0.0,0.0,0.0,0.0,0.0,2.2974,2.3067,2.3148,2.3148,2.3148,2.3148,2.3148,2.3255,2.3447,2.3741,2.3995,2.4209,2.4877,2.5304,2.5518,2.5905,2.6225,2.6386,2.6386,2.648,2.6653,2.6854,2.7121,2.7443,2.7615,2.7883,2.8179,2.8179,2.8179,2.8179,2.8179,2.8179,2.8179,2.8179,2.8179,2.8179,2.8179,2.8406,2.8671,2.8908,2.9259,2.9553,2.9847,2.9913,2.9913,2.9913,2.998,3.0181,3.0688,3.0795,3.0969,3.1604,3.1711,3.1711,3.1711,3.1711,3.1711,3.1711,3.1711,3.1711,3.1711,3.1711,3.1711,3.1711,3.1711,3.1711,3.1711,3.1711,3.1757,3.1971,3.2064,3.2198,3.246,3.2554,3.2554,3.2474,3.2554,3.2407,3.1984,3.1984,3.1877,3.1724,3.1891,3.4007,0.0,0.0,0.0,0.0,0.0,0.0,1.5039,1.5601,0.0,0.0,0.0,0.0,0.0,0.0,0.0,0.0,0.0,0.0,0.0,0.0,0.0,0.0,0.0,0.0,0.0,2.1951,2.2205,2.2345,2.2693,2.2893,2.2893,2.2893,2.2893,2.2893,2.2773,2.2766,2.2905,2.3247,2.3509,2.3647,2.4489,2.505,2.5344,2.581,2.6091,2.6252,2.6252,2.6252,2.6265,2.6386,2.6774,2.7322,2.7455,2.7817,2.8179,2.8179,2.8179,2.8179,2.8179,2.8179,2.8179,2.8179,2.8179,2.8179,2.8179,2.8312,2.847,2.8778,2.9165,2.9553,2.9847,2.9913,2.9913,2.9913,2.9913,3.0047,3.0515,3.0608,3.0822,3.1577,3.1711,3.1711,3.1711,3.1711,3.1711,3.1711,3.1711,3.1711,3.1711,3.1711,3.1711,3.1711,3.1711,3.1711,3.1711,3.1711,3.1797,3.2078,3.2211,3.2474,3.2768,3.2888,3.2902,3.2781,3.2781,3.2634,3.2291,3.2158,3.1957,3.1724,3.1971,3.3633,0.0,0.0,0.0,0.0,0.0,0.0,1.5219,1.5161,1.5093,0.0,0.0,0.0,0.0,0.0,0.0,0.0,0.0,0.0,0.0,0.0,0.0,0.0,0.0,0.0,2.1256,2.1884,2.2151,2.177,2.2425,2.284,2.28,2.2773,2.2773,2.284,2.2458,2.2291,2.2385,2.2719,2.2867,2.2907,2.4035,2.4743,2.505,2.565,2.5917,2.5944,2.5944,2.5971,2.5998,2.5998,2.6493,2.7255,2.7255,2.7617,2.8138,2.8138,2.8152,2.8179,2.8179,2.8179,2.8179,2.8179,2.8179,2.8179,2.8179,2.8179,2.8245,2.8524,2.9032,2.9539,2.9806,2.9887,2.9913,2.9913,2.9913,2.9993,3.0346,3.04,3.0641,3.1457,3.1597,3.1623,3.1623,3.1698,3.1711,3.1711,3.1711,3.1711,3.1711,3.1711,3.1711,3.1711,3.1711,3.1711,3.1711,3.1711,3.181,3.2131,3.2447,3.2741,3.3013,3.328,3.3293,3.3026,3.3,3.2888,3.2594,3.2211,3.1944,3.1764,3.2011,3.307,0.0,0.0,0.0,0.0,0.0,0.0,1.5312,1.4988,1.471,0.0,0.0,0.0,0.0,0.0,0.0,0.0,0.0,0.0,0.0,0.0,0.0,0.0,0.0,0.0,2.1777,2.1796,2.1997,2.2599,2.2539,2.2405,2.2198,2.197,2.205,2.2485,2.1764,2.171,2.2371,2.2472,2.2619,2.2907,2.3834,2.4449,2.4693,2.509,2.5384,2.5598,2.5598,2.5732,2.5998,2.5998,2.6333,2.6907,2.6907,2.7268,2.7789,2.7789,2.7978,2.8179,2.8179,2.8179,2.8179,2.8179,2.8179,2.8179,2.8179,2.8179,2.8245,2.8524,2.9032,2.9499,2.9553,2.974,2.9913,2.9913,2.9913,2.9993,3.0346,3.04,3.052,3.0889,3.1156,3.1316,3.1316,3.1517,3.1711,3.1711,3.1711,3.1711,3.1711,3.1711,3.1711,3.1711,3.1711,3.1711,3.1711,3.1711,3.1938,3.2474,3.2567,3.2835,3.3307,3.3387,3.3387,3.3334,3.3093,3.2888,3.2594,3.2059,3.1851,3.2024,3.2367,3.3388,0.0,0.0,0.0,1.6716,0.0,0.0,0.0,1.5325,1.4913,1.4793,1.5111,1.5445,1.5627,0.0,0.0,0.0,0.0,0.0,0.0,0.0,0.0,0.0,0.0,0.0,2.1355,2.1636,2.1984,2.2425,2.2151,2.1991,2.1991,2.1877,2.1964,2.2405,2.171,2.1617,2.2191,2.2058,2.2138,2.2465,2.3215,2.3848,2.4399,2.4716,2.5024,2.5291,2.5291,2.5464,2.5732,2.5732,2.6079,2.6613,2.676,2.7175,2.7696,2.7696,2.7924,2.8179,2.8179,2.8179,2.8179,2.8179,2.8179,2.8179,2.8179,2.8179,2.8245,2.8524,2.8925,2.9299,2.9446,2.97,2.9913,2.9913,2.9913,2.9953,3.01,3.014,3.0181,3.0327,3.0715,3.1049,3.1196,3.1476,3.1711,3.1711,3.1711,3.1711,3.1711,3.1711,3.1711,3.1711,3.1711,3.1711,3.1711,3.1797,3.2126,3.2567,3.2728,3.2959,3.3387,3.3414,3.3347,3.32,3.3053,3.2888,3.2594,3.2152,3.1957,3.2104,3.246,3.3035,0.0,0.0,0.0,0.0,0.0,1.6633,0.0,0.0,0.0,1.5055,1.5184,0.0,0.0,0.0,0.0,0.0,0.0,0.0,0.0,0.0,0.0,0.0,0.0,0.0,0.0,2.1355,2.175,2.1817,2.1582,2.1542,2.1804,2.1817,2.1951,2.2245,2.177,2.1636,2.193,2.1703,2.1703,2.1943,2.2586,2.3308,2.4048,2.4359,2.4716,2.4997,2.4997,2.5157,2.5424,2.5424,2.5772,2.6333,2.6627,2.7068,2.7535,2.7589,2.7844,2.8112,2.8165,2.8179,2.8179,2.8179,2.8179,2.8179,2.8179,2.8179,2.8245,2.8524,2.8775,2.9068,2.9406,2.97,2.9913,2.9913,2.9913,2.9913,2.9913,2.9913,2.994,2.9993,3.0434,3.0862,3.1102,3.1436,3.1711,3.1711,3.1711,3.1711,3.1711,3.1711,3.1711,3.1711,3.1711,3.1711,3.1711,3.1931,3.2225,3.2581,3.2875,3.3106,3.34,3.3414,3.3293,3.3066,3.3066,3.2969,3.2674,3.2332,3.2185,3.2198,3.2487,3.2621,0.0,0.0,0.0,0.0,1.9228,0.0,0.0,0.0,1.7247,1.6583,0.0,1.5616,1.6376,0.0,0.0,0.0,0.0,0.0,0.0,0.0,0.0,0.0,0.0,0.0,0.0,2.0793,2.0967,2.1189,2.0935,2.0927,2.1189,2.1203,2.1349,2.1676,2.1336,2.1296,2.1636,2.1609,2.1609,2.1649,2.2492,2.3094,2.3412,2.3995,2.4409,2.4653,2.4653,2.485,2.5168,2.5168,2.5516,2.6078,2.6319,2.664,2.6947,2.7255,2.7495,2.7789,2.8098,2.8179,2.8179,2.8179,2.8179,2.8179,2.8179,2.8179,2.8245,2.8524,2.8775,2.9068,2.9406,2.97,2.9913,2.9913,2.9913,2.9913,2.9913,2.9913,2.9993,3.0306,3.0568,3.0808,3.0835,3.1303,3.1711,3.1711,3.1711,3.1711,3.1711,3.1711,3.1711,3.1711,3.1711,3.1711,3.1711,3.1931,3.2225,3.2581,3.2875,3.3106,3.34,3.3414,3.34,3.336,3.336,3.3213,3.2933,3.2688,3.2541,3.2541,3.2581,3.2728,0.0,0.0,0.0,0.0,0.0,0.0,0.0,0.0,1.8046,0.0,0.0,0.0,0.0,0.0,0.0,0.0,1.6999,0.0,0.0,0.0,0.0,0.0,0.0,0.0,0.0,0.0,0.0,0.0,2.004,2.0214,2.0347,2.0668,2.11,2.1569,2.1269,2.1256,2.1614,2.1422,2.1422,2.1628,2.2131,2.2639,2.3073,2.3674,2.4115,2.4396,2.4532,2.481,2.5115,2.5115,2.5462,2.6011,2.6131,2.6413,2.6854,2.7202,2.7455,2.7749,2.8085,2.8179,2.8179,2.8179,2.8179,2.8179,2.8179,2.8179,2.8219,2.8339,2.8671,2.9028,2.9148,2.9566,2.9913,2.9913,2.9913,2.9913,2.9913,3.0047,3.0207,3.0386,3.0728,3.1049,3.1049,3.1396,3.1711,3.1711,3.1711,3.1711,3.1711,3.1711,3.1711,3.1711,3.1711,3.1711,3.1711,3.2139,3.246,3.2581,3.2973,3.328,3.3414,3.3414,3.3414,3.3414,3.3414,3.3267,3.2973,3.2741,3.2688,3.2848,3.2674,3.2835,1.9957,0.0,0.0,0.0,0.0,0.0,0.0,0.0,0.0,0.0,0.0,0.0,0.0,0.0,1.749,0.0,0.0,1.7895,0.0,0.0,0.0,0.0,0.0,0.0,0.0,0.0,0.0,0.0,0.0,1.9332,1.9666,2.0191,2.0739,2.1328,2.1176,2.1216,2.1462,2.1216,2.1216,2.1462,2.1756,2.2211,2.2786,2.3322,2.3803,2.4209,2.4422,2.469,2.4957,2.4957,2.5302,2.5757,2.5837,2.6186,2.6747,2.7162,2.7455,2.7749,2.8085,2.8179,2.8179,2.8179,2.8179,2.8179,2.8179,2.8245,2.8312,2.8312,2.8698,2.9121,2.9121,2.9539,2.9913,2.9913,2.9913,2.994,3.002,3.0207,3.0453,3.0614,3.0942,3.1249,3.133,3.153,3.1711,3.1711,3.1711,3.1711,3.1711,3.1711,3.1711,3.1711,3.1711,3.1711,3.1711,3.226,3.2661,3.2822,3.3173,3.3374,3.3293,3.3374,3.3374,3.3293,3.3374,3.3267,3.2973,3.2808,3.2822,3.2973,3.2728,3.2862,0.0,0.0,0.0,2.1509,0.0,0.0,0.0,0.0,2.1368,0.0,0.0,0.0,0.0,0.0,0.0,0.0,0.0,0.0,0.0,0.0,0.0,0.0,0.0,0.0,0.0,0.0,0.0,0.0,0.0,0.0,1.9348,1.9666,2.0094,2.0712,2.0962,2.1109,2.1122,2.1109,2.1109,2.1122,2.1462,2.1903,2.2445,2.2786,2.3402,2.4209,2.4209,2.4382,2.4613,2.4613,2.4836,2.513,2.5411,2.5879,2.6466,2.7095,2.7455,2.7749,2.8085,2.8179,2.8179,2.8179,2.8179,2.8179,2.8179,2.8393,2.8591,2.8591,2.9018,2.9472,2.9472,2.9686,2.9913,2.9913,2.9913,2.9993,3.0333,3.04,3.0574,3.1089,3.1209,3.1316,3.161,3.1711,3.1711,3.1711,3.1711,3.1711,3.1711,3.1711,3.1711,3.1711,3.1711,3.1711,3.1711,3.226,3.2835,3.3347,3.34,3.328,3.3,3.3267,3.328,3.3,3.3267,3.3267,3.2973,3.2973,3.2973,3.2973,3.2728,3.2755,0.0,0.0,2.1661,2.2007,0.0,0.0,0.0,0.0,0.0,0.0,0.0,0.0,0.0,0.0,0.0,0.0,0.0,0.0,0.0,0.0,0.0,0.0,0.0,0.0,0.0,0.0,0.0,0.0,0.0,0.0,0.0,1.8744,1.9492,2.008,2.0575,2.0909,2.1109,2.1109,2.1109,2.1109,2.1448,2.1783,2.2151,2.2679,2.3281,2.3964,2.4115,2.4332,2.4599,2.4599,2.4893,2.5371,2.5478,2.6106,2.7028,2.7229,2.7455,2.7749,2.8085,2.8179,2.8179,2.8179,2.8179,2.8179,2.8179,2.8259,2.8339,2.8339,2.8724,2.9192,2.9192,2.9553,2.9913,2.9913,2.9913,2.994,3.0047,3.0368,3.0702,3.0902,3.1249,3.1557,3.1698,3.1711,3.1711,3.1711,3.1711,3.1711,3.1711,3.1711,3.1711,3.1711,3.1711,3.1744,3.1944,3.2367,3.2848,3.3374,3.3227,3.316,3.3253,3.336,3.336,3.3267,3.336,3.336,3.3267,3.3066,3.308,3.3253,3.2822,3.2848,2.0793,2.1333,0.0,2.2387,2.2202,0.0,2.1917,0.0,0.0,0.0,0.0,0.0,0.0,0.0,0.0,0.0,0.0,0.0,0.0,2.1288,0.0,0.0,0.0,0.0,0.0,0.0,0.0,0.0,0.0,0.0,0.0,0.0,1.8918,1.9626,2.0351,2.0815,2.1109,2.1109,2.1109,2.1109,2.1309,2.1636,2.2004,2.2412,2.2974,2.3634,2.3915,2.4209,2.4452,2.4559,2.4879,2.5371,2.5478,2.6159,2.7121,2.7269,2.7563,2.7924,2.8125,2.8179,2.8179,2.8179,2.8179,2.8179,2.8179,2.8339,2.8444,2.8379,2.8818,2.9282,2.9175,2.9553,2.9913,2.9913,2.9913,2.994,3.0047,3.0368,3.0702,3.0902,3.1249,3.1543,3.1698,3.1711,3.1711,3.1711,3.1711,3.1711,3.1711,3.1711,3.1711,3.1711,3.1805,3.1944,3.2238,3.2393,3.2639,3.3213,3.308,3.3066,3.3253,3.336,3.3507,3.3734,3.3521,3.3521,3.3734,3.3334,3.3173,3.324,3.2822,3.2848]},{"header":{"parameterUnit":"m.s-1","parameterCategory":1,"la1":30.6,"la2":29.2853,"lo1":-89.7004,"lo2":-87.6739,"dy":0.0162,"dx":0.0183,"nx":112,"ny":82,"refTime":"2023-05-25T00:00:00:Z","depth":0,"parameterNumber":3,"parameterNumberName":"V-component_of_WINDS"},"data":[0.0,0.0,0.0,0.0,0.0,0.0,0.0,0.0,0.0,0.0,0.0,0.0,0.0,0.0,0.0,0.0,0.0,0.0,0.0,0.0,0.0,0.0,0.0,0.0,0.0,0.0,0.0,0.0,0.0,0.0,0.0,0.0,0.0,0.0,0.0,0.0,0.0,0.0,0.0,0.0,0.0,0.0,0.0,0.0,0.0,0.0,0.0,0.0,0.0,0.0,0.0,0.0,0.0,0.0,0.0,0.0,0.0,0.0,0.0,0.0,0.0,0.0,0.0,0.0,0.0,0.0,0.0,0.0,0.0,0.0,0.0,0.0,0.0,0.0,0.0,0.0,0.0,0.0,0.0,0.0,0.0,0.0,0.0,0.0,0.0,0.0,0.0,0.0,0.0,0.0,0.0,4.6617,5.539,5.9722,5.6859,5.7005,5.3495,4.4653,0.0,0.0,0.0,0.0,0.0,0.0,0.0,0.0,0.0,0.0,0.0,0.0,0.0,0.0,0.0,0.0,0.0,0.0,0.0,0.0,0.0,0.0,0.0,0.0,0.0,0.0,0.0,0.0,0.0,0.0,0.0,0.0,0.0,0.0,0.0,0.0,0.0,0.0,0.0,0.0,0.0,0.0,0.0,0.0,0.0,0.0,0.0,0.0,0.0,0.0,0.0,0.0,0.0,0.0,0.0,0.0,0.0,0.0,0.0,0.0,0.0,0.0,0.0,0.0,0.0,0.0,0.0,0.0,0.0,0.0,0.0,0.0,0.0,0.0,0.0,0.0,0.0,0.0,0.0,0.0,0.0,0.0,0.0,0.0,0.0,0.0,0.0,0.0,0.0,0.0,0.0,0.0,0.0,0.0,0.0,0.0,0.0,0.0,0.0,0.0,0.0,0.0,0.0,0.0,4.2849,5.2139,5.5757,5.7042,5.5879,5.4656,5.0965,4.4032,0.0,0.0,0.0,0.0,0.0,0.0,0.0,0.0,0.0,0.0,0.0,0.0,0.0,0.0,0.0,0.0,0.0,0.0,0.0,0.0,0.0,0.0,0.0,0.0,0.0,0.0,0.0,0.0,0.0,0.0,0.0,0.0,0.0,0.0,0.0,0.0,0.0,0.0,0.0,0.0,0.0,0.0,0.0,0.0,0.0,0.0,0.0,0.0,0.0,0.0,0.0,0.0,0.0,0.0,0.0,0.0,0.0,0.0,0.0,0.0,0.0,0.0,0.0,0.0,0.0,0.0,0.0,0.0,0.0,0.0,0.0,0.0,0.0,0.0,0.0,0.0,0.0,0.0,0.0,0.0,0.0,0.0,0.0,0.0,0.0,0.0,0.0,0.0,0.0,0.0,0.0,0.0,0.0,0.0,0.0,0.0,0.0,0.0,0.0,0.0,0.0,0.0,0.0,4.0546,4.5379,5.3544,5.6235,5.6932,5.5695,5.4142,5.0612,4.4573,4.2601,0.0,0.0,0.0,0.0,0.0,0.0,0.0,0.0,0.0,0.0,0.0,0.0,0.0,0.0,0.0,0.0,0.0,0.0,0.0,0.0,0.0,0.0,0.0,0.0,0.0,0.0,0.0,0.0,0.0,0.0,0.0,0.0,0.0,0.0,0.0,0.0,0.0,0.0,0.0,0.0,0.0,0.0,0.0,0.0,0.0,0.0,0.0,0.0,0.0,0.0,0.0,0.0,0.0,0.0,0.0,0.0,0.0,0.0,0.0,0.0,0.0,0.0,0.0,0.0,0.0,0.0,0.0,0.0,0.0,0.0,0.0,0.0,0.0,0.0,0.0,0.0,0.0,0.0,0.0,0.0,0.0,0.0,0.0,0.0,0.0,0.0,0.0,0.0,0.0,0.0,0.0,0.0,0.0,0.0,0.0,0.0,0.0,0.0,0.0,0.0,0.0,0.0,4.5031,4.7966,5.4289,5.6271,5.6638,5.5438,5.3482,5.0258,4.5389,4.223,0.0,0.0,0.0,0.0,0.0,0.0,0.0,0.0,0.0,0.0,0.0,0.0,0.0,0.0,0.0,0.0,0.0,0.0,0.0,0.0,0.0,0.0,0.0,0.0,0.0,0.0,0.0,0.0,0.0,0.0,0.0,0.0,0.0,0.0,0.0,0.0,0.0,0.0,0.0,0.0,0.0,0.0,0.0,0.0,0.0,0.0,0.0,0.0,0.0,0.0,0.0,0.0,0.0,0.0,0.0,0.0,0.0,0.0,0.0,0.0,0.0,0.0,0.0,0.0,0.0,0.0,0.0,0.0,0.0,0.0,0.0,0.0,0.0,0.0,0.0,0.0,0.0,0.0,0.0,0.0,0.0,0.0,0.0,0.0,0.0,0.0,0.0,0.0,0.0,0.0,0.0,0.0,0.0,0.0,0.0,0.0,0.0,0.0,0.0,0.0,0.0,0.0,4.6029,5.0241,5.6003,5.5427,5.462,5.4473,5.1657,4.87,4.6003,4.1454,0.0,0.0,0.0,0.0,0.0,0.0,0.0,0.0,0.0,0.0,0.0,0.0,0.0,0.0,0.0,0.0,0.0,0.0,0.0,0.0,0.0,0.0,0.0,0.0,0.0,0.0,0.0,0.0,0.0,0.0,0.0,0.0,0.0,0.0,0.0,0.0,0.0,0.0,0.0,0.0,0.0,0.0,0.0,0.0,0.0,0.0,0.0,0.0,0.0,0.0,0.0,0.0,0.0,0.0,0.0,0.0,0.0,0.0,0.0,0.0,0.0,0.0,0.0,0.0,0.0,0.0,0.0,0.0,0.0,0.0,0.0,0.0,0.0,0.0,0.0,0.0,0.0,0.0,0.0,0.0,0.0,0.0,0.0,0.0,0.0,0.0,0.0,0.0,0.0,0.0,0.0,0.0,0.0,0.0,0.0,0.0,0.0,0.0,0.0,0.0,0.0,0.0,4.5975,4.9187,0.0,5.506,5.4216,5.3691,5.1179,4.8412,4.5694,0.0,0.0,0.0,0.0,0.0,0.0,0.0,0.0,0.0,0.0,0.0,0.0,0.0,0.0,0.0,0.0,0.0,0.0,0.0,0.0,0.0,0.0,0.0,0.0,0.0,0.0,0.0,0.0,0.0,0.0,0.0,0.0,0.0,0.0,0.0,0.0,0.0,0.0,0.0,0.0,0.0,0.0,0.0,0.0,0.0,0.0,0.0,0.0,0.0,0.0,0.0,0.0,0.0,0.0,0.0,0.0,0.0,0.0,0.0,0.0,0.0,0.0,0.0,0.0,0.0,0.0,0.0,0.0,0.0,0.0,0.0,0.0,0.0,0.0,0.0,0.0,0.0,0.0,0.0,0.0,0.0,0.0,0.0,0.0,0.0,0.0,0.0,0.0,0.0,0.0,0.0,0.0,0.0,0.0,0.0,0.0,0.0,0.0,0.0,0.0,0.0,0.0,4.4654,4.6397,4.916,0.0,5.4509,5.3691,5.2884,5.0362,4.7743,4.5265,0.0,0.0,0.0,0.0,0.0,0.0,0.0,0.0,0.0,0.0,0.0,0.0,0.0,0.0,0.0,0.0,0.0,0.0,0.0,0.0,0.0,0.0,0.0,0.0,0.0,0.0,0.0,0.0,0.0,0.0,0.0,0.0,0.0,0.0,0.0,0.0,0.0,0.0,0.0,0.0,0.0,0.0,0.0,0.0,0.0,0.0,0.0,0.0,0.0,0.0,0.0,0.0,0.0,0.0,0.0,0.0,0.0,0.0,0.0,0.0,0.0,0.0,0.0,0.0,0.0,0.0,0.0,0.0,0.0,0.0,0.0,0.0,0.0,0.0,0.0,0.0,0.0,0.0,0.0,0.0,0.0,0.0,0.0,0.0,0.0,0.0,0.0,0.0,0.0,0.0,0.0,0.0,0.0,0.0,0.0,0.0,0.0,0.0,0.0,0.0,0.0,0.0,4.4296,4.7535,5.0765,5.4032,5.3691,5.2884,5.206,4.8994,4.6415,0.0,0.0,0.0,0.0,0.0,0.0,0.0,0.0,0.0,0.0,0.0,0.0,0.0,0.0,0.0,0.0,0.0,0.0,0.0,0.0,0.0,0.0,0.0,0.0,0.0,0.0,0.0,0.0,0.0,0.0,0.0,0.0,0.0,0.0,0.0,0.0,0.0,0.0,0.0,0.0,0.0,0.0,0.0,0.0,0.0,0.0,0.0,0.0,0.0,0.0,0.0,0.0,0.0,0.0,0.0,0.0,0.0,0.0,0.0,0.0,0.0,0.0,0.0,0.0,0.0,0.0,0.0,0.0,0.0,0.0,0.0,0.0,0.0,0.0,0.0,0.0,0.0,0.0,0.0,0.0,0.0,0.0,0.0,0.0,0.0,0.0,0.0,0.0,0.0,0.0,0.0,0.0,0.0,0.0,0.0,0.0,0.0,0.0,0.0,0.0,0.0,0.0,0.0,4.5149,4.8416,5.1426,5.4106,5.4179,5.3482,5.2134,4.9517,4.7269,4.5663,0.0,0.0,0.0,0.0,0.0,0.0,0.0,0.0,0.0,0.0,0.0,0.0,0.0,0.0,0.0,0.0,0.0,0.0,0.0,0.0,0.0,0.0,0.0,0.0,0.0,0.0,0.0,0.0,0.0,0.0,0.0,0.0,0.0,0.0,0.0,0.0,0.0,0.0,0.0,0.0,0.0,0.0,0.0,0.0,0.0,0.0,0.0,0.0,0.0,0.0,0.0,0.0,0.0,0.0,0.0,0.0,0.0,0.0,0.0,0.0,0.0,0.0,0.0,0.0,0.0,0.0,0.0,0.0,0.0,0.0,0.0,0.0,0.0,0.0,0.0,0.0,0.0,0.0,0.0,0.0,0.0,0.0,0.0,0.0,0.0,0.0,0.0,0.0,0.0,0.0,0.0,0.0,0.0,0.0,0.0,0.0,0.0,0.0,0.0,0.0,0.0,0.0,4.5516,4.8783,5.161,5.3702,5.3922,5.3261,5.1646,4.9554,4.7489,4.5544,0.0,0.0,0.0,0.0,0.0,0.0,0.0,0.0,0.0,0.0,0.0,0.0,0.0,0.0,0.0,0.0,0.0,0.0,0.0,0.0,0.0,0.0,0.0,0.0,0.0,0.0,0.0,0.0,0.0,0.0,0.0,0.0,0.0,0.0,0.0,0.0,0.0,0.0,0.0,0.0,0.0,0.0,0.0,0.0,0.0,0.0,0.0,0.0,0.0,0.0,0.0,0.0,0.0,0.0,0.0,0.0,0.0,0.0,0.0,0.0,0.0,0.0,0.0,0.0,0.0,0.0,0.0,0.0,0.0,0.0,0.0,0.0,0.0,0.0,0.0,0.0,0.0,0.0,0.0,0.0,0.0,0.0,0.0,0.0,0.0,0.0,0.0,0.0,0.0,0.0,0.0,0.0,0.0,0.0,0.0,0.0,0.0,0.0,0.0,0.0,0.0,0.0,4.581,4.893,5.1536,5.3141,5.3324,5.2664,5.1059,4.937,4.7416,4.5067,0.0,0.0,0.0,0.0,0.0,0.0,0.0,0.0,0.0,0.0,0.0,0.0,0.0,0.0,0.0,0.0,0.0,0.0,0.0,0.0,0.0,0.0,0.0,0.0,0.0,0.0,0.0,0.0,0.0,0.0,0.0,0.0,0.0,0.0,0.0,0.0,0.0,0.0,0.0,0.0,0.0,0.0,0.0,0.0,0.0,0.0,0.0,0.0,0.0,0.0,0.0,0.0,0.0,0.0,0.0,0.0,0.0,0.0,0.0,0.0,3.1186,0.0,0.0,0.0,0.0,0.0,0.0,0.0,0.0,0.0,0.0,0.0,0.0,0.0,0.0,0.0,0.0,0.0,0.0,0.0,0.0,0.0,0.0,0.0,0.0,0.0,0.0,0.0,0.0,0.0,0.0,0.0,0.0,0.0,0.0,0.0,0.0,0.0,0.0,0.0,0.0,0.0,4.7388,5.0105,5.2344,5.3959,5.4142,5.3482,5.1867,5.0215,4.8489,4.6709,4.4024,0.0,0.0,0.0,0.0,0.0,0.0,0.0,0.0,0.0,0.0,0.0,0.0,0.0,0.0,0.0,0.0,0.0,0.0,0.0,0.0,0.0,0.0,0.0,0.0,0.0,0.0,0.0,0.0,0.0,0.0,0.0,0.0,0.0,0.0,0.0,0.0,0.0,0.0,0.0,0.0,0.0,0.0,0.0,0.0,0.0,0.0,0.0,0.0,0.0,0.0,0.0,0.0,0.0,0.0,0.0,0.0,0.0,0.0,0.0,0.0,3.3807,0.0,0.0,0.0,0.0,0.0,0.0,0.0,0.0,0.0,0.0,0.0,0.0,0.0,0.0,0.0,0.0,0.0,0.0,0.0,0.0,0.0,0.0,0.0,0.0,0.0,0.0,0.0,0.0,0.0,0.0,0.0,0.0,0.0,0.0,0.0,0.0,0.0,0.0,0.0,0.0,4.7929,5.0472,5.2758,5.4777,5.462,5.3922,5.2674,5.0739,4.9003,4.7746,4.5027,0.0,0.0,0.0,0.0,0.0,0.0,0.0,0.0,0.0,0.0,0.0,0.0,0.0,0.0,0.0,0.0,0.0,0.0,0.0,0.0,0.0,0.0,0.0,0.0,0.0,0.0,0.0,0.0,0.0,0.0,0.0,0.0,0.0,0.0,0.0,0.0,0.0,0.0,0.0,0.0,0.0,0.0,0.0,0.0,0.0,0.0,0.0,0.0,0.0,0.0,0.0,0.0,0.0,4.3554,4.4904,4.5445,4.6186,4.6529,4.6303,4.1911,3.9392,3.8356,0.0,0.0,0.0,0.0,0.0,0.0,0.0,0.0,0.0,0.0,0.0,0.0,0.0,0.0,0.0,0.0,0.0,0.0,0.0,0.0,0.0,0.0,0.0,0.0,0.0,4.6487,4.6595,0.0,0.0,0.0,0.0,0.0,0.0,0.0,0.0,0.0,0.0,0.0,0.0,4.8406,5.0875,5.3235,5.5365,5.5133,5.4388,5.3287,5.1353,4.9747,4.86,4.6205,4.4489,0.0,0.0,0.0,0.0,0.0,0.0,0.0,0.0,0.0,0.0,0.0,0.0,0.0,0.0,0.0,0.0,0.0,0.0,0.0,0.0,0.0,0.0,0.0,0.0,0.0,0.0,0.0,0.0,0.0,0.0,0.0,0.0,3.1847,3.2419,0.0,0.0,0.0,0.0,0.0,0.0,0.0,0.0,0.0,0.0,0.0,0.0,0.0,4.2484,4.4652,4.6862,4.8097,4.8481,5.0734,5.1569,5.1124,5.1825,5.2184,5.231,5.2085,0.0,4.2959,4.0959,0.0,0.0,0.0,0.0,0.0,0.0,0.0,0.0,0.0,0.0,0.0,0.0,0.0,0.0,0.0,0.0,0.0,0.0,0.0,0.0,0.0,0.0,4.8666,4.9618,5.0643,5.1119,0.0,4.6472,4.3017,4.2464,4.1524,0.0,0.0,0.0,0.0,0.0,0.0,0.0,5.0068,5.2601,5.4473,5.5475,5.6124,5.56,5.3398,5.292,5.1793,4.9564,4.8368,4.6956,4.5134,4.3735,0.0,0.0,0.0,0.0,0.0,0.0,0.0,0.0,0.0,0.0,0.0,0.0,0.0,0.0,0.0,0.0,0.0,0.0,0.0,0.0,0.0,0.0,0.0,0.0,0.0,0.0,0.0,0.0,0.0,3.2574,3.4919,3.4302,3.5409,3.5508,0.0,0.0,0.0,0.0,0.0,0.0,0.0,0.0,0.0,4.6028,4.6439,4.7926,5.0654,5.2138,5.3544,5.4928,5.7264,5.8446,5.8634,5.9292,5.9867,6.0372,6.0168,5.7877,5.3866,4.864,4.5278,4.3215,0.0,0.0,0.0,0.0,4.2485,4.3529,4.5243,4.5721,0.0,4.5656,0.0,0.0,0.0,0.0,0.0,0.0,0.0,0.0,0.0,0.0,0.0,5.4436,5.5794,5.6602,5.6161,5.3354,5.0106,0.0,4.6118,4.5242,4.4022,0.0,0.0,0.0,0.0,4.8453,5.1709,5.3849,5.539,5.6198,5.6602,5.6003,5.4021,5.3471,5.237,5.0398,4.904,4.7474,4.5604,4.4148,4.2891,0.0,0.0,0.0,0.0,0.0,0.0,0.0,0.0,0.0,0.0,0.0,0.0,0.0,0.0,0.0,0.0,0.0,0.0,0.0,0.0,0.0,0.0,0.0,0.0,0.0,0.0,0.0,0.0,3.5752,3.7863,3.6178,3.8585,3.926,0.0,0.0,0.0,0.0,0.0,0.0,4.5329,4.6387,4.8647,5.2453,5.278,5.4156,5.6817,5.7837,5.9233,6.098,6.2939,6.416,6.4779,6.5494,6.6018,6.636,6.5962,6.4941,6.2948,5.5962,5.143,4.8639,4.6933,4.617,4.6188,4.7534,4.8532,4.9532,5.203,5.2486,5.1835,5.121,0.0,4.7738,4.4802,0.0,0.0,0.0,0.0,4.893,5.2574,5.473,5.6565,5.8988,6.0493,6.119,6.0591,5.9343,5.6847,0.0,5.0482,4.9564,4.7498,0.0,0.0,0.0,0.0,5.0839,5.3471,5.5207,5.6418,5.7031,5.7116,5.6455,5.484,5.4352,5.3361,5.1536,5.0068,4.848,4.6773,4.4947,4.3565,4.2695,0.0,0.0,0.0,0.0,0.0,0.0,0.0,0.0,0.0,0.0,0.0,0.0,0.0,0.0,0.0,0.0,0.0,0.0,0.0,0.0,0.0,0.0,0.0,0.0,0.0,0.0,0.0,0.0,0.0,3.8698,4.2887,0.0,0.0,0.0,0.0,4.3859,4.646,4.94,5.2605,5.4069,5.6599,6.0489,6.1348,6.2513,6.4072,6.5613,6.6455,6.651,6.74,6.7848,6.7906,6.8687,6.8667,6.8027,6.8739,6.8131,6.6237,6.0769,5.706,5.4636,5.2386,5.1514,5.161,5.2459,5.3496,5.4651,5.5571,5.5662,5.5713,5.7927,5.7059,5.4649,5.2192,5.0908,0.0,0.0,5.2747,5.4546,5.7042,5.8877,6.0713,6.3221,6.3846,6.3919,6.3882,6.3135,6.0848,0.0,5.2931,5.162,5.0729,0.0,5.0508,5.0545,5.2564,5.4436,5.5365,5.687,5.7886,5.7923,5.7923,5.7299,5.5695,5.6198,5.56,5.3214,5.227,5.1086,4.9478,4.693,4.5224,4.4489,4.2824,0.0,0.0,0.0,0.0,0.0,0.0,0.0,0.0,0.0,0.0,0.0,0.0,0.0,0.0,0.0,0.0,0.0,0.0,0.0,0.0,0.0,0.0,0.0,0.0,0.0,0.0,0.0,0.0,4.5872,4.9691,0.0,4.7928,4.8356,4.9576,5.1302,5.3387,5.6103,5.9729,6.134,6.3469,6.6316,6.6674,6.7545,6.9018,6.965,7.0171,7.0578,7.1388,7.1748,7.1785,7.2558,7.2746,7.2491,7.2782,7.2273,7.1087,6.8648,6.4555,5.9738,5.897,5.7931,5.7015,5.8342,5.9327,6.0103,6.0957,6.1166,6.0798,5.8988,5.6785,5.4667,5.3812,5.3712,5.4252,5.6124,5.7398,5.8951,6.1912,6.2732,6.3392,6.5828,6.6012,6.5778,6.6305,6.6159,6.5044,6.1998,5.84,5.5611,5.4803,5.3812,5.3298,5.3812,5.506,5.6418,5.7728,5.8877,5.9134,5.8107,5.8474,5.7923,5.5768,5.5879,5.4987,5.2564,5.1683,5.0361,4.8405,4.6165,4.4722,4.4173,4.2265,4.117,0.0,0.0,0.0,0.0,0.0,0.0,0.0,0.0,0.0,0.0,0.0,0.0,0.0,0.0,0.0,0.0,0.0,0.0,0.0,0.0,0.0,0.0,0.0,0.0,0.0,0.0,4.9838,5.1356,5.5284,5.695,5.459,5.5373,5.6744,5.8405,6.0297,6.2837,6.6129,6.7497,6.9109,7.1143,7.1179,7.166,7.2631,7.2967,7.3221,7.3401,7.4181,7.4435,7.4196,7.4943,7.516,7.4903,7.5197,7.4845,7.4074,7.3523,7.0493,6.6053,6.5005,6.366,6.249,6.3838,6.4549,6.4884,6.5191,6.5314,6.4727,6.119,5.8988,5.7666,5.7666,5.8045,5.8926,6.108,6.2254,6.3429,6.5875,6.6329,6.6526,6.8141,6.8091,6.7871,6.8398,6.8508,6.8201,6.7136,6.3429,6.0126,5.9013,5.7948,5.7409,5.796,5.8731,5.9526,6.0334,6.0884,6.0713,5.9355,5.9196,5.8535,5.6969,5.6576,5.5365,5.2968,5.1793,5.0204,4.7937,4.6147,4.495,4.4385,4.2485,4.1313,4.0894,0.0,0.0,0.0,0.0,0.0,0.0,0.0,0.0,0.0,0.0,0.0,0.0,0.0,0.0,0.0,0.0,0.0,0.0,0.0,0.0,0.0,0.0,0.0,4.4621,5.0424,5.472,5.4858,5.9469,6.1763,5.9573,6.2058,6.4147,6.488,6.7076,6.9377,7.1599,7.2434,7.3484,7.4925,7.5014,7.5014,7.4977,7.5763,7.5763,7.4977,7.5763,7.5726,7.5014,7.5799,7.5726,7.5014,7.5799,7.5689,7.4977,7.494,7.4478,7.345,7.033,6.8568,6.7921,6.8715,6.8958,6.8825,6.8068,6.7774,6.737,6.502,6.4249,6.4213,6.4249,6.4249,6.458,6.6182,6.7173,6.7958,6.8788,6.9559,7.0146,7.0183,7.022,7.022,7.022,7.022,7.0183,7.0146,6.7614,6.4958,6.327,6.2939,6.2903,6.2903,6.3613,0.0,6.2976,6.2866,6.2572,6.1741,6.026,5.9306,5.9233,5.8437,5.6932,5.4509,5.2831,5.0839,4.8406,4.709,4.6069,4.5292,4.3614,4.2148,4.0987,0.0,0.0,0.0,0.0,0.0,0.0,0.0,0.0,0.0,0.0,0.0,0.0,0.0,0.0,0.0,0.0,0.0,0.0,0.0,0.0,0.0,0.0,5.1701,5.1701,5.5701,5.984,6.3151,6.5858,6.7341,6.7201,6.8068,6.9101,7.0259,7.1568,7.3071,7.4772,7.5592,7.6203,7.6628,7.7268,7.7304,7.6665,7.7488,7.7488,7.6628,7.6848,7.6848,7.6665,7.6885,7.6848,7.6665,7.6885,7.6848,7.6592,7.6004,7.5652,7.5285,7.3817,7.2041,7.0389,7.1211,7.077,6.9743,6.9536,6.9045,6.8458,6.7797,6.7173,6.6819,6.7393,6.7577,6.7797,6.8825,6.9265,6.9633,7.0426,7.0793,7.127,7.2422,7.273,7.273,7.273,7.273,7.2349,7.1197,7.0243,6.9142,6.749,6.6256,6.5485,6.5485,6.5191,0.0,6.4628,6.4591,6.431,6.3515,6.3025,6.2034,6.0224,5.8242,5.6113,5.3691,5.1463,4.9674,4.8333,4.712,4.5931,4.4816,4.397,4.3407,0.0,0.0,0.0,0.0,0.0,0.0,0.0,0.0,0.0,0.0,0.0,0.0,0.0,0.0,0.0,0.0,0.0,0.0,0.0,0.0,0.0,0.0,5.4133,5.8871,6.0456,6.2038,6.4507,6.847,6.9993,7.1251,7.2626,7.2831,7.3327,7.4418,7.5024,7.587,7.7069,7.7598,7.7986,7.8332,7.8846,7.8846,7.8369,7.8516,7.8369,7.7839,7.7472,7.7289,7.7289,7.7289,7.7289,0.0,7.7289,7.7289,7.7252,7.6812,7.6592,0.0,0.0,0.0,0.0,0.0,7.2422,7.1541,7.1211,7.0587,6.9912,6.9912,6.9376,6.8912,7.0073,7.0169,7.0132,7.1284,7.1629,7.1725,7.2165,7.2555,7.3032,7.4001,7.4184,7.4184,7.4184,7.4184,7.3927,7.2995,7.2518,0.0,7.1064,6.9302,6.8017,6.8017,6.7614,6.7063,6.6402,6.6329,6.5852,6.4714,6.398,6.2989,6.1508,5.8866,0.0,0.0,0.0,4.9407,4.7856,4.7132,0.0,0.0,0.0,4.5401,4.522,0.0,0.0,0.0,4.3801,4.3539,0.0,0.0,0.0,0.0,0.0,0.0,0.0,0.0,0.0,0.0,0.0,0.0,0.0,0.0,0.0,0.0,6.0023,6.5687,6.9419,6.893,6.9138,7.1807,7.2761,7.4043,7.6135,7.6277,7.6518,7.7252,7.7399,7.7766,7.8552,0.0,0.0,0.0,0.0,7.989,7.9816,7.9082,7.8699,7.8589,7.7803,7.7399,7.7289,7.7399,7.7399,7.7289,7.7289,7.7289,7.7289,7.7289,7.7289,7.7142,7.5637,7.505,7.494,7.4147,7.3817,7.3707,7.301,0.0,0.0,7.1674,7.1174,7.077,7.2312,7.2261,7.2004,7.3413,7.3817,7.3817,7.3817,7.4441,7.505,7.505,7.5087,7.516,7.505,7.505,7.5014,7.4903,7.4331,7.3832,7.3707,7.1762,7.022,7.022,7.0146,6.9559,6.8031,6.7847,6.7247,6.5729,0.0,0.0,6.2976,6.0162,5.7336,5.484,5.2417,5.0095,4.7883,4.7773,4.7629,4.7264,4.7892,4.8027,4.7629,4.8253,4.9423,5.0916,4.6891,4.5793,0.0,0.0,0.0,0.0,0.0,0.0,0.0,0.0,0.0,0.0,0.0,0.0,0.0,0.0,0.0,5.9768,6.5478,7.027,7.3528,7.477,7.5373,7.5326,7.6015,7.6646,7.7108,7.7117,7.7142,7.7289,7.7949,7.8405,7.8589,7.9213,7.9633,7.9816,8.0424,8.0461,7.9816,7.9669,7.9229,7.8589,0.0,0.0,7.7326,7.8038,7.7949,7.7289,7.7289,7.7289,7.7289,7.7289,7.7289,7.7215,7.624,7.5873,7.5763,7.494,7.4661,7.4647,7.45,7.3927,7.334,7.3986,7.367,7.3193,7.4133,7.4316,0.0,7.4573,7.4661,7.4661,7.4661,7.5249,7.5873,7.5873,7.6371,7.6665,7.6019,7.5873,7.5689,7.5014,7.4757,7.4478,7.3817,7.2239,7.105,7.105,7.0513,6.9743,6.8788,6.8678,6.8311,6.732,6.6966,6.5962,6.4016,6.2047,5.9612,5.6528,5.4058,5.2517,5.204,5.2003,5.1972,5.1899,5.1628,5.1452,5.1373,5.1119,5.187,5.3361,5.0636,4.994,0.0,0.0,0.0,0.0,0.0,0.0,0.0,0.0,0.0,0.0,0.0,4.7734,0.0,0.0,6.0854,6.6233,7.0641,7.4207,7.6534,7.7859,7.8308,7.7505,7.7751,7.833,7.9119,7.8421,7.8096,7.8516,7.8589,7.8772,7.9192,7.9947,8.0571,8.0991,8.1379,8.1415,8.0991,8.0608,8.0204,7.98,7.8993,7.8369,7.7949,7.7949,7.7693,7.7289,7.7289,7.7289,7.7289,7.7289,7.7289,7.7252,7.6848,7.6702,7.6592,7.5799,7.5506,7.5506,7.5506,7.4992,7.4441,7.5249,7.4955,7.4441,7.5249,7.5197,7.4977,7.5395,7.5506,7.5506,7.5506,7.6093,7.6702,7.6702,7.6995,7.7179,7.6775,7.6702,7.6592,7.6188,7.5784,7.5359,7.4955,7.356,7.2349,7.1967,7.1578,7.1027,7.0206,7.0096,6.9619,6.8421,6.7958,6.704,6.5448,6.2658,5.9795,5.6957,5.528,5.4399,5.4399,5.4399,5.4399,5.4399,5.452,5.4809,5.5186,5.5364,5.6285,5.7845,5.6648,5.5633,0.0,0.0,0.0,0.0,0.0,0.0,0.0,0.0,4.4333,4.7872,5.1114,5.4761,5.9569,6.3432,6.7356,7.186,7.5046,7.7391,7.8671,7.9535,7.9718,7.8937,7.8707,7.9162,8.0633,7.9286,7.8699,7.9522,7.9103,7.9176,8.0,8.0791,8.1525,8.2186,8.2186,8.2186,8.2186,8.1415,8.1012,8.0975,7.969,7.8993,7.8809,7.8112,7.7693,7.7546,7.7362,7.7289,7.7289,7.7289,7.7289,7.7289,7.7289,7.7289,7.7215,7.6555,7.635,7.635,7.635,7.5799,7.527,7.6093,7.5784,7.527,7.6093,7.5858,7.5491,7.6151,7.635,7.635,7.635,7.6812,7.7289,7.7289,7.7289,7.7289,7.7289,7.7289,7.7289,7.7289,7.6775,7.6276,7.613,7.5028,7.3817,7.2899,7.2606,7.2202,7.1417,7.116,7.0499,6.9068,6.8164,6.737,6.6549,6.3172,6.0309,5.8327,5.7299,5.6833,5.698,5.6686,5.6613,5.676,5.7409,5.796,5.8474,5.9416,6.0554,6.1851,6.201,6.0837,3.3578,3.4139,3.5749,3.9408,4.0377,4.226,0.0,0.0,5.2701,5.515,5.8633,6.2039,6.474,6.7781,7.1161,7.513,7.7811,7.9485,7.9661,8.034,8.0576,7.9741,7.9029,7.8951,7.9837,7.8442,7.7803,7.8662,7.9302,8.0036,8.0828,8.1636,8.2113,8.2186,8.2186,8.2186,8.2186,8.1415,8.1012,8.1012,8.0828,8.0351,7.9669,7.9559,7.914,7.8405,7.7656,7.7289,7.7289,7.7289,7.7289,7.7289,7.7289,7.7289,7.7289,7.7215,7.7179,7.7179,7.7179,7.6628,7.6093,7.6885,7.6628,7.613,7.6922,7.7105,7.7069,7.7142,7.7179,7.7179,7.7179,7.7252,7.7289,7.7289,7.7289,7.7289,7.7289,7.7289,7.7289,7.7289,7.7252,7.6922,7.624,7.5946,7.5322,7.378,7.2973,7.2202,7.1417,7.0697,6.9889,6.9009,6.8164,6.737,6.6549,6.4751,6.3589,6.3282,6.179,6.1263,6.1949,6.0639,6.0199,6.0908,6.1019,6.075,6.0126,6.1655,6.2499,6.2683,6.3466,6.3341,3.8883,4.0276,4.2021,4.4016,4.6825,5.0116,5.3989,5.615,5.8116,6.084,6.4088,6.716,6.9459,7.2066,7.4824,0.0,7.8756,7.9442,8.0356,7.9984,7.9286,7.8442,7.806,7.8369,7.9669,7.9176,7.8699,7.8589,7.9339,7.9963,8.0277,8.1048,8.1709,8.2186,8.2186,8.2186,8.2186,8.1856,8.1709,8.1672,8.1232,8.0828,8.0461,7.9507,7.8626,7.7803,7.7472,7.7289,7.7289,7.7289,7.7289,7.7289,7.7289,7.7289,7.7289,7.7289,7.7289,7.7289,7.7289,7.7069,7.6848,7.7179,7.7069,7.6848,7.7215,7.7289,7.7289,7.7289,7.7289,7.7289,7.7289,7.7289,7.7289,7.7289,7.7289,7.7289,7.7289,7.7289,7.7289,7.7289,7.7289,7.7179,7.6848,7.6004,7.5175,7.4515,7.3707,7.2899,7.2078,7.1688,7.1211,7.0389,6.8752,6.7554,6.7223,6.6145,6.5301,6.4824,6.4127,6.3894,6.4224,6.36,6.3417,6.3759,6.3759,6.3613,6.3233,6.393,6.4481,6.4971,6.5338,6.5843,4.2906,4.5082,4.7344,4.8986,5.2962,5.6978,5.8879,6.1017,6.3371,6.6176,6.8607,7.0922,7.3242,7.5033,7.6908,7.9118,7.936,7.9507,8.0241,7.914,7.7781,7.6445,7.5931,7.6298,7.798,7.8699,7.8956,7.8626,7.9339,7.989,8.011,8.0901,8.1599,8.2186,8.2186,8.2186,8.2186,8.2186,8.2186,8.2186,8.1599,8.1342,8.1269,7.9653,7.8332,7.7289,7.7289,7.7289,7.7289,7.7289,7.7289,7.7289,7.7289,7.7289,7.7289,7.7289,7.7289,7.7289,7.7289,7.7289,7.7289,7.7289,7.7289,7.7289,7.7289,7.7289,7.7289,7.7289,7.7289,7.7289,7.7289,7.7289,7.7289,7.7289,7.7289,7.7289,7.7289,7.7289,7.7289,7.7289,7.7289,7.7289,7.7289,7.6335,7.5491,7.527,7.4551,7.367,7.2642,7.2312,7.1857,7.105,6.9412,6.8361,6.8361,6.7614,6.6916,6.6316,6.5875,6.5742,6.5962,6.5545,6.5398,6.5618,6.5618,6.5508,6.5288,6.5742,6.6145,6.6512,6.6733,6.7577,4.4324,4.6671,5.0027,5.4569,5.7947,6.1111,6.4878,6.7175,6.918,7.1508,7.2256,7.3221,7.5644,7.615,7.6726,7.8369,7.9947,8.0388,7.8883,7.7913,7.6445,7.4074,7.2422,7.2114,0.0,7.6004,7.7729,7.8552,7.9339,8.0147,8.0938,8.1746,8.215,8.2186,8.2186,8.2186,8.2186,8.2186,8.2186,8.2186,8.2186,8.215,8.2113,8.0514,7.8846,7.7289,7.7289,7.7289,7.7289,7.7289,7.7289,7.7289,7.7289,7.7289,7.7289,7.7289,7.7289,7.7289,7.7289,7.7289,7.7289,7.7289,7.7289,7.7289,7.7289,7.7289,7.7289,7.7289,7.7289,7.7289,7.7289,7.7289,7.7289,7.7289,7.7289,7.7289,7.7289,7.7289,7.7289,7.7289,7.7289,7.7289,7.7289,7.7252,7.6959,7.6166,7.538,7.428,7.2716,7.1821,7.1013,7.022,7.0073,7.0036,7.0036,6.9302,6.8811,6.8775,6.732,6.6806,6.759,6.6145,6.5668,6.6439,6.6476,6.6072,6.5288,6.688,6.726,6.6512,6.7297,6.8091,4.7735,5.1894,5.6274,5.9699,6.366,6.7217,6.9293,7.1323,7.2604,7.222,7.1621,7.1048,7.0739,7.1065,7.208,7.4331,7.5954,7.7341,7.8442,7.7839,7.6004,7.2518,7.3509,0.0,0.0,0.0,0.0,7.7656,7.9029,7.9926,8.0183,8.0975,8.1636,8.2186,8.2186,8.2186,8.2186,8.2186,8.2186,8.2186,8.2186,8.1636,8.0587,8.0036,7.8883,7.7289,7.7289,7.7289,7.7362,7.7913,7.7803,7.7362,7.7949,7.7803,7.7289,7.7289,7.7289,7.7289,7.7289,7.7289,7.7289,7.7289,7.7289,7.7289,7.7289,7.7289,7.7289,7.7289,7.7289,7.7289,7.7289,7.7289,7.7289,7.7289,7.7289,7.7289,7.7289,7.7289,7.7289,7.7289,7.7289,7.7289,7.7289,7.6848,7.6225,7.5417,7.4625,7.3707,7.2642,7.1784,7.138,7.1651,7.0734,7.033,7.083,7.0146,6.9486,6.8921,6.8385,6.7981,6.77,6.7187,6.704,6.7297,6.7297,6.715,6.688,6.7444,6.7554,6.7297,6.759,6.8435,5.2266,5.7047,6.1685,6.5395,6.8965,7.1978,7.3208,7.394,7.385,7.2145,7.0152,6.8211,6.654,6.606,6.6849,6.965,7.1355,7.3377,7.6423,7.6114,7.472,7.2408,7.323,7.3266,0.0,0.0,0.0,7.6738,7.8699,7.9816,7.9816,8.0828,8.1672,8.2186,8.2186,8.2186,8.2186,8.2186,8.2186,8.2186,8.2186,8.1489,8.022,7.9926,7.9066,7.7766,7.7436,7.7289,7.7362,7.8259,7.8259,7.7839,7.8699,7.8699,7.8185,7.7876,7.7766,7.7729,7.7399,7.7289,7.7289,7.7289,7.7289,7.7289,7.7289,7.7289,7.7289,7.7289,7.7289,7.7289,7.7289,7.7289,7.7289,7.7289,7.7289,7.7289,7.7289,7.7289,7.7289,7.7289,7.7289,7.7289,7.7289,7.6885,7.6261,7.5454,7.4882,7.4147,7.3083,7.2496,7.2349,7.2863,7.1762,7.1284,7.2092,7.1174,7.033,6.9802,6.9486,6.9082,6.8582,6.8288,6.8128,6.8128,6.7847,6.7847,6.8128,6.8128,6.8128,6.8128,6.8128,6.8678,5.7753,6.198,6.6229,7.1299,7.3688,7.5106,7.6272,7.491,7.2958,7.1135,6.7797,6.4662,0.0,0.0,6.1457,6.4732,6.6715,6.9242,7.3318,7.323,7.2973,0.0,0.0,0.0,0.0,0.0,0.0,7.6166,0.0,7.9816,7.9853,8.1358,8.2186,8.2186,8.2186,8.2186,8.2186,8.2186,8.2186,8.2186,8.2186,8.1782,8.0975,8.0204,7.9412,7.8626,7.7803,7.7436,7.7509,7.8332,7.8626,7.8662,7.9449,7.9706,7.9596,7.8809,7.8516,7.8405,7.7582,7.7289,7.7289,7.7289,7.7289,7.7289,7.7289,7.7289,7.7289,7.7289,7.7289,7.7289,7.7289,7.7289,7.7289,7.7289,7.7289,7.7289,7.7289,7.7289,7.7289,7.7289,7.7289,7.7289,7.7289,7.7289,7.7032,7.6276,7.6166,7.5579,7.3979,7.3744,7.3744,7.3744,7.3083,7.2936,7.3648,7.2312,7.138,7.1307,7.0587,7.0146,7.011,6.9376,6.8972,6.8972,6.8201,6.8214,6.8972,6.8972,6.8972,6.8972,6.8972,6.8958,6.2321,6.6967,7.1099,7.4054,7.5043,7.5079,7.4228,7.1998,6.9099,6.5524,6.1446,5.7836,0.0,0.0,0.0,6.2964,6.704,0.0,7.5763,7.6225,0.0,7.3891,0.0,7.4331,7.3758,7.5322,0.0,0.0,7.9449,8.0073,8.0645,8.1636,8.2186,8.2186,8.2186,8.2186,8.2186,8.2186,8.2186,8.2186,8.2186,8.1782,8.1012,8.0791,8.0241,7.9486,7.925,7.914,7.9176,7.9412,7.9155,7.8626,7.8809,7.8516,7.7913,7.7693,7.7619,7.7582,7.7399,7.7289,7.7289,7.7289,7.7289,7.7289,7.7289,7.7289,7.7289,7.7289,7.7289,7.7289,7.7289,7.7289,7.7289,7.7289,7.7289,7.7289,7.7289,7.7289,7.7289,7.7289,7.7289,7.7289,7.7289,7.7289,7.7252,7.7032,7.6995,7.6408,7.4793,7.4588,7.4588,7.4588,7.439,7.4147,7.3707,7.3303,7.2569,7.138,7.1123,7.0734,7.011,6.9889,6.9779,6.9779,6.9596,6.9596,6.9779,6.9779,6.9779,6.9779,6.9779,7.011,6.6816,7.0847,7.4188,7.5696,7.5411,7.4204,7.2084,6.8994,6.5078,5.9833,5.623,5.3077,4.986,5.1194,0.0,0.0,0.0,0.0,7.4368,7.5491,7.5616,0.0,7.6093,0.0,7.6402,7.7598,7.9066,0.0,8.0534,8.0681,8.1489,8.1929,8.2186,8.2186,8.2186,8.2186,8.2186,8.2186,8.2186,8.2186,8.2186,8.1966,8.1525,8.1158,8.0755,8.0314,0.0,7.9816,7.9816,8.0167,8.0057,7.969,8.0021,7.969,7.8867,7.8537,7.817,7.7803,7.7436,7.7289,7.7289,7.7289,7.7289,7.7289,7.7289,7.7289,7.7289,7.7289,7.7289,7.7289,7.7289,7.7289,7.7289,7.7289,7.7289,7.7289,7.7289,7.7289,7.7289,7.7289,7.7289,7.7289,7.7289,7.7289,7.7289,7.7289,7.7289,7.6959,7.6078,7.5637,7.5417,7.5417,7.4808,7.4331,7.4258,7.3597,7.2789,7.1857,7.1821,7.16,7.1174,7.0807,7.0624,7.0624,7.0293,7.0257,7.0624,7.0624,7.0624,7.0624,7.0624,7.0697,7.1038,7.3831,7.5995,7.6611,7.5087,7.2641,6.9743,6.5559,6.0545,5.4277,5.1528,4.9187,4.5613,4.6965,5.0343,5.5513,0.0,6.4695,7.1959,7.356,7.4845,7.7032,7.7399,7.8133,7.9816,8.0073,8.0844,8.257,8.1929,8.1709,8.215,8.2186,8.2186,8.2186,8.2186,8.2186,8.2186,8.2186,8.2186,8.2186,8.2186,8.2186,8.2186,8.1599,8.1342,8.1269,8.0571,0.0,8.033,8.0791,8.1012,8.1048,8.1636,8.1379,8.0608,7.989,7.914,7.8332,7.7546,7.7289,7.7289,7.7289,7.7289,7.7289,7.7289,7.7289,7.7289,7.7289,7.7289,7.7289,7.7289,7.7289,7.7289,7.7289,7.7289,7.7289,7.7289,7.7289,7.7289,7.7289,7.7289,7.7289,7.7289,7.7289,7.7289,7.7289,7.7289,7.7289,7.7289,7.6702,7.6276,7.6276,7.4918,7.4294,7.5014,7.3597,7.2679,7.2679,7.2569,7.2496,7.2496,7.1821,7.1454,7.1454,7.077,7.077,7.1454,7.1454,7.1454,7.1454,7.1454,7.1087,7.4171,7.5989,7.7164,7.7063,7.4202,7.0398,6.6538,6.0396,0.0,4.9707,4.6364,4.4045,4.3299,4.5749,5.0278,5.7527,6.165,6.6636,7.4397,7.5616,7.6093,0.0,0.0,0.0,0.0,0.0,0.0,0.0,0.0,8.3471,8.226,8.2186,8.2186,8.2186,8.2186,8.2186,8.2186,8.2186,8.2186,8.2186,8.2186,8.2186,8.2223,8.2737,8.2977,8.2977,8.283,0.0,8.2684,8.1489,8.1012,8.0938,8.0424,7.9743,7.8993,7.8846,7.8259,7.7509,7.7362,7.7289,7.7289,7.7289,7.7289,7.7289,7.7289,7.7289,7.7289,7.7289,7.7289,7.7289,7.7289,7.7289,7.7289,7.7289,7.7289,7.7289,7.7289,7.7289,7.7289,7.7289,7.7289,7.7289,7.7289,7.7289,7.7289,7.7289,7.7289,7.7289,7.7289,7.7179,7.7105,7.7105,7.624,7.5726,7.5873,7.4404,7.3487,7.3487,7.2863,7.2496,7.2496,7.2386,7.2312,7.2312,7.2165,7.2165,7.2312,7.2312,7.2312,7.2312,7.2312,7.2239,7.5993,7.7245,7.7507,7.5814,7.1854,6.6971,6.1585,0.0,0.0,4.4841,4.2953,4.1979,4.1489,4.4416,0.0,5.4054,5.7759,6.2818,7.1202,7.2349,0.0,7.6922,7.8442,0.0,0.0,0.0,0.0,0.0,0.0,8.4903,8.4095,8.3691,8.3434,8.3434,8.303,8.281,8.281,8.2406,8.2186,8.2186,8.2186,8.2186,8.2223,8.3014,8.3161,8.281,8.3197,0.0,8.2737,8.1929,8.1636,8.1599,8.1195,8.0293,7.9213,7.9213,7.8405,7.7289,7.7289,7.7289,7.7289,7.7289,7.7289,7.7289,7.7289,7.7289,7.7289,7.7289,7.7289,7.7289,7.7289,7.7289,7.7289,7.7289,7.7289,7.7289,7.7289,7.7289,7.7289,7.7289,7.7289,7.7289,7.7289,7.7289,7.7289,7.7289,7.7289,7.7289,7.7289,7.7289,7.7289,7.7289,7.6592,7.6093,7.6093,7.5028,7.4331,7.4331,7.356,7.312,7.312,7.2716,7.2496,7.2496,7.2496,7.2496,7.2496,7.2496,7.2496,7.2496,7.2496,7.2496,7.6957,7.79,7.7562,7.4482,6.9566,6.3813,5.7509,5.1305,4.5658,4.1319,4.0689,4.0844,4.0489,4.3151,4.6667,0.0,5.3739,5.8796,6.7444,6.9068,7.1307,0.0,7.8846,0.0,0.0,0.0,0.0,0.0,0.0,0.0,8.58,8.5049,8.4609,8.4609,8.3821,8.3381,8.3381,8.259,8.2186,8.2186,8.2186,8.2296,8.248,8.3287,8.3324,8.2737,8.3398,0.0,0.0,8.226,8.2113,8.1929,8.1929,8.0938,7.9559,7.9559,7.8589,7.7289,7.7289,7.7289,7.7289,7.7289,7.7289,7.7289,7.7289,7.7289,7.7289,7.7289,7.7289,7.7289,7.7289,7.7289,7.7289,7.7289,7.7289,7.7289,7.7289,7.7289,7.7289,7.7289,7.7289,7.7289,7.7289,7.7289,7.7289,7.7289,7.7289,7.7289,7.7289,7.7289,7.7289,7.7289,7.6592,7.6166,7.635,7.5454,7.4977,7.516,7.4404,7.3891,7.3722,7.3083,7.2679,7.2496,7.2496,7.2496,7.2496,7.2496,7.2496,7.2496,7.2496,7.2496,7.7083,7.79,7.7533,7.4262,6.8581,6.229,5.6543,0.0,4.3578,4.0947,3.9761,3.9638,4.096,4.215,4.4907,5.0926,5.4055,5.8552,6.6686,6.9706,7.2371,7.5799,0.0,0.0,0.0,0.0,0.0,0.0,0.0,0.0,8.582,8.5049,8.4609,8.4609,8.3821,8.3381,8.3381,8.259,8.2186,8.2186,8.2186,8.259,8.3308,8.4132,8.4462,8.4389,8.4462,0.0,0.0,8.2517,8.1782,8.1122,8.1122,8.0131,7.8699,7.8699,7.8112,7.7289,7.7289,7.7289,7.7289,7.7289,7.7289,7.7289,7.7289,7.7289,7.7289,7.7289,7.7289,7.7289,7.7289,7.7289,7.7289,7.7289,7.7289,7.7289,7.7289,7.7289,7.7289,7.7289,7.7289,7.7289,7.7289,7.7289,7.7289,7.7289,7.7289,7.7289,7.7289,7.7289,7.7289,7.7289,7.6592,7.6387,7.7142,7.5784,7.5197,7.5946,7.5234,7.4478,7.3722,7.3634,7.323,7.2496,7.2496,7.2496,7.2496,7.2496,7.2496,7.2496,7.2496,7.2496,7.483,7.7001,7.7287,7.2964,6.6971,6.0497,5.4229,0.0,4.1958,3.9933,3.9216,3.9276,4.033,4.1167,4.2995,4.6957,4.8445,5.1724,5.933,6.1667,6.5215,7.2371,0.0,0.0,0.0,0.0,0.0,0.0,0.0,0.0,8.7252,8.6481,8.604,8.604,8.527,8.4609,8.4132,8.3324,8.292,8.292,8.2443,8.2627,8.3418,8.4242,8.4058,8.3214,8.4168,0.0,0.0,8.1819,8.1305,8.0938,8.0461,7.958,7.8589,7.8589,7.8075,7.7289,7.7289,7.7289,7.7289,7.7289,7.7289,7.7289,7.7289,7.7289,7.7289,7.7289,7.7289,7.7289,7.7289,7.7289,7.7289,7.7289,7.7289,7.7289,7.7289,7.7289,7.7289,7.7289,7.7289,7.7289,7.7289,7.7289,7.7289,7.7289,7.7289,7.7289,7.7289,7.7289,7.7289,7.7289,7.6995,7.6959,7.7289,7.6702,7.6481,7.6812,7.6093,7.5249,7.4478,7.3964,7.3303,7.2532,7.2496,7.2496,7.2496,7.2496,7.2496,7.2496,7.2496,7.2496,7.1932,7.4983,7.5787,7.1278,6.5253,5.8746,5.2362,0.0,4.0993,3.9246,3.887,3.9099,3.9841,4.0601,4.1801,4.4003,4.514,4.8086,5.4667,5.6895,6.0848,0.0,0.0,0.0,0.0,0.0,0.0,0.0,0.0,0.0,8.7839,8.7325,8.6978,8.6978,8.6004,8.5159,8.4609,8.3581,8.3067,8.3014,8.2223,8.226,8.3051,8.3618,8.3251,8.226,0.0,0.0,0.0,8.1342,8.0865,8.0571,7.9779,7.8919,7.8222,7.8222,7.7839,7.7289,7.7289,7.7289,7.7289,7.7289,7.7289,7.7289,7.7289,7.7289,7.7289,7.7289,7.7289,7.7289,7.7289,7.7289,7.7289,7.7289,7.7289,7.7289,7.7289,7.7289,7.7289,7.7289,7.7509,7.7582,7.7362,7.7509,7.7582,7.7362,7.7289,7.7289,7.7289,7.7289,7.7289,7.7289,7.7289,7.7289,7.7289,7.7289,7.7289,7.7289,7.6775,7.6078,7.527,7.4698,7.3927,7.2899,7.2863,7.2753,7.2496,7.2496,7.2496,7.2496,7.2496,7.2642,6.8494,7.1552,7.2616,6.9174,6.3442,5.7095,5.1248,4.5446,4.0857,3.9224,3.8833,3.9039,3.9834,4.0601,4.1617,4.3249,4.6177,4.9994,5.4924,5.8364,0.0,0.0,0.0,0.0,0.0,0.0,0.0,0.0,0.0,0.0,8.7014,8.6978,8.6978,8.6978,8.5453,8.4609,8.4609,8.2994,8.2223,8.2186,8.1415,8.1415,8.2223,8.2223,8.2223,0.0,0.0,0.0,0.0,8.1342,8.0534,7.9743,7.8919,7.8075,7.7326,7.7326,7.7326,7.7289,7.7289,7.7289,7.7289,7.7289,7.7289,7.7289,7.7289,7.7289,7.7289,7.7289,7.7289,7.7289,7.7289,7.7289,7.7289,7.7289,7.7289,7.7289,7.7289,7.7289,7.7289,7.7289,7.8002,7.8295,7.7436,7.8038,7.8295,7.7436,7.7289,7.7289,7.7289,7.7289,7.7289,7.7289,7.7289,7.7289,7.7289,7.7289,7.7289,7.7289,7.7289,7.6922,7.613,7.6093,7.5322,7.3707,7.367,7.3303,7.2496,7.2496,7.2496,7.2496,7.2496,7.2936,5.8635,6.1804,6.3257,5.997,5.6259,5.2266,4.7553,4.3788,4.0826,3.9119,3.8795,3.8876,3.9065,4.0202,4.1984,4.4709,4.6911,4.9618,0.0,0.0,0.0,0.0,0.0,0.0,0.0,0.0,0.0,0.0,0.0,0.0,8.7051,8.6481,8.6187,8.6187,8.5673,8.4903,8.3785,8.3271,8.2737,8.2186,8.1379,8.1122,8.1415,8.1929,8.1893,0.0,0.0,0.0,0.0,8.0734,8.0036,7.9669,7.8259,7.7546,7.7289,7.7289,7.7693,7.8185,7.8185,7.8552,7.8919,7.8369,7.8185,7.8075,7.7472,7.7289,7.7289,7.7289,7.7289,7.7436,7.8023,7.8185,7.8185,7.8185,7.8185,7.8038,7.7436,7.7766,7.8185,7.8185,7.8405,7.8516,7.8259,7.7913,7.7619,7.7362,7.7289,7.7289,7.7289,7.7289,7.7289,7.7289,7.7289,7.7289,7.7289,7.7289,7.7289,7.7289,7.7289,7.6922,7.613,7.6093,7.5322,7.3722,7.4258,7.3854,7.2496,7.3046,7.3046,7.2496,7.3046,7.345,5.1232,5.4993,5.6826,5.4468,5.1756,0.0,4.5198,4.2509,4.0365,3.9006,3.8727,3.8757,3.8696,4.0002,4.1764,4.3754,4.5957,4.8526,0.0,0.0,0.0,0.0,0.0,0.0,0.0,0.0,0.0,0.0,0.0,0.0,8.7051,8.6224,8.5527,8.4903,8.4903,8.4425,8.3418,8.3104,8.2553,8.1746,8.0938,8.0388,8.0131,8.0608,0.0,0.0,0.0,0.0,0.0,8.0477,7.9816,7.9633,7.7949,7.7289,7.7289,7.7289,7.7839,7.8589,7.8589,7.8919,7.9265,7.8772,7.8369,7.7986,7.7472,7.7289,7.7289,7.7289,7.7289,7.7509,7.8369,7.8369,7.8185,7.8516,7.8369,7.8075,7.7839,7.8222,7.8699,7.8993,7.9029,7.8956,7.8662,7.8148,7.7693,7.7362,7.7289,7.7289,7.7289,7.7289,7.7289,7.7289,7.7289,7.7289,7.7289,7.7289,7.7289,7.7289,7.7289,7.7069,7.6555,7.6555,7.5946,7.4625,7.5102,7.472,7.3413,7.3927,7.3891,7.3399,7.4221,7.4588,0.0,5.0084,5.2217,5.1298,4.8836,4.5963,4.3532,4.134,0.0,3.8799,3.8652,3.8718,3.8865,4.0076,4.1177,4.1462,4.4149,4.7315,0.0,5.5574,0.0,0.0,0.0,0.0,0.0,0.0,0.0,0.0,0.0,0.0,8.6978,8.6187,8.5013,8.3454,8.3271,8.3234,8.3234,8.248,8.1709,8.0901,8.0183,7.9339,7.8516,7.8552,7.9029,0.0,0.0,0.0,0.0,8.044,7.9779,7.9559,7.7913,7.7362,7.7399,7.7399,7.7986,7.8772,7.8699,7.8699,7.8736,7.8626,7.7986,7.7289,7.7289,7.7289,7.7289,7.7289,7.7362,7.7582,7.8479,7.8148,7.7766,7.8589,7.8133,7.7766,7.8516,7.8736,7.8993,7.9743,7.989,7.9633,7.8809,7.8626,7.8295,7.7436,7.7289,7.7326,7.7399,7.7362,7.7326,7.7399,7.7362,7.7289,7.7289,7.7289,7.7289,7.7289,7.7289,7.7289,7.7289,7.7289,7.6922,7.613,7.6056,7.5689,7.4977,7.494,7.4903,7.4903,7.5799,7.6166,3.7675,0.0,4.1114,4.0328,3.9958,3.947,0.0,3.8505,3.8762,3.7962,3.8285,3.9085,4.0296,4.0846,4.2122,4.5205,4.7388,4.9858,5.3115,0.0,0.0,0.0,0.0,0.0,0.0,0.0,0.0,0.0,0.0,8.7655,8.7014,8.5637,8.4425,8.3418,8.2207,8.1562,8.1562,8.1379,8.0865,8.0073,7.989,7.9029,7.7619,7.8295,7.9029,0.0,0.0,0.0,8.1195,8.022,7.9449,7.8772,7.7693,7.7693,7.8295,7.8295,7.9213,8.0351,7.9743,7.991,8.0241,7.8993,7.7986,7.7289,7.7289,7.7289,7.7289,7.7289,7.7766,7.8479,7.9302,7.9837,8.0188,8.0388,8.0277,8.0021,7.9633,7.9984,8.0498,8.0681,8.0718,8.0461,7.9669,7.8993,7.8295,7.7436,7.7289,7.7546,7.8222,7.7693,7.7546,7.8222,7.7693,7.7289,7.7289,7.7289,7.7289,7.7289,7.7289,7.7289,7.7289,7.7289,7.6922,7.613,7.5506,7.5395,7.5836,7.5197,7.4903,7.494,7.6371,7.6702,3.3773,3.6001,3.7933,3.7566,3.7764,3.7925,3.7514,3.7771,3.8036,3.7603,3.8146,3.9085,4.0333,4.114,4.2608,4.5507,4.8012,0.0,0.0,0.0,0.0,0.0,0.0,0.0,0.0,0.0,0.0,0.0,0.0,8.7472,8.7014,8.549,8.4242,8.3418,8.1489,8.0645,8.1012,8.0645,8.0241,7.9816,7.9449,7.8552,7.7326,7.7803,7.8479,0.0,0.0,0.0,8.0388,7.9596,7.8993,7.8516,7.7656,7.7582,7.7986,7.7986,7.8809,7.9874,7.9816,8.011,8.0167,7.8552,7.7693,7.7362,7.7766,7.7876,7.7876,7.7876,7.8259,7.8883,8.0057,8.0388,8.0534,8.0901,8.0718,8.0424,8.0351,8.0681,8.1122,8.1489,8.1269,8.0865,8.0424,7.936,7.8552,7.8479,7.8148,7.8222,7.9029,7.8736,7.8479,7.8589,7.8516,7.8295,7.7913,7.7876,7.7729,7.7326,7.7289,7.7289,7.7289,7.7289,7.7289,7.7231,7.6827,7.7011,7.7781,7.7341,7.7157,7.7157,7.8038,7.8038,3.2662,3.5782,3.8608,3.8241,3.8322,3.8469,3.8358,3.7999,3.7669,3.7669,3.8432,3.935,4.0275,4.1772,0.0,0.0,0.0,0.0,0.0,0.0,0.0,0.0,0.0,0.0,0.0,0.0,0.0,0.0,0.0,8.6978,8.6978,8.549,8.4242,8.3418,8.1048,8.0147,8.0828,8.0147,7.9743,7.9596,7.9029,7.8259,7.7289,7.7289,7.7766,7.8589,0.0,0.0,7.9559,7.8883,7.8516,7.8332,7.7582,7.7399,7.7509,7.7509,7.8096,7.9066,7.9743,7.989,7.9559,7.7986,7.7582,7.7803,7.8405,7.8699,7.8809,7.8919,7.8956,7.9286,8.0645,8.0571,8.033,8.1012,8.0645,8.0367,8.1048,8.1195,8.1379,8.2076,8.1636,8.1158,8.1012,7.9874,7.914,7.9706,7.9213,7.9066,7.989,7.989,7.9596,7.9029,7.9486,7.9522,7.8846,7.8772,7.8479,7.7729,7.7436,7.7362,7.7509,7.7619,7.8023,7.8772,7.8772,7.9119,7.9816,7.9816,7.9816,7.9816,7.9926,7.9543,3.3867,3.6619,3.8204,3.6105,3.6633,3.7522,3.6824,3.7624,3.8505,3.8505,3.9709,4.1177,4.2662,4.4277,4.5883,0.0,0.0,0.0,0.0,0.0,0.0,0.0,0.0,0.0,0.0,0.0,0.0,0.0,0.0,8.6978,8.6978,8.549,8.4242,8.3418,8.1048,7.9853,8.0,7.9853,7.9449,7.8772,7.9339,7.8809,7.7289,7.7289,7.7766,7.8589,0.0,7.8662,7.8772,7.8662,7.8185,7.7509,7.7362,7.7766,7.8405,7.8405,7.936,8.0645,8.0791,8.0351,7.9669,7.8699,7.8846,7.9302,7.8772,7.9066,7.9779,8.0424,8.0645,8.0681,8.0938,8.1415,8.1856,8.2003,8.1929,8.1856,8.2003,8.2003,8.2039,8.2186,8.2113,8.1782,8.1122,8.0791,8.0424,7.989,7.9706,7.9926,8.0718,8.0204,8.0,8.0571,8.0147,7.9743,7.9633,7.9633,7.9559,7.9412,7.806,7.7619,7.8369,7.9029,7.9486,7.9596,7.9633,7.9669,7.9816,7.9816,7.9816,7.9816,8.0498,8.0388,3.2406,3.4828,3.6729,3.6956,3.8579,3.9871,3.9093,3.9129,3.946,3.9892,4.092,4.2351,4.4424,0.0,5.0215,5.5306,0.0,0.0,0.0,0.0,0.0,0.0,0.0,0.0,0.0,0.0,0.0,0.0,0.0,0.0,8.6978,8.549,8.4425,8.4058,8.1269,7.9816,7.9816,7.9376,7.8956,7.8589,7.8516,7.806,7.7289,7.7289,7.7509,7.7876,0.0,7.7876,7.7876,7.7876,7.7656,7.7289,7.7289,7.7546,7.7949,7.8442,7.9323,8.0351,8.0351,8.0388,8.0314,7.9507,7.9522,7.9816,7.9874,8.0167,8.0608,8.1415,8.1342,8.1122,8.1525,8.1929,8.2186,8.2186,8.2186,8.2186,8.2186,8.2186,8.2186,8.2186,8.2186,8.2076,8.1709,8.1305,8.1012,8.1085,8.0718,8.0755,8.1525,8.1305,8.1048,8.1012,8.1048,8.0901,8.0498,8.0461,8.0241,7.9816,7.9066,7.8846,7.9229,7.9596,8.0,8.0424,8.0461,8.0645,8.1101,8.1101,8.1101,8.1101,8.1489,8.1232,3.1715,3.3727,3.5885,3.8351,4.0377,4.1809,4.2168,4.1735,4.1625,4.2828,4.3864,4.5002,0.0,4.9884,0.0,6.2205,0.0,0.0,0.0,0.0,0.0,0.0,0.0,0.0,0.0,0.0,0.0,0.0,0.0,0.0,8.6738,8.5196,8.4242,8.4058,8.1101,7.9522,7.9522,7.8699,7.8295,7.8295,7.7839,7.7509,7.7289,7.7289,7.7289,7.7289,7.7289,7.7289,7.7289,7.7289,7.7289,7.7289,7.7289,7.7436,7.7693,7.8552,7.9412,8.011,8.0293,8.0755,8.1158,8.0351,8.022,8.044,8.0865,8.1122,8.1415,8.2039,8.1746,8.1415,8.2039,8.2186,8.2186,8.2186,8.2186,8.226,8.2443,8.248,8.2553,8.2737,8.2774,8.2774,8.2774,8.226,8.2003,8.2406,8.1966,8.1709,8.215,8.2186,8.1966,8.1342,8.1819,8.1929,8.1342,8.1269,8.1012,8.0404,8.0183,8.0073,8.0073,8.0257,8.0645,8.1269,8.1269,8.1562,8.2186,8.2186,8.2186,8.2186,8.2186,8.1856,3.3903,3.5452,3.678,3.921,3.9945,4.1046,4.4709,4.5516,4.614,4.8499,5.0225,5.0886,0.0,5.3786,5.9171,6.4297,0.0,0.0,0.0,0.0,0.0,0.0,0.0,0.0,0.0,0.0,0.0,0.0,0.0,0.0,8.593,8.4352,8.3124,8.2406,7.9984,7.8699,7.8699,7.7839,7.7399,7.7399,7.8148,7.8075,7.7289,7.7289,7.7289,7.7289,7.7289,7.7289,7.7289,7.7289,7.7289,7.7289,7.7289,7.7803,7.8589,7.9412,8.0204,8.1012,8.1782,8.2076,8.1966,8.1195,8.1415,8.1893,8.1232,8.1525,8.2113,8.2186,8.215,8.2113,8.2186,8.2186,8.2186,8.2186,8.2186,8.2406,8.3161,8.3308,8.3528,8.4278,8.4425,8.4425,8.4425,8.4389,8.4132,8.3418,8.3271,8.2977,8.2296,8.2186,8.2186,8.2113,8.215,8.2186,8.2113,8.2113,8.2076,8.2039,8.1342,8.0901,8.0901,8.1636,8.2039,8.2113,8.2113,8.215,8.2186,8.2186,8.2186,8.2186,8.2186,8.215,3.2913,3.4864,3.6898,3.9284,4.1046,4.2919,4.5948,4.7819,4.9517,5.1426,5.3922,5.5684,0.0,0.0,6.3649,0.0,0.0,0.0,0.0,0.0,0.0,0.0,0.0,0.0,0.0,0.0,0.0,0.0,0.0,0.0,8.4352,8.3251,8.2296,8.1489,7.9617,7.8589,7.8589,7.7729,7.7289,7.7289,7.7619,7.7619,7.7289,7.7289,7.7289,7.7289,7.7289,7.7289,7.7289,7.7289,7.7289,7.7362,7.7876,7.8295,7.8772,8.0057,8.0755,8.1122,8.1929,8.2186,8.215,8.1856,8.1929,8.215,8.1819,8.1966,8.2186,8.2186,8.2186,8.2186,8.2186,8.2186,8.2333,8.2847,8.2957,8.3177,8.3968,8.4168,8.4242,8.4535,8.4609,8.4609,8.4609,8.4609,8.4499,8.4205,8.4168,8.3875,8.3067,8.2957,8.2737,8.226,8.2186,8.2186,8.2186,8.2186,8.2186,8.2186,8.1893,8.1746,8.1746,8.2039,8.2186,8.2186,8.2186,8.2186,8.2186,8.27,8.2957,8.2957,8.2957,8.2957,3.2552,3.4614,3.6898,3.9284,4.2111,4.5158,4.8627,5.0902,5.3078,5.5673,5.7361,5.8694,5.9747,0.0,0.0,0.0,0.0,0.0,0.0,0.0,0.0,0.0,0.0,0.0,0.0,0.0,0.0,0.0,0.0,0.0,0.0,8.1893,8.0938,7.9858,7.8772,7.8075,7.7818,7.7472,7.7289,7.7289,7.7289,7.7289,7.7289,7.7289,7.7289,7.7289,7.7289,7.7289,7.7289,7.7289,7.7289,7.7399,7.8259,7.8772,7.914,8.0498,8.1158,8.1415,8.1709,8.2003,8.215,8.1893,8.2003,8.2186,8.2186,8.2186,8.2186,8.2186,8.2186,8.2186,8.2186,8.2186,8.2406,8.3197,8.3381,8.3675,8.4756,8.4976,8.5049,8.5306,8.538,8.538,8.538,8.538,8.527,8.5013,8.4976,8.4682,8.3858,8.3564,8.3087,8.2296,8.2186,8.2186,8.2186,8.2186,8.2186,8.2186,8.2186,8.2186,8.2186,8.2186,8.2186,8.2186,8.2186,8.2333,8.259,8.3124,8.3528,8.3785,8.3785,8.3785,3.3366,3.5018,3.689,3.9321,4.2955,4.7425,5.3151,5.506,5.7017,6.1875,6.0958,5.9747,6.1374,6.3686,0.0,0.0,0.0,0.0,0.0,0.0,0.0,0.0,0.0,0.0,0.0,0.0,0.0,0.0,0.0,0.0,0.0,8.0204,7.8993,7.7362,7.7289,7.6885,7.6093,7.6885,7.7289,7.7289,7.7289,7.7289,7.7289,7.7289,7.7289,7.7289,7.7289,7.7289,7.7289,7.7289,7.7289,7.7399,7.8259,7.9103,7.989,8.0718,8.1525,8.2076,8.1269,8.1525,8.2039,8.1269,8.1525,8.2186,8.2186,8.2186,8.2186,8.2186,8.2186,8.2186,8.2186,8.2186,8.2406,8.3197,8.3418,8.3858,8.5453,8.58,8.604,8.6831,8.6978,8.6978,8.6978,8.6978,8.6738,8.593,8.58,8.549,8.4682,8.3895,8.3087,8.2296,8.2186,8.2186,8.2186,8.2186,8.2186,8.2186,8.2186,8.2186,8.2186,8.2186,8.2186,8.2186,8.2186,8.259,8.3381,8.3418,8.3821,8.4609,8.4609,8.4609,3.366,3.5862,3.8689,4.1707,4.592,5.0692,5.5757,5.7116,5.9134,6.5729,6.5178,6.3967,6.5608,6.743,0.0,0.0,0.0,0.0,0.0,0.0,0.0,0.0,0.0,0.0,0.0,0.0,0.0,0.0,0.0,0.0,0.0,7.8516,7.7546,7.6497,7.5894,7.5491,7.527,7.5491,7.5601,7.5637,7.6188,7.6738,7.7289,7.7289,7.7289,7.7289,7.7289,7.7289,7.7289,7.7289,7.7289,7.7436,7.8883,7.9596,7.9963,8.1342,8.1636,8.1342,8.1085,8.1158,8.1342,8.1085,8.1525,8.2186,8.2186,8.2186,8.2186,8.2186,8.2186,8.2186,8.2186,8.2186,8.2553,8.3911,8.4682,8.538,8.6407,8.6628,8.6701,8.6941,8.6978,8.6978,8.6978,8.6978,8.6904,8.6701,8.6151,8.549,8.4682,8.3895,8.3308,8.3067,8.2553,8.2186,8.2186,8.2186,8.2443,8.3014,8.3014,8.281,8.2223,8.2186,8.2186,8.2186,8.2774,8.3161,8.3381,8.4535,8.5196,8.5416,8.5416,8.5416,3.4842,3.7404,4.0516,4.4048,4.8857,5.3959,5.8804,6.1153,6.387,6.9229,6.8421,6.732,6.9229,7.0146,0.0,0.0,0.0,0.0,0.0,0.0,0.0,0.0,0.0,0.0,0.0,0.0,0.0,0.0,0.0,0.0,0.0,7.6812,7.5968,7.5175,7.4992,7.4757,7.4441,7.472,7.4903,7.4903,7.5395,7.6041,7.6812,7.7142,7.7289,7.7289,7.7289,7.7289,7.7289,7.7289,7.7289,7.7436,7.8772,7.9339,7.9486,8.0771,8.0938,8.0461,8.0167,8.0461,8.0901,8.0241,8.0791,8.1709,8.1709,8.1709,8.1782,8.2113,8.2186,8.226,8.259,8.292,8.3398,8.4389,8.4976,8.5637,8.6775,8.6978,8.6978,8.6978,8.6978,8.6978,8.6978,8.6978,8.6978,8.6978,8.6591,8.5857,8.4756,8.4462,8.4115,8.3454,8.2994,8.27,8.27,8.237,8.2553,8.3344,8.3381,8.3308,8.3141,8.2847,8.27,8.27,8.3161,8.3711,8.4352,8.5306,8.5967,8.6261,8.6261,8.6261,3.6464,3.935,4.2314,4.6489,5.194,5.7457,6.1985,6.6022,6.9449,7.1688,0.0,6.9926,7.2202,7.2004,0.0,0.0,0.0,0.0,0.0,0.0,0.0,0.0,0.0,0.0,0.0,0.0,0.0,0.0,0.0,0.0,0.0,7.5249,7.4478,7.3707,7.4331,7.4331,7.3597,7.4258,7.461,7.4683,7.4683,7.5139,7.6019,7.6812,7.7252,7.7289,7.7289,7.7289,7.7289,7.7289,7.7289,7.7399,7.8259,7.8589,7.8699,7.9522,7.9743,7.9596,7.8846,7.9543,8.0534,7.9066,7.9653,8.0901,8.0901,8.0938,8.1158,8.1893,8.215,8.237,8.3087,8.3821,8.4425,8.4572,8.4719,8.5233,8.6684,8.6978,8.6978,8.6978,8.6978,8.6978,8.6978,8.6978,8.6941,8.6794,8.6904,8.6444,8.4829,8.5306,8.5233,8.3748,8.3491,8.3381,8.3381,8.2737,8.2663,8.3454,8.3564,8.3948,8.4682,8.3931,8.3491,8.3491,8.3564,8.4352,8.58,8.5857,8.6297,8.6978,8.6978,8.6978,3.7088,4.0165,4.4268,4.9591,5.6124,6.1875,6.4224,6.6439,6.8274,6.9449,7.077,7.2092,7.323,0.0,0.0,0.0,0.0,0.0,0.0,0.0,0.0,0.0,0.0,0.0,0.0,0.0,0.0,0.0,0.0,0.0,7.516,7.4404,7.3891,7.3722,7.3266,7.2936,7.2753,7.2298,7.2371,0.0,7.301,7.378,7.5197,7.5983,7.6702,7.7289,7.7289,7.7289,7.7289,7.7289,7.7289,7.7399,7.8259,7.8589,7.8699,7.9522,7.9412,7.8809,7.8662,7.8809,7.9066,7.8699,7.925,8.0073,8.0073,8.0498,8.1048,8.1232,8.1709,8.2223,8.2406,8.259,8.303,8.4315,8.5563,8.6574,8.6904,8.6978,8.6978,8.6978,8.6978,8.6978,8.6978,8.6978,8.6574,8.5306,8.617,8.6444,8.4829,8.5306,8.5673,8.5306,8.4168,8.3381,8.3381,8.3234,8.3508,8.4278,8.4939,8.5343,8.5527,8.4756,8.4352,8.4352,8.4976,8.5453,8.58,8.6444,8.6848,8.6978,8.6978,8.6978,3.7961,4.1597,4.648,5.4106,5.9428,6.3343,6.5411,6.6806,6.7921,6.8752,7.0807,7.2753,7.356,0.0,0.0,0.0,0.0,0.0,0.0,0.0,0.0,0.0,0.0,0.0,0.0,0.0,0.0,0.0,0.0,7.4331,7.4331,7.356,7.312,7.312,7.2349,7.1931,7.1931,7.1138,7.1138,7.1931,7.1931,7.2958,7.494,7.6114,7.6702,7.6738,7.7142,7.7289,7.7289,7.7289,7.7289,7.7362,7.7803,7.7986,7.8023,7.8442,7.8332,7.7986,7.7986,7.8259,7.8516,7.8112,7.8552,7.9229,7.9229,7.98,8.0498,8.0901,8.1562,8.237,8.3141,8.3067,8.3177,8.4792,8.5527,8.5967,8.6334,8.6738,8.6885,8.6518,8.6738,8.6978,8.6978,8.6978,8.6574,8.5343,8.6224,8.6444,8.4829,8.5637,8.6224,8.582,8.5049,8.4535,8.4535,8.4205,8.4315,8.5123,8.5563,8.5967,8.6371,8.5967,8.5563,8.5159,8.56,8.5967,8.6371,8.6811,8.6978,8.6978,8.6978,8.6978,3.8399,4.3029,4.882,5.7409,6.1068,6.316,6.5375,6.6586,6.754,6.8495,7.0513,7.2275,0.0,0.0,0.0,0.0,0.0,0.0,0.0,0.0,0.0,0.0,0.0,0.0,0.0,0.0,0.0,0.0,0.0,7.323,7.3097,7.2569,7.2239,7.2092,7.1417,7.1087,7.1087,7.0293,7.0293,7.1087,7.138,7.2555,7.4536,7.6298,7.6812,7.635,7.6995,7.7289,7.7289,7.7289,7.7289,7.7289,7.7289,7.7289,7.7289,7.7289,7.7289,7.7289,7.7289,7.7766,7.8259,7.7546,7.7803,7.8405,7.8552,7.914,7.9963,8.0791,8.1562,8.2517,8.3838,8.3691,8.3564,8.5049,8.4866,8.4609,8.5416,8.6224,8.6591,8.593,8.6444,8.6978,8.6978,8.6978,8.6738,8.593,8.6481,8.6464,8.5013,8.6114,8.6738,8.6077,8.5874,8.58,8.58,8.5196,8.5086,8.5747,8.593,8.6297,8.6978,8.6978,8.6701,8.6004,8.6004,8.6334,8.6978,8.6978,8.6978,8.6978,8.6978,8.6908,3.719,4.3836,5.1132,5.5218,5.9036,6.2034,6.305,0.0,6.6035,0.0,6.9229,0.0,0.0,0.0,0.0,0.0,0.0,0.0,0.0,0.0,0.0,0.0,0.0,0.0,0.0,0.0,0.0,0.0,7.1174,7.1321,7.0624,7.1123,7.1123,7.044,7.033,7.0257,7.0257,6.9449,6.9449,7.0293,7.1688,7.2532,7.2899,7.5212,7.6592,7.7142,7.7252,7.7289,7.7289,7.7289,7.7289,7.7289,7.7289,7.7289,7.7289,7.7289,7.7289,7.7289,7.7289,7.7399,7.7436,7.7362,7.7399,7.7619,7.8369,7.914,7.9963,8.0791,8.1562,8.226,8.2443,8.2443,8.259,8.3491,8.3638,8.3785,8.4609,8.538,8.593,8.582,8.6444,8.6978,8.6978,8.6978,8.6738,8.593,8.6481,8.6664,8.5747,8.6444,8.6941,8.6831,8.6224,8.58,8.58,8.571,8.569,8.5783,8.6444,8.6885,8.6978,8.6978,8.6941,8.6848,8.6848,8.6867,8.6978,8.6978,8.6978,8.6978,8.6978,8.6608,4.0219,4.4745,4.926,5.4337,5.7262,5.9355,6.1068,6.2719,6.4224,6.5461,6.6586,0.0,0.0,0.0,0.0,0.0,0.0,0.0,0.0,0.0,0.0,0.0,0.0,0.0,0.0,0.0,0.0,0.0,7.0183,7.066,7.077,7.0697,7.0881,7.1431,7.0146,6.9633,7.011,6.8862,6.8641,6.9449,7.105,7.2041,7.2569,7.4536,7.5601,7.6004,7.6922,7.7289,7.7289,7.7289,7.7289,7.7289,7.7289,7.7289,7.7289,7.7289,7.7289,7.7289,7.7289,7.7289,7.7289,7.7289,7.7289,7.7362,7.7766,7.8772,7.989,8.0241,8.1232,8.2296,8.2774,8.2553,8.2406,8.3197,8.3051,8.281,8.3177,8.4609,8.593,8.6371,8.6775,8.6978,8.6978,8.6978,8.6738,8.593,8.6481,8.6701,8.5894,8.6114,8.6518,8.6941,8.6261,8.5967,8.6444,8.6481,8.6481,8.6481,8.6794,8.6978,8.6978,8.6978,8.6978,8.6978,8.6978,8.6978,8.6978,8.6978,8.6978,8.6978,8.6978,8.6518,4.0988,4.3754,4.625,5.151,5.4509,5.6712,0.0,0.0,6.2426,0.0,0.0,0.0,0.0,0.0,0.0,0.0,0.0,0.0,0.0,0.0,0.0,0.0,0.0,0.0,0.0,0.0,0.0,0.0,6.9045,6.9743,7.0353,7.0,7.0257,7.1248,6.9522,6.8862,6.9486,6.8288,6.8091,6.8921,7.0316,7.1417,7.2261,7.3839,7.4588,7.4698,7.6518,7.7289,7.7289,7.7289,7.7289,7.7289,7.7289,7.7289,7.7289,7.7289,7.7289,7.7289,7.7289,7.7289,7.7289,7.7289,7.7289,7.7362,7.7546,7.8662,7.9853,8.0036,8.1138,8.2333,8.2957,8.2663,8.2333,8.2957,8.2627,8.2296,8.27,8.4205,8.5783,8.6794,8.6978,8.6978,8.6978,8.6978,8.6794,8.6187,8.6628,8.6775,8.6187,8.6114,8.6334,8.6958,8.6481,8.6334,8.6941,8.6978,8.6978,8.6978,8.6978,8.6978,8.6978,8.6978,8.6978,8.6978,8.6978,8.6978,8.6978,8.6978,8.6978,8.6978,8.6978,8.6518,3.6186,3.9533,4.2947,4.481,4.9911,5.4766,0.0,0.0,0.0,0.0,0.0,0.0,0.0,0.0,0.0,0.0,0.0,0.0,0.0,0.0,0.0,0.0,0.0,0.0,0.0,0.0,0.0,0.0,6.7357,6.7847,6.7884,6.8568,6.8641,6.7958,6.7847,6.7774,6.7811,6.7737,6.8091,6.8898,6.9743,7.0587,7.1417,7.3046,7.3744,7.3891,7.6261,7.7289,7.7289,7.7289,7.7289,7.7289,7.7289,7.7289,7.7289,7.7289,7.7289,7.7289,7.7289,7.7289,7.7289,7.7289,7.7289,7.7436,7.8295,7.914,7.9963,8.0718,8.1562,8.2186,8.226,8.2223,8.2186,8.226,8.2223,8.2627,8.4168,8.4572,8.5123,8.6684,8.6978,8.6978,8.6978,8.6978,8.6978,8.6941,8.6978,8.6978,8.6941,8.6958,8.6941,8.6978,8.6941,8.6941,8.6978,8.6978,8.6978,8.6978,8.6978,8.6978,8.6978,8.6978,8.6978,8.6978,8.6978,8.6978,8.6978,8.6978,8.6978,8.6978,8.6978,8.6518,3.6406,3.7742,3.9313,4.302,4.6471,4.9444,5.1289,5.5023,5.818,5.8474,0.0,0.0,0.0,0.0,0.0,0.0,0.0,0.0,0.0,0.0,0.0,0.0,0.0,0.0,0.0,0.0,0.0,0.0,0.0,6.6402,6.688,6.6696,6.716,6.8421,6.699,6.6402,6.6916,6.7444,6.7847,6.8128,6.8935,6.9743,7.0587,7.2202,7.3193,7.3795,7.516,7.5747,7.5784,7.6298,7.6518,7.6592,7.7105,7.7289,7.7289,7.7289,7.7289,7.7289,7.7289,7.7289,7.7289,7.7289,7.7289,7.7362,7.7656,7.8736,7.9853,8.0131,8.1158,8.2186,8.2186,8.2186,8.2186,8.2186,8.2186,8.2627,8.4242,8.5416,8.6334,8.6867,8.6978,8.6978,8.6978,8.6978,8.6978,8.6978,8.6978,8.6978,8.6978,8.6554,8.6444,8.6941,8.6554,8.6444,8.6941,8.6978,8.6978,8.6978,8.6978,8.6978,8.6978,8.6978,8.6978,8.6978,8.6978,8.6978,8.6978,8.6978,8.6978,8.6978,8.6978,8.6518,3.656,3.7118,3.7991,4.1772,4.3901,4.581,4.8489,0.0,5.4583,0.0,0.0,0.0,0.0,0.0,0.0,0.0,0.0,0.0,0.0,0.0,0.0,0.0,0.0,0.0,0.0,0.0,0.0,0.0,0.0,0.0,6.6035,6.5582,6.6022,6.7637,6.6132,6.5545,6.6109,6.688,6.7297,6.7297,6.8641,6.9596,7.0146,7.1762,7.2789,7.334,7.3854,7.439,7.494,7.5469,7.5873,7.6166,7.6702,7.7069,7.7289,7.7289,7.7289,7.7289,7.7289,7.7289,7.7289,7.7289,7.7289,7.7289,7.7289,7.8295,7.9449,7.9706,8.0755,8.1856,8.2113,8.2186,8.2186,8.2186,8.2406,8.2957,8.4315,8.5453,8.6354,8.6904,8.6978,8.6978,8.6978,8.6978,8.6978,8.6978,8.6978,8.6978,8.6978,8.6518,8.6407,8.6941,8.6518,8.6407,8.6941,8.6978,8.6978,8.6978,8.7252,8.7399,8.7399,8.7638,8.7675,8.7435,8.7675,8.7528,8.6978,8.6978,8.6978,8.6978,8.6978,8.6374,0.0,0.0,0.0,0.0,0.0,0.0,4.7388,0.0,5.0105,0.0,0.0,0.0,0.0,0.0,0.0,0.0,0.0,0.0,0.0,0.0,0.0,0.0,0.0,0.0,0.0,0.0,0.0,0.0,6.3576,6.4383,6.5178,6.5215,6.5215,6.5215,6.5215,6.5251,6.5251,6.6072,6.6476,6.6512,6.8935,7.0073,7.0146,7.1725,7.2496,7.2496,7.2496,7.3413,7.483,7.483,7.5359,7.6056,7.6093,7.6607,7.7289,7.7289,7.7289,7.7289,7.7289,7.7289,7.7289,7.7289,7.7289,7.7289,7.7289,7.7913,7.8772,7.9559,8.0388,8.1195,8.2003,8.2186,8.2186,8.2186,8.281,8.3601,8.4425,8.4609,8.5086,8.6684,8.6978,8.6978,8.6978,8.6978,8.6978,8.6978,8.6978,8.6978,8.6978,8.6978,8.6978,8.6978,8.6978,8.6978,8.6978,8.6978,8.7014,8.7014,8.7766,8.8206,8.8243,8.8996,8.9033,8.8243,8.8996,8.8629,8.7014,8.7014,8.7014,8.6978,8.7014,8.61,3.591,0.0,0.0,0.0,0.0,0.0,0.0,0.0,0.0,0.0,0.0,0.0,0.0,0.0,0.0,0.0,0.0,0.0,0.0,0.0,0.0,0.0,0.0,0.0,0.0,0.0,0.0,0.0,6.3013,6.327,6.349,6.349,6.349,6.349,6.349,6.3783,6.442,6.5228,6.5925,6.6512,6.8348,6.9522,7.011,7.1174,7.1931,7.2496,7.2496,7.2753,7.323,7.378,7.4515,7.527,7.5873,7.6607,7.7289,7.7289,7.7289,7.7289,7.7289,7.7289,7.7289,7.7289,7.7289,7.7289,7.7289,7.7913,7.8772,7.9559,8.0388,8.1195,8.2003,8.2186,8.2186,8.2186,8.237,8.292,8.4315,8.4609,8.5086,8.6684,8.6978,8.6978,8.6978,8.6978,8.6978,8.6978,8.6978,8.6978,8.6978,8.6978,8.6978,8.6978,8.6978,8.6978,8.6978,8.6978,8.7252,8.7839,8.8096,8.8463,8.9033,8.929,8.929,8.9069,8.929,8.8886,8.7876,8.7876,8.7582,8.7014,8.7619,8.6609,0.0,0.0,0.0,0.0,0.0,0.0,4.125,4.2791,0.0,0.0,0.0,0.0,0.0,0.0,0.0,0.0,0.0,0.0,0.0,0.0,0.0,0.0,0.0,0.0,0.0,6.0309,6.1006,6.1288,6.2242,6.2793,6.2793,6.2793,6.2793,6.2793,6.2462,6.2548,6.3038,6.387,6.4481,6.4971,6.7283,6.8825,6.9633,7.0793,7.1564,7.2004,7.2004,7.2004,7.2041,7.2496,7.356,7.494,7.5432,7.6298,7.7289,7.7289,7.7289,7.7289,7.7289,7.7289,7.7289,7.7289,7.7289,7.7289,7.7289,7.7656,7.8222,7.9066,8.0131,8.1195,8.2003,8.2186,8.2186,8.2186,8.2186,8.2553,8.3838,8.4095,8.4682,8.6611,8.6978,8.6978,8.6978,8.6978,8.6978,8.6978,8.6978,8.6978,8.6978,8.6978,8.6978,8.6978,8.6978,8.6978,8.6978,8.6978,8.7362,8.8133,8.85,8.9069,8.9877,9.0207,9.0244,8.9913,8.9913,8.951,8.872,8.8353,8.7802,8.7014,8.7839,8.7049,0.0,0.0,0.0,0.0,0.0,0.0,4.1392,4.1372,4.1397,0.0,0.0,0.0,0.0,0.0,0.0,0.0,0.0,0.0,0.0,0.0,0.0,0.0,0.0,0.0,5.84,6.0126,6.086,5.971,6.1508,6.2646,6.2536,6.2462,6.2462,6.2646,6.1704,6.1349,6.1606,6.2316,6.2719,6.2829,6.6035,6.7981,6.8825,7.0353,7.1087,7.116,7.116,7.1233,7.1307,7.1307,7.2665,7.4757,7.4757,7.5747,7.7179,7.7179,7.7215,7.7289,7.7289,7.7289,7.7289,7.7289,7.7289,7.7289,7.7289,7.7289,7.7472,7.8369,7.9764,8.1158,8.1893,8.2113,8.2186,8.2186,8.2186,8.2406,8.3234,8.3381,8.4042,8.628,8.6811,8.6885,8.6885,8.6941,8.6978,8.6978,8.6978,8.6978,8.6978,8.6978,8.6978,8.6978,8.6978,8.6978,8.6978,8.6978,8.7399,8.828,8.8996,8.9803,9.0702,9.1436,9.1473,9.0739,9.0665,9.0207,8.94,8.85,8.7766,8.7124,8.7949,8.7431,0.0,0.0,0.0,0.0,0.0,0.0,3.9185,3.9561,4.0414,0.0,0.0,0.0,0.0,0.0,0.0,0.0,0.0,0.0,0.0,0.0,0.0,0.0,0.0,0.0,5.9832,5.9783,6.0334,6.1985,6.1924,6.1557,6.0884,6.026,6.0481,6.1777,5.9795,5.9648,6.1569,6.1741,6.2144,6.2829,6.5485,6.7173,6.7958,6.8935,6.9743,7.033,7.033,7.0697,7.1307,7.1307,7.2349,7.3927,7.3927,7.4918,7.635,7.635,7.6738,7.7289,7.7289,7.7289,7.7289,7.7289,7.7289,7.7289,7.7289,7.7289,7.7472,7.8369,7.9764,8.1048,8.1195,8.1709,8.2186,8.2186,8.2186,8.2406,8.3234,8.3381,8.3711,8.4866,8.56,8.604,8.604,8.6591,8.6978,8.6978,8.6978,8.6978,8.6978,8.6978,8.6978,8.6978,8.6978,8.6978,8.6978,8.6978,8.7601,8.9069,8.9326,9.006,9.151,9.173,9.173,9.1583,9.0922,9.0207,8.94,8.7932,8.7509,8.7986,8.8776,8.8271,0.0,0.0,0.0,3.9499,0.0,0.0,0.0,3.8844,3.9297,4.03,4.0349,4.0766,4.2574,0.0,0.0,0.0,0.0,0.0,0.0,0.0,0.0,0.0,0.0,0.0,5.8572,5.9343,6.0297,6.1508,6.086,6.0419,6.0419,6.0003,6.0346,6.1557,5.9648,5.9391,6.097,6.0603,6.0823,6.1618,6.3673,6.5521,6.715,6.7907,6.8752,6.9486,6.9486,6.9963,7.0697,7.0697,7.1651,7.312,7.3523,7.4661,7.6093,7.6093,7.6592,7.7289,7.7289,7.7289,7.7289,7.7289,7.7289,7.7289,7.7289,7.7289,7.7472,7.8369,7.947,8.0498,8.0901,8.1599,8.2186,8.2186,8.2186,8.2296,8.27,8.281,8.292,8.3324,8.4389,8.5306,8.571,8.6481,8.6978,8.6978,8.6978,8.6978,8.6978,8.6978,8.6978,8.6978,8.6978,8.6978,8.6978,8.7362,8.8115,8.9326,8.9767,9.0555,9.173,9.1803,9.162,9.1216,9.0812,9.0207,8.94,8.8189,8.7802,8.8206,8.9033,8.8946,0.0,0.0,0.0,0.0,0.0,3.9788,0.0,0.0,0.0,3.9284,3.8732,0.0,0.0,0.0,0.0,0.0,0.0,0.0,0.0,0.0,0.0,0.0,0.0,0.0,0.0,5.8572,5.9758,5.9942,5.9196,5.9086,5.9905,5.9942,6.0309,6.1117,5.971,5.9343,6.015,5.9526,5.9526,6.0187,6.1949,6.393,6.6072,6.704,6.7907,6.8678,6.8678,6.9119,6.9853,6.9853,7.0807,7.2349,7.3156,7.4368,7.5652,7.5799,7.6371,7.7105,7.7252,7.7289,7.7289,7.7289,7.7289,7.7289,7.7289,7.7289,7.7472,7.8369,7.9192,8.0,8.0791,8.1599,8.2186,8.2186,8.2186,8.2186,8.2186,8.2186,8.226,8.2406,8.3618,8.4792,8.5453,8.6371,8.6978,8.6978,8.6978,8.6978,8.6978,8.6978,8.6978,8.6978,8.6978,8.6978,8.6978,8.7729,8.8536,8.9363,9.017,9.0959,9.1767,9.1803,9.1473,9.0849,9.0849,9.0427,8.962,8.883,8.8426,8.8463,8.9106,8.9473,0.0,0.0,0.0,0.0,4.159,0.0,0.0,0.0,3.9313,3.8026,0.0,3.8053,3.7945,0.0,0.0,0.0,0.0,0.0,0.0,0.0,0.0,0.0,0.0,0.0,0.0,5.7031,5.7508,5.8217,5.7519,5.7398,5.8217,5.8253,5.8657,5.9453,5.8621,5.851,5.9343,5.9269,5.9269,5.938,6.1692,6.3343,6.4433,6.5925,6.7063,6.7847,6.7847,6.8274,6.9032,6.9032,6.9986,7.1527,7.2312,7.3193,7.4037,7.4757,7.5542,7.635,7.7069,7.7289,7.7289,7.7289,7.7289,7.7289,7.7289,7.7289,7.7472,7.8369,7.9192,8.0,8.0791,8.1599,8.2186,8.2186,8.2186,8.2186,8.2186,8.2186,8.2406,8.3124,8.3985,8.4646,8.4719,8.6004,8.6978,8.6978,8.6978,8.6978,8.6978,8.6978,8.6978,8.6978,8.6978,8.6978,8.6978,8.7729,8.8536,8.9363,9.017,9.0959,9.1767,9.1803,9.1767,9.1657,9.1657,9.1253,9.0482,8.9657,8.9253,8.9253,8.9363,8.9767,0.0,0.0,0.0,0.0,0.0,0.0,0.0,0.0,3.8866,0.0,0.0,0.0,0.0,0.0,0.0,0.0,3.9506,0.0,0.0,0.0,0.0,0.0,0.0,0.0,0.0,0.0,0.0,0.0,5.506,5.5537,5.5904,5.6785,5.7875,5.9159,5.8437,5.84,5.9184,5.8756,5.8756,5.9221,6.0701,6.2095,6.3392,6.5044,6.6256,6.7026,6.7517,6.8164,6.8885,6.8885,6.9839,7.1344,7.1674,7.2569,7.378,7.461,7.5432,7.624,7.7032,7.7289,7.7289,7.7289,7.7289,7.7289,7.7289,7.7289,7.7399,7.7729,7.8772,7.989,8.022,8.1232,8.2186,8.2186,8.2186,8.2186,8.2186,8.2553,8.2994,8.3344,8.4425,8.5306,8.5306,8.6261,8.6978,8.6978,8.6978,8.6978,8.6978,8.6978,8.6978,8.6978,8.6978,8.6978,8.6978,8.8152,8.9033,8.9363,9.0592,9.1436,9.1803,9.1803,9.1803,9.1803,9.1803,9.14,9.0592,8.9803,8.9657,9.0097,8.962,9.006,4.0637,0.0,0.0,0.0,0.0,0.0,0.0,0.0,0.0,0.0,0.0,0.0,0.0,0.0,3.8048,0.0,0.0,3.9494,0.0,0.0,0.0,0.0,0.0,0.0,0.0,0.0,0.0,0.0,0.0,5.3115,5.4032,5.5379,5.6884,5.8499,5.818,5.829,5.8866,5.829,5.829,5.8866,5.9673,6.0921,6.2499,6.3967,6.5288,6.6512,6.71,6.7834,6.8568,6.8568,6.9398,7.0646,7.0866,7.1945,7.3487,7.45,7.5432,7.624,7.7032,7.7289,7.7289,7.7289,7.7289,7.7289,7.7289,7.7472,7.7656,7.7656,7.8846,8.0147,8.0147,8.1158,8.2186,8.2186,8.2186,8.226,8.248,8.2994,8.3528,8.3968,8.5013,8.5857,8.6077,8.6628,8.6978,8.6978,8.6978,8.6978,8.6978,8.6978,8.6978,8.6978,8.6978,8.6978,8.6978,8.8482,8.9583,9.0024,9.1143,9.1693,9.1473,9.1693,9.1693,9.1473,9.1693,9.14,9.0592,8.9987,9.0024,9.0592,8.9767,9.0134,0.0,0.0,0.0,4.1209,0.0,0.0,0.0,0.0,4.04,0.0,0.0,0.0,0.0,0.0,0.0,0.0,0.0,0.0,0.0,0.0,0.0,0.0,0.0,0.0,0.0,0.0,0.0,0.0,0.0,0.0,5.3067,5.4032,5.5207,5.6811,5.7593,5.7997,5.8033,5.7997,5.7997,5.8033,5.8866,6.0077,6.1667,6.2499,6.4187,6.6512,6.6512,6.699,6.7737,6.7737,6.8238,6.9045,6.9816,7.1101,7.2716,7.4316,7.5432,7.624,7.7032,7.7289,7.7289,7.7289,7.7289,7.7289,7.7289,7.7876,7.8552,7.8552,7.9727,8.0975,8.0975,8.1562,8.2186,8.2186,8.2186,8.2406,8.3197,8.3381,8.3858,8.5416,8.5747,8.604,8.6848,8.6978,8.6978,8.6978,8.6978,8.6978,8.6978,8.6978,8.6978,8.6978,8.6978,8.6978,8.6978,8.8482,9.006,9.162,9.1767,9.1436,9.0665,9.14,9.1436,9.0665,9.14,9.14,9.0592,9.0592,9.0592,9.0592,8.9767,8.984,0.0,0.0,4.3804,4.205,0.0,0.0,0.0,0.0,0.0,0.0,0.0,0.0,0.0,0.0,0.0,0.0,0.0,0.0,0.0,0.0,0.0,0.0,0.0,0.0,0.0,0.0,0.0,0.0,0.0,0.0,0.0,5.1499,5.3555,5.517,5.6528,5.7446,5.7997,5.7997,5.7997,5.7997,5.8829,5.9747,6.086,6.2205,6.3857,6.5729,6.6256,6.6966,6.77,6.77,6.8508,6.9706,7.0,7.1725,7.4133,7.4683,7.5432,7.624,7.7032,7.7289,7.7289,7.7289,7.7289,7.7289,7.7289,7.7509,7.7729,7.7729,7.8919,8.0204,8.0204,8.1195,8.2186,8.2186,8.2186,8.226,8.2553,8.3434,8.4352,8.4903,8.5857,8.6701,8.6941,8.6978,8.6978,8.6978,8.6978,8.6978,8.6978,8.6978,8.6978,8.6978,8.6978,8.7215,8.7766,8.8776,9.0097,9.1693,9.1289,9.1106,9.1363,9.1657,9.1657,9.14,9.1657,9.1657,9.14,9.0849,9.0886,9.1363,9.0024,9.0097,4.275,4.3617,0.0,4.2777,4.305,0.0,4.1657,0.0,0.0,0.0,0.0,0.0,0.0,0.0,0.0,0.0,0.0,0.0,0.0,4.0089,0.0,0.0,0.0,0.0,0.0,0.0,0.0,0.0,0.0,0.0,0.0,0.0,5.1977,5.3922,5.582,5.7189,5.7997,5.7997,5.7997,5.7997,5.8547,5.9343,6.0456,6.1471,6.3013,6.4934,6.5705,6.6512,6.7297,6.759,6.8471,6.9706,7.0,7.1872,7.4515,7.4793,7.5601,7.6592,7.7142,7.7289,7.7289,7.7289,7.7289,7.7289,7.7289,7.7729,7.8148,7.7839,7.9176,8.0587,8.0293,8.1195,8.2186,8.2186,8.2186,8.226,8.2553,8.3434,8.4352,8.4903,8.5857,8.6664,8.6941,8.6978,8.6978,8.6978,8.6978,8.6978,8.6978,8.6978,8.6978,8.6978,8.7234,8.7766,8.8573,8.8849,8.9674,9.1253,9.0886,9.0849,9.1363,9.1657,9.206,9.2684,9.2097,9.2097,9.2684,9.1583,9.1143,9.1326,9.0024,9.0097]}]]